<?xml version="1.0" encoding="UTF-8" ?>
<gpx version="1.1" xmlns:xsi="http://www.w3.org/2001/XMLSchema-instance" 
    xmlns="http://www.topografix.com/GPX/1/1" 
    xsi:schemaLocation="http://www.topografix.com/GPX/1/1 http://www.topografix.com/GPX/1/1/gpx.xsd" 
    creator="Openrunner - https://www.openrunner.com" >	<trk>
						<name>Dame Blanche - 105-19107473</name>
						<trkseg>
					<trkpt lat="48.884420" lon="2.269080">
						<ele>41</ele>
						<time>2024-05-30T11:54:01Z</time>
					</trkpt>
					<trkpt lat="48.884460" lon="2.268920">
						<ele>42</ele>
						<time>2024-05-30T11:54:03Z</time>
					</trkpt>
					<trkpt lat="48.884520" lon="2.268920">
						<ele>42</ele>
						<time>2024-05-30T11:54:04Z</time>
					</trkpt>
					<trkpt lat="48.884690" lon="2.268180">
						<ele>44</ele>
						<time>2024-05-30T11:54:13Z</time>
					</trkpt>
					<trkpt lat="48.884660" lon="2.268040">
						<ele>45</ele>
						<time>2024-05-30T11:54:15Z</time>
					</trkpt>
					<trkpt lat="48.884790" lon="2.267460">
						<ele>49</ele>
						<time>2024-05-30T11:54:22Z</time>
					</trkpt>
					<trkpt lat="48.884860" lon="2.267410">
						<ele>49</ele>
						<time>2024-05-30T11:54:24Z</time>
					</trkpt>
					<trkpt lat="48.885640" lon="2.264040">
						<ele>44</ele>
						<time>2024-05-30T11:55:05Z</time>
					</trkpt>
					<trkpt lat="48.885600" lon="2.263930">
						<ele>43</ele>
						<time>2024-05-30T11:55:07Z</time>
					</trkpt>
					<trkpt lat="48.885660" lon="2.263680">
						<ele>43</ele>
						<time>2024-05-30T11:55:10Z</time>
					</trkpt>
					<trkpt lat="48.885720" lon="2.263670">
						<ele>43</ele>
						<time>2024-05-30T11:55:11Z</time>
					</trkpt>
					<trkpt lat="48.885950" lon="2.262730">
						<ele>39</ele>
						<time>2024-05-30T11:55:23Z</time>
					</trkpt>
					<trkpt lat="48.885920" lon="2.262630">
						<ele>39</ele>
						<time>2024-05-30T11:55:24Z</time>
					</trkpt>
					<trkpt lat="48.886080" lon="2.262260">
						<ele>39</ele>
						<time>2024-05-30T11:55:29Z</time>
					</trkpt>
					<trkpt lat="48.886170" lon="2.262090">
						<ele>39</ele>
						<time>2024-05-30T11:55:32Z</time>
					</trkpt>
					<trkpt lat="48.886290" lon="2.261950">
						<ele>39</ele>
						<time>2024-05-30T11:55:34Z</time>
					</trkpt>
					<trkpt lat="48.886340" lon="2.261850">
						<ele>39</ele>
						<time>2024-05-30T11:55:36Z</time>
					</trkpt>
					<trkpt lat="48.886380" lon="2.261730">
						<ele>39</ele>
						<time>2024-05-30T11:55:37Z</time>
					</trkpt>
					<trkpt lat="48.886410" lon="2.261720">
						<ele>39</ele>
						<time>2024-05-30T11:55:38Z</time>
					</trkpt>
					<trkpt lat="48.886540" lon="2.261960">
						<ele>40</ele>
						<time>2024-05-30T11:55:42Z</time>
					</trkpt>
					<trkpt lat="48.886910" lon="2.262600">
						<ele>41</ele>
						<time>2024-05-30T11:55:52Z</time>
					</trkpt>
					<trkpt lat="48.887630" lon="2.263770">
						<ele>38</ele>
						<time>2024-05-30T11:56:10Z</time>
					</trkpt>
					<trkpt lat="48.888200" lon="2.264640">
						<ele>37</ele>
						<time>2024-05-30T11:56:25Z</time>
					</trkpt>
					<trkpt lat="48.890090" lon="2.269040">
						<ele>33</ele>
						<time>2024-05-30T11:57:26Z</time>
					</trkpt>
					<trkpt lat="48.890140" lon="2.268990">
						<ele>33</ele>
						<time>2024-05-30T11:57:27Z</time>
					</trkpt>
					<trkpt lat="48.890090" lon="2.269040">
						<ele>33</ele>
						<time>2024-05-30T11:57:28Z</time>
					</trkpt>
					<trkpt lat="48.890740" lon="2.270550">
						<ele>32</ele>
						<time>2024-05-30T11:57:49Z</time>
					</trkpt>
					<trkpt lat="48.891090" lon="2.270270">
						<ele>33</ele>
						<time>2024-05-30T11:57:56Z</time>
					</trkpt>
					<trkpt lat="48.891460" lon="2.269900">
						<ele>34</ele>
						<time>2024-05-30T11:58:04Z</time>
					</trkpt>
					<trkpt lat="48.892160" lon="2.269180">
						<ele>33</ele>
						<time>2024-05-30T11:58:19Z</time>
					</trkpt>
					<trkpt lat="48.892290" lon="2.269020">
						<ele>34</ele>
						<time>2024-05-30T11:58:22Z</time>
					</trkpt>
					<trkpt lat="48.892330" lon="2.268920">
						<ele>34</ele>
						<time>2024-05-30T11:58:24Z</time>
					</trkpt>
					<trkpt lat="48.893260" lon="2.267970">
						<ele>34</ele>
						<time>2024-05-30T11:58:44Z</time>
					</trkpt>
					<trkpt lat="48.893450" lon="2.267850">
						<ele>33</ele>
						<time>2024-05-30T11:58:47Z</time>
					</trkpt>
					<trkpt lat="48.893580" lon="2.267710">
						<ele>32</ele>
						<time>2024-05-30T11:58:50Z</time>
					</trkpt>
					<trkpt lat="48.893700" lon="2.267580">
						<ele>32</ele>
						<time>2024-05-30T11:58:53Z</time>
					</trkpt>
					<trkpt lat="48.893810" lon="2.267490">
						<ele>31</ele>
						<time>2024-05-30T11:58:55Z</time>
					</trkpt>
					<trkpt lat="48.894160" lon="2.267130">
						<ele>32</ele>
						<time>2024-05-30T11:59:03Z</time>
					</trkpt>
					<trkpt lat="48.894230" lon="2.267030">
						<ele>33</ele>
						<time>2024-05-30T11:59:04Z</time>
					</trkpt>
					<trkpt lat="48.894880" lon="2.266350">
						<ele>38</ele>
						<time>2024-05-30T11:59:18Z</time>
					</trkpt>
					<trkpt lat="48.895260" lon="2.265990">
						<ele>36</ele>
						<time>2024-05-30T11:59:26Z</time>
					</trkpt>
					<trkpt lat="48.895430" lon="2.265860">
						<ele>35</ele>
						<time>2024-05-30T11:59:30Z</time>
					</trkpt>
					<trkpt lat="48.896300" lon="2.264950">
						<ele>34</ele>
						<time>2024-05-30T11:59:48Z</time>
					</trkpt>
					<trkpt lat="48.896370" lon="2.264910">
						<ele>34</ele>
						<time>2024-05-30T11:59:50Z</time>
					</trkpt>
					<trkpt lat="48.896590" lon="2.264710">
						<ele>34</ele>
						<time>2024-05-30T11:59:54Z</time>
					</trkpt>
					<trkpt lat="48.896930" lon="2.264370">
						<ele>37</ele>
						<time>2024-05-30T12:00:02Z</time>
					</trkpt>
					<trkpt lat="48.897410" lon="2.263820">
						<ele>43</ele>
						<time>2024-05-30T12:00:12Z</time>
					</trkpt>
					<trkpt lat="48.897540" lon="2.263630">
						<ele>45</ele>
						<time>2024-05-30T12:00:15Z</time>
					</trkpt>
					<trkpt lat="48.900160" lon="2.261000">
						<ele>47</ele>
						<time>2024-05-30T12:01:11Z</time>
					</trkpt>
					<trkpt lat="48.900410" lon="2.260770">
						<ele>46</ele>
						<time>2024-05-30T12:01:17Z</time>
					</trkpt>
					<trkpt lat="48.900490" lon="2.260770">
						<ele>46</ele>
						<time>2024-05-30T12:01:18Z</time>
					</trkpt>
					<trkpt lat="48.900560" lon="2.260740">
						<ele>46</ele>
						<time>2024-05-30T12:01:19Z</time>
					</trkpt>
					<trkpt lat="48.901860" lon="2.259420">
						<ele>43</ele>
						<time>2024-05-30T12:01:47Z</time>
					</trkpt>
					<trkpt lat="48.902300" lon="2.259030">
						<ele>43</ele>
						<time>2024-05-30T12:01:56Z</time>
					</trkpt>
					<trkpt lat="48.902330" lon="2.258860">
						<ele>43</ele>
						<time>2024-05-30T12:01:58Z</time>
					</trkpt>
					<trkpt lat="48.904600" lon="2.256660">
						<ele>45</ele>
						<time>2024-05-30T12:02:46Z</time>
					</trkpt>
					<trkpt lat="48.904770" lon="2.256590">
						<ele>45</ele>
						<time>2024-05-30T12:02:49Z</time>
					</trkpt>
					<trkpt lat="48.905160" lon="2.256230">
						<ele>45</ele>
						<time>2024-05-30T12:02:57Z</time>
					</trkpt>
					<trkpt lat="48.905280" lon="2.256170">
						<ele>45</ele>
						<time>2024-05-30T12:03:00Z</time>
					</trkpt>
					<trkpt lat="48.905360" lon="2.256230">
						<ele>45</ele>
						<time>2024-05-30T12:03:01Z</time>
					</trkpt>
					<trkpt lat="48.905420" lon="2.256230">
						<ele>45</ele>
						<time>2024-05-30T12:03:02Z</time>
					</trkpt>
					<trkpt lat="48.905510" lon="2.256170">
						<ele>45</ele>
						<time>2024-05-30T12:03:04Z</time>
					</trkpt>
					<trkpt lat="48.905570" lon="2.256050">
						<ele>46</ele>
						<time>2024-05-30T12:03:06Z</time>
					</trkpt>
					<trkpt lat="48.905580" lon="2.255900">
						<ele>46</ele>
						<time>2024-05-30T12:03:07Z</time>
					</trkpt>
					<trkpt lat="48.905680" lon="2.255820">
						<ele>46</ele>
						<time>2024-05-30T12:03:09Z</time>
					</trkpt>
					<trkpt lat="48.905860" lon="2.255750">
						<ele>46</ele>
						<time>2024-05-30T12:03:13Z</time>
					</trkpt>
					<trkpt lat="48.906050" lon="2.255750">
						<ele>46</ele>
						<time>2024-05-30T12:03:16Z</time>
					</trkpt>
					<trkpt lat="48.907870" lon="2.255540">
						<ele>46</ele>
						<time>2024-05-30T12:03:49Z</time>
					</trkpt>
					<trkpt lat="48.908120" lon="2.255490">
						<ele>46</ele>
						<time>2024-05-30T12:03:53Z</time>
					</trkpt>
					<trkpt lat="48.911170" lon="2.254630">
						<ele>45</ele>
						<time>2024-05-30T12:04:48Z</time>
					</trkpt>
					<trkpt lat="48.911730" lon="2.254330">
						<ele>43</ele>
						<time>2024-05-30T12:04:59Z</time>
					</trkpt>
					<trkpt lat="48.913310" lon="2.253320">
						<ele>40</ele>
						<time>2024-05-30T12:05:29Z</time>
					</trkpt>
					<trkpt lat="48.913390" lon="2.253320">
						<ele>40</ele>
						<time>2024-05-30T12:05:31Z</time>
					</trkpt>
					<trkpt lat="48.913650" lon="2.253160">
						<ele>41</ele>
						<time>2024-05-30T12:05:36Z</time>
					</trkpt>
					<trkpt lat="48.913770" lon="2.253120">
						<ele>41</ele>
						<time>2024-05-30T12:05:38Z</time>
					</trkpt>
					<trkpt lat="48.913880" lon="2.253030">
						<ele>41</ele>
						<time>2024-05-30T12:05:40Z</time>
					</trkpt>
					<trkpt lat="48.914180" lon="2.252950">
						<ele>42</ele>
						<time>2024-05-30T12:05:46Z</time>
					</trkpt>
					<trkpt lat="48.914510" lon="2.252890">
						<ele>42</ele>
						<time>2024-05-30T12:05:52Z</time>
					</trkpt>
					<trkpt lat="48.915270" lon="2.252830">
						<ele>41</ele>
						<time>2024-05-30T12:06:05Z</time>
					</trkpt>
					<trkpt lat="48.915490" lon="2.252780">
						<ele>41</ele>
						<time>2024-05-30T12:06:09Z</time>
					</trkpt>
					<trkpt lat="48.915710" lon="2.252760">
						<ele>41</ele>
						<time>2024-05-30T12:06:13Z</time>
					</trkpt>
					<trkpt lat="48.915960" lon="2.252770">
						<ele>41</ele>
						<time>2024-05-30T12:06:17Z</time>
					</trkpt>
					<trkpt lat="48.918980" lon="2.252650">
						<ele>43</ele>
						<time>2024-05-30T12:07:11Z</time>
					</trkpt>
					<trkpt lat="48.919930" lon="2.252650">
						<ele>45</ele>
						<time>2024-05-30T12:07:28Z</time>
					</trkpt>
					<trkpt lat="48.920180" lon="2.252660">
						<ele>45</ele>
						<time>2024-05-30T12:07:33Z</time>
					</trkpt>
					<trkpt lat="48.920410" lon="2.252760">
						<ele>45</ele>
						<time>2024-05-30T12:07:37Z</time>
					</trkpt>
					<trkpt lat="48.920510" lon="2.252780">
						<ele>45</ele>
						<time>2024-05-30T12:07:39Z</time>
					</trkpt>
					<trkpt lat="48.920840" lon="2.252790">
						<ele>46</ele>
						<time>2024-05-30T12:07:44Z</time>
					</trkpt>
					<trkpt lat="48.920940" lon="2.252770">
						<ele>46</ele>
						<time>2024-05-30T12:07:46Z</time>
					</trkpt>
					<trkpt lat="48.921230" lon="2.252640">
						<ele>45</ele>
						<time>2024-05-30T12:07:52Z</time>
					</trkpt>
					<trkpt lat="48.922050" lon="2.252620">
						<ele>44</ele>
						<time>2024-05-30T12:08:06Z</time>
					</trkpt>
					<trkpt lat="48.922330" lon="2.252610">
						<ele>43</ele>
						<time>2024-05-30T12:08:11Z</time>
					</trkpt>
					<trkpt lat="48.922800" lon="2.252640">
						<ele>43</ele>
						<time>2024-05-30T12:08:20Z</time>
					</trkpt>
					<trkpt lat="48.922870" lon="2.252540">
						<ele>43</ele>
						<time>2024-05-30T12:08:21Z</time>
					</trkpt>
					<trkpt lat="48.923180" lon="2.252400">
						<ele>43</ele>
						<time>2024-05-30T12:08:27Z</time>
					</trkpt>
					<trkpt lat="48.923330" lon="2.252460">
						<ele>42</ele>
						<time>2024-05-30T12:08:30Z</time>
					</trkpt>
					<trkpt lat="48.923910" lon="2.252610">
						<ele>37</ele>
						<time>2024-05-30T12:08:40Z</time>
					</trkpt>
					<trkpt lat="48.924020" lon="2.252600">
						<ele>36</ele>
						<time>2024-05-30T12:08:42Z</time>
					</trkpt>
					<trkpt lat="48.924070" lon="2.252660">
						<ele>36</ele>
						<time>2024-05-30T12:08:43Z</time>
					</trkpt>
					<trkpt lat="48.924170" lon="2.252680">
						<ele>35</ele>
						<time>2024-05-30T12:08:45Z</time>
					</trkpt>
					<trkpt lat="48.924270" lon="2.252660">
						<ele>35</ele>
						<time>2024-05-30T12:08:47Z</time>
					</trkpt>
					<trkpt lat="48.924760" lon="2.252720">
						<ele>32</ele>
						<time>2024-05-30T12:08:56Z</time>
					</trkpt>
					<trkpt lat="48.925990" lon="2.252940">
						<ele>30</ele>
						<time>2024-05-30T12:09:18Z</time>
					</trkpt>
					<trkpt lat="48.927070" lon="2.253450">
						<ele>32</ele>
						<time>2024-05-30T12:09:38Z</time>
					</trkpt>
					<trkpt lat="48.927630" lon="2.253720">
						<ele>32</ele>
						<time>2024-05-30T12:09:48Z</time>
					</trkpt>
					<trkpt lat="48.929840" lon="2.254940">
						<ele>26</ele>
						<time>2024-05-30T12:10:30Z</time>
					</trkpt>
					<trkpt lat="48.930270" lon="2.255080">
						<ele>27</ele>
						<time>2024-05-30T12:10:38Z</time>
					</trkpt>
					<trkpt lat="48.930710" lon="2.255150">
						<ele>28</ele>
						<time>2024-05-30T12:10:46Z</time>
					</trkpt>
					<trkpt lat="48.932280" lon="2.255310">
						<ele>29</ele>
						<time>2024-05-30T12:11:14Z</time>
					</trkpt>
					<trkpt lat="48.932720" lon="2.255440">
						<ele>29</ele>
						<time>2024-05-30T12:11:22Z</time>
					</trkpt>
					<trkpt lat="48.933270" lon="2.255550">
						<ele>31</ele>
						<time>2024-05-30T12:11:32Z</time>
					</trkpt>
					<trkpt lat="48.933660" lon="2.255660">
						<ele>30</ele>
						<time>2024-05-30T12:11:39Z</time>
					</trkpt>
					<trkpt lat="48.933910" lon="2.255790">
						<ele>30</ele>
						<time>2024-05-30T12:11:43Z</time>
					</trkpt>
					<trkpt lat="48.934400" lon="2.256090">
						<ele>29</ele>
						<time>2024-05-30T12:11:53Z</time>
					</trkpt>
					<trkpt lat="48.934940" lon="2.256310">
						<ele>29</ele>
						<time>2024-05-30T12:12:03Z</time>
					</trkpt>
					<trkpt lat="48.935100" lon="2.256400">
						<ele>29</ele>
						<time>2024-05-30T12:12:06Z</time>
					</trkpt>
					<trkpt lat="48.935310" lon="2.256530">
						<ele>29</ele>
						<time>2024-05-30T12:12:10Z</time>
					</trkpt>
					<trkpt lat="48.936190" lon="2.257170">
						<ele>31</ele>
						<time>2024-05-30T12:12:27Z</time>
					</trkpt>
					<trkpt lat="48.936630" lon="2.257490">
						<ele>30</ele>
						<time>2024-05-30T12:12:36Z</time>
					</trkpt>
					<trkpt lat="48.937280" lon="2.257970">
						<ele>30</ele>
						<time>2024-05-30T12:12:49Z</time>
					</trkpt>
					<trkpt lat="48.937420" lon="2.258190">
						<ele>29</ele>
						<time>2024-05-30T12:12:52Z</time>
					</trkpt>
					<trkpt lat="48.937590" lon="2.258180">
						<ele>29</ele>
						<time>2024-05-30T12:12:55Z</time>
					</trkpt>
					<trkpt lat="48.939220" lon="2.256220">
						<ele>29</ele>
						<time>2024-05-30T12:13:32Z</time>
					</trkpt>
					<trkpt lat="48.939230" lon="2.256250">
						<ele>29</ele>
						<time>2024-05-30T12:13:33Z</time>
					</trkpt>
					<trkpt lat="48.939240" lon="2.256280">
						<ele>29</ele>
						<time>2024-05-30T12:13:33Z</time>
					</trkpt>
					<trkpt lat="48.939340" lon="2.256180">
						<ele>28</ele>
						<time>2024-05-30T12:13:35Z</time>
					</trkpt>
					<trkpt lat="48.939790" lon="2.255680">
						<ele>24</ele>
						<time>2024-05-30T12:13:45Z</time>
					</trkpt>
					<trkpt lat="48.941250" lon="2.254150">
						<ele>27</ele>
						<time>2024-05-30T12:14:17Z</time>
					</trkpt>
					<trkpt lat="48.941710" lon="2.253660">
						<ele>28</ele>
						<time>2024-05-30T12:14:27Z</time>
					</trkpt>
					<trkpt lat="48.941830" lon="2.253580">
						<ele>28</ele>
						<time>2024-05-30T12:14:29Z</time>
					</trkpt>
					<trkpt lat="48.941970" lon="2.253540">
						<ele>29</ele>
						<time>2024-05-30T12:14:31Z</time>
					</trkpt>
					<trkpt lat="48.942080" lon="2.253550">
						<ele>29</ele>
						<time>2024-05-30T12:14:33Z</time>
					</trkpt>
					<trkpt lat="48.942090" lon="2.253480">
						<ele>29</ele>
						<time>2024-05-30T12:14:34Z</time>
					</trkpt>
					<trkpt lat="48.942300" lon="2.253590">
						<ele>30</ele>
						<time>2024-05-30T12:14:38Z</time>
					</trkpt>
					<trkpt lat="48.943160" lon="2.255350">
						<ele>26</ele>
						<time>2024-05-30T12:15:04Z</time>
					</trkpt>
					<trkpt lat="48.943150" lon="2.255450">
						<ele>26</ele>
						<time>2024-05-30T12:15:05Z</time>
					</trkpt>
					<trkpt lat="48.943170" lon="2.255560">
						<ele>26</ele>
						<time>2024-05-30T12:15:06Z</time>
					</trkpt>
					<trkpt lat="48.943200" lon="2.255650">
						<ele>26</ele>
						<time>2024-05-30T12:15:08Z</time>
					</trkpt>
					<trkpt lat="48.943250" lon="2.255720">
						<ele>26</ele>
						<time>2024-05-30T12:15:09Z</time>
					</trkpt>
					<trkpt lat="48.943310" lon="2.255770">
						<ele>26</ele>
						<time>2024-05-30T12:15:10Z</time>
					</trkpt>
					<trkpt lat="48.943420" lon="2.255760">
						<ele>26</ele>
						<time>2024-05-30T12:15:12Z</time>
					</trkpt>
					<trkpt lat="48.943470" lon="2.255730">
						<ele>26</ele>
						<time>2024-05-30T12:15:13Z</time>
					</trkpt>
					<trkpt lat="48.943530" lon="2.255650">
						<ele>27</ele>
						<time>2024-05-30T12:15:14Z</time>
					</trkpt>
					<trkpt lat="48.943570" lon="2.255550">
						<ele>27</ele>
						<time>2024-05-30T12:15:16Z</time>
					</trkpt>
					<trkpt lat="48.943820" lon="2.255320">
						<ele>27</ele>
						<time>2024-05-30T12:15:21Z</time>
					</trkpt>
					<trkpt lat="48.944020" lon="2.255100">
						<ele>26</ele>
						<time>2024-05-30T12:15:25Z</time>
					</trkpt>
					<trkpt lat="48.944200" lon="2.254970">
						<ele>26</ele>
						<time>2024-05-30T12:15:29Z</time>
					</trkpt>
					<trkpt lat="48.944640" lon="2.254790">
						<ele>28</ele>
						<time>2024-05-30T12:15:37Z</time>
					</trkpt>
					<trkpt lat="48.945460" lon="2.254520">
						<ele>30</ele>
						<time>2024-05-30T12:15:52Z</time>
					</trkpt>
					<trkpt lat="48.946330" lon="2.254230">
						<ele>32</ele>
						<time>2024-05-30T12:16:08Z</time>
					</trkpt>
					<trkpt lat="48.946760" lon="2.254880">
						<ele>33</ele>
						<time>2024-05-30T12:16:18Z</time>
					</trkpt>
					<trkpt lat="48.947240" lon="2.255550">
						<ele>35</ele>
						<time>2024-05-30T12:16:30Z</time>
					</trkpt>
					<trkpt lat="48.947440" lon="2.255800">
						<ele>36</ele>
						<time>2024-05-30T12:16:35Z</time>
					</trkpt>
					<trkpt lat="48.947610" lon="2.255910">
						<ele>37</ele>
						<time>2024-05-30T12:16:38Z</time>
					</trkpt>
					<trkpt lat="48.947680" lon="2.255930">
						<ele>37</ele>
						<time>2024-05-30T12:16:39Z</time>
					</trkpt>
					<trkpt lat="48.947790" lon="2.255870">
						<ele>37</ele>
						<time>2024-05-30T12:16:41Z</time>
					</trkpt>
					<trkpt lat="48.948890" lon="2.253340">
						<ele>36</ele>
						<time>2024-05-30T12:17:17Z</time>
					</trkpt>
					<trkpt lat="48.948980" lon="2.253500">
						<ele>36</ele>
						<time>2024-05-30T12:17:19Z</time>
					</trkpt>
					<trkpt lat="48.949080" lon="2.253530">
						<ele>36</ele>
						<time>2024-05-30T12:17:21Z</time>
					</trkpt>
					<trkpt lat="48.949560" lon="2.253560">
						<ele>37</ele>
						<time>2024-05-30T12:17:30Z</time>
					</trkpt>
					<trkpt lat="48.952080" lon="2.253830">
						<ele>41</ele>
						<time>2024-05-30T12:18:15Z</time>
					</trkpt>
					<trkpt lat="48.952640" lon="2.253960">
						<ele>41</ele>
						<time>2024-05-30T12:18:25Z</time>
					</trkpt>
					<trkpt lat="48.952870" lon="2.254030">
						<ele>42</ele>
						<time>2024-05-30T12:18:29Z</time>
					</trkpt>
					<trkpt lat="48.953180" lon="2.254170">
						<ele>42</ele>
						<time>2024-05-30T12:18:35Z</time>
					</trkpt>
					<trkpt lat="48.953490" lon="2.254310">
						<ele>44</ele>
						<time>2024-05-30T12:18:40Z</time>
					</trkpt>
					<trkpt lat="48.953760" lon="2.254370">
						<ele>44</ele>
						<time>2024-05-30T12:18:45Z</time>
					</trkpt>
					<trkpt lat="48.958490" lon="2.257300">
						<ele>54</ele>
						<time>2024-05-30T12:20:16Z</time>
					</trkpt>
					<trkpt lat="48.958600" lon="2.257350">
						<ele>54</ele>
						<time>2024-05-30T12:20:18Z</time>
					</trkpt>
					<trkpt lat="48.959520" lon="2.257950">
						<ele>57</ele>
						<time>2024-05-30T12:20:36Z</time>
					</trkpt>
					<trkpt lat="48.959660" lon="2.258040">
						<ele>57</ele>
						<time>2024-05-30T12:20:39Z</time>
					</trkpt>
					<trkpt lat="48.959840" lon="2.258220">
						<ele>58</ele>
						<time>2024-05-30T12:20:42Z</time>
					</trkpt>
					<trkpt lat="48.960000" lon="2.258450">
						<ele>58</ele>
						<time>2024-05-30T12:20:46Z</time>
					</trkpt>
					<trkpt lat="48.960010" lon="2.258550">
						<ele>57</ele>
						<time>2024-05-30T12:20:47Z</time>
					</trkpt>
					<trkpt lat="48.960030" lon="2.258630">
						<ele>57</ele>
						<time>2024-05-30T12:20:48Z</time>
					</trkpt>
					<trkpt lat="48.960080" lon="2.258690">
						<ele>57</ele>
						<time>2024-05-30T12:20:50Z</time>
					</trkpt>
					<trkpt lat="48.960190" lon="2.258730">
						<ele>57</ele>
						<time>2024-05-30T12:20:52Z</time>
					</trkpt>
					<trkpt lat="48.960270" lon="2.258690">
						<ele>57</ele>
						<time>2024-05-30T12:20:53Z</time>
					</trkpt>
					<trkpt lat="48.960320" lon="2.258610">
						<ele>57</ele>
						<time>2024-05-30T12:20:54Z</time>
					</trkpt>
					<trkpt lat="48.960410" lon="2.258630">
						<ele>57</ele>
						<time>2024-05-30T12:20:56Z</time>
					</trkpt>
					<trkpt lat="48.960510" lon="2.258690">
						<ele>57</ele>
						<time>2024-05-30T12:20:58Z</time>
					</trkpt>
					<trkpt lat="48.960810" lon="2.258980">
						<ele>57</ele>
						<time>2024-05-30T12:21:04Z</time>
					</trkpt>
					<trkpt lat="48.961520" lon="2.259440">
						<ele>59</ele>
						<time>2024-05-30T12:21:18Z</time>
					</trkpt>
					<trkpt lat="48.962220" lon="2.259790">
						<ele>61</ele>
						<time>2024-05-30T12:21:31Z</time>
					</trkpt>
					<trkpt lat="48.963680" lon="2.260670">
						<ele>61</ele>
						<time>2024-05-30T12:21:59Z</time>
					</trkpt>
					<trkpt lat="48.963760" lon="2.260750">
						<ele>61</ele>
						<time>2024-05-30T12:22:01Z</time>
					</trkpt>
					<trkpt lat="48.964170" lon="2.261000">
						<ele>61</ele>
						<time>2024-05-30T12:22:09Z</time>
					</trkpt>
					<trkpt lat="48.964240" lon="2.261020">
						<ele>61</ele>
						<time>2024-05-30T12:22:10Z</time>
					</trkpt>
					<trkpt lat="48.965160" lon="2.261500">
						<ele>62</ele>
						<time>2024-05-30T12:22:27Z</time>
					</trkpt>
					<trkpt lat="48.965380" lon="2.261590">
						<ele>61</ele>
						<time>2024-05-30T12:22:31Z</time>
					</trkpt>
					<trkpt lat="48.965410" lon="2.261650">
						<ele>61</ele>
						<time>2024-05-30T12:22:32Z</time>
					</trkpt>
					<trkpt lat="48.965430" lon="2.261660">
						<ele>61</ele>
						<time>2024-05-30T12:22:32Z</time>
					</trkpt>
					<trkpt lat="48.965460" lon="2.261670">
						<ele>61</ele>
						<time>2024-05-30T12:22:33Z</time>
					</trkpt>
					<trkpt lat="48.965500" lon="2.261640">
						<ele>61</ele>
						<time>2024-05-30T12:22:34Z</time>
					</trkpt>
					<trkpt lat="48.965600" lon="2.261650">
						<ele>61</ele>
						<time>2024-05-30T12:22:36Z</time>
					</trkpt>
					<trkpt lat="48.966100" lon="2.261830">
						<ele>60</ele>
						<time>2024-05-30T12:22:45Z</time>
					</trkpt>
					<trkpt lat="48.966200" lon="2.261830">
						<ele>60</ele>
						<time>2024-05-30T12:22:47Z</time>
					</trkpt>
					<trkpt lat="48.966350" lon="2.261900">
						<ele>60</ele>
						<time>2024-05-30T12:22:49Z</time>
					</trkpt>
					<trkpt lat="48.966170" lon="2.262940">
						<ele>58</ele>
						<time>2024-05-30T12:23:02Z</time>
					</trkpt>
					<trkpt lat="48.966100" lon="2.263210">
						<ele>57</ele>
						<time>2024-05-30T12:23:05Z</time>
					</trkpt>
					<trkpt lat="48.966030" lon="2.263570">
						<ele>57</ele>
						<time>2024-05-30T12:23:10Z</time>
					</trkpt>
					<trkpt lat="48.966030" lon="2.264000">
						<ele>56</ele>
						<time>2024-05-30T12:23:15Z</time>
					</trkpt>
					<trkpt lat="48.966050" lon="2.264170">
						<ele>56</ele>
						<time>2024-05-30T12:23:17Z</time>
					</trkpt>
					<trkpt lat="48.966100" lon="2.264320">
						<ele>55</ele>
						<time>2024-05-30T12:23:19Z</time>
					</trkpt>
					<trkpt lat="48.966110" lon="2.264460">
						<ele>55</ele>
						<time>2024-05-30T12:23:20Z</time>
					</trkpt>
					<trkpt lat="48.966170" lon="2.264540">
						<ele>55</ele>
						<time>2024-05-30T12:23:22Z</time>
					</trkpt>
					<trkpt lat="48.966210" lon="2.264550">
						<ele>55</ele>
						<time>2024-05-30T12:23:22Z</time>
					</trkpt>
					<trkpt lat="48.966270" lon="2.264520">
						<ele>55</ele>
						<time>2024-05-30T12:23:24Z</time>
					</trkpt>
					<trkpt lat="48.966310" lon="2.264450">
						<ele>55</ele>
						<time>2024-05-30T12:23:25Z</time>
					</trkpt>
					<trkpt lat="48.966430" lon="2.264380">
						<ele>55</ele>
						<time>2024-05-30T12:23:27Z</time>
					</trkpt>
					<trkpt lat="48.966770" lon="2.264290">
						<ele>55</ele>
						<time>2024-05-30T12:23:33Z</time>
					</trkpt>
					<trkpt lat="48.966990" lon="2.264290">
						<ele>55</ele>
						<time>2024-05-30T12:23:37Z</time>
					</trkpt>
					<trkpt lat="48.967150" lon="2.264330">
						<ele>54</ele>
						<time>2024-05-30T12:23:40Z</time>
					</trkpt>
					<trkpt lat="48.967440" lon="2.264390">
						<ele>54</ele>
						<time>2024-05-30T12:23:45Z</time>
					</trkpt>
					<trkpt lat="48.967710" lon="2.264400">
						<ele>54</ele>
						<time>2024-05-30T12:23:50Z</time>
					</trkpt>
					<trkpt lat="48.967880" lon="2.264470">
						<ele>54</ele>
						<time>2024-05-30T12:23:53Z</time>
					</trkpt>
					<trkpt lat="48.968620" lon="2.264610">
						<ele>54</ele>
						<time>2024-05-30T12:24:06Z</time>
					</trkpt>
					<trkpt lat="48.968840" lon="2.264620">
						<ele>54</ele>
						<time>2024-05-30T12:24:10Z</time>
					</trkpt>
					<trkpt lat="48.969130" lon="2.264590">
						<ele>54</ele>
						<time>2024-05-30T12:24:15Z</time>
					</trkpt>
					<trkpt lat="48.969240" lon="2.264650">
						<ele>54</ele>
						<time>2024-05-30T12:24:17Z</time>
					</trkpt>
					<trkpt lat="48.969260" lon="2.264600">
						<ele>54</ele>
						<time>2024-05-30T12:24:18Z</time>
					</trkpt>
					<trkpt lat="48.969380" lon="2.264510">
						<ele>54</ele>
						<time>2024-05-30T12:24:21Z</time>
					</trkpt>
					<trkpt lat="48.970890" lon="2.264180">
						<ele>53</ele>
						<time>2024-05-30T12:24:48Z</time>
					</trkpt>
					<trkpt lat="48.971760" lon="2.264020">
						<ele>54</ele>
						<time>2024-05-30T12:25:03Z</time>
					</trkpt>
					<trkpt lat="48.971860" lon="2.264050">
						<ele>53</ele>
						<time>2024-05-30T12:25:05Z</time>
					</trkpt>
					<trkpt lat="48.973050" lon="2.264710">
						<ele>50</ele>
						<time>2024-05-30T12:25:28Z</time>
					</trkpt>
					<trkpt lat="48.975210" lon="2.265920">
						<ele>48</ele>
						<time>2024-05-30T12:26:09Z</time>
					</trkpt>
					<trkpt lat="48.975900" lon="2.266410">
						<ele>48</ele>
						<time>2024-05-30T12:26:22Z</time>
					</trkpt>
					<trkpt lat="48.976640" lon="2.266980">
						<ele>47</ele>
						<time>2024-05-30T12:26:37Z</time>
					</trkpt>
					<trkpt lat="48.976680" lon="2.267220">
						<ele>47</ele>
						<time>2024-05-30T12:26:40Z</time>
					</trkpt>
					<trkpt lat="48.976660" lon="2.267330">
						<ele>47</ele>
						<time>2024-05-30T12:26:41Z</time>
					</trkpt>
					<trkpt lat="48.976670" lon="2.267380">
						<ele>47</ele>
						<time>2024-05-30T12:26:42Z</time>
					</trkpt>
					<trkpt lat="48.976730" lon="2.267460">
						<ele>47</ele>
						<time>2024-05-30T12:26:43Z</time>
					</trkpt>
					<trkpt lat="48.976750" lon="2.267810">
						<ele>47</ele>
						<time>2024-05-30T12:26:47Z</time>
					</trkpt>
					<trkpt lat="48.976810" lon="2.268130">
						<ele>48</ele>
						<time>2024-05-30T12:26:51Z</time>
					</trkpt>
					<trkpt lat="48.976860" lon="2.268330">
						<ele>48</ele>
						<time>2024-05-30T12:26:54Z</time>
					</trkpt>
					<trkpt lat="48.976930" lon="2.268740">
						<ele>48</ele>
						<time>2024-05-30T12:26:59Z</time>
					</trkpt>
					<trkpt lat="48.976940" lon="2.268960">
						<ele>47</ele>
						<time>2024-05-30T12:27:01Z</time>
					</trkpt>
					<trkpt lat="48.977040" lon="2.269390">
						<ele>47</ele>
						<time>2024-05-30T12:27:06Z</time>
					</trkpt>
					<trkpt lat="48.977160" lon="2.270290">
						<ele>46</ele>
						<time>2024-05-30T12:27:17Z</time>
					</trkpt>
					<trkpt lat="48.977260" lon="2.270770">
						<ele>45</ele>
						<time>2024-05-30T12:27:23Z</time>
					</trkpt>
					<trkpt lat="48.977250" lon="2.270900">
						<ele>45</ele>
						<time>2024-05-30T12:27:25Z</time>
					</trkpt>
					<trkpt lat="48.977210" lon="2.271090">
						<ele>45</ele>
						<time>2024-05-30T12:27:27Z</time>
					</trkpt>
					<trkpt lat="48.977150" lon="2.271180">
						<ele>45</ele>
						<time>2024-05-30T12:27:28Z</time>
					</trkpt>
					<trkpt lat="48.977150" lon="2.271310">
						<ele>45</ele>
						<time>2024-05-30T12:27:30Z</time>
					</trkpt>
					<trkpt lat="48.977190" lon="2.271380">
						<ele>45</ele>
						<time>2024-05-30T12:27:31Z</time>
					</trkpt>
					<trkpt lat="48.977260" lon="2.271400">
						<ele>45</ele>
						<time>2024-05-30T12:27:32Z</time>
					</trkpt>
					<trkpt lat="48.977310" lon="2.271370">
						<ele>45</ele>
						<time>2024-05-30T12:27:33Z</time>
					</trkpt>
					<trkpt lat="48.977480" lon="2.271380">
						<ele>45</ele>
						<time>2024-05-30T12:27:36Z</time>
					</trkpt>
					<trkpt lat="48.977620" lon="2.271350">
						<ele>45</ele>
						<time>2024-05-30T12:27:39Z</time>
					</trkpt>
					<trkpt lat="48.978430" lon="2.270980">
						<ele>46</ele>
						<time>2024-05-30T12:27:54Z</time>
					</trkpt>
					<trkpt lat="48.978900" lon="2.270810">
						<ele>45</ele>
						<time>2024-05-30T12:28:02Z</time>
					</trkpt>
					<trkpt lat="48.979650" lon="2.270410">
						<ele>46</ele>
						<time>2024-05-30T12:28:17Z</time>
					</trkpt>
					<trkpt lat="48.979880" lon="2.270390">
						<ele>46</ele>
						<time>2024-05-30T12:28:21Z</time>
					</trkpt>
					<trkpt lat="48.979880" lon="2.270430">
						<ele>46</ele>
						<time>2024-05-30T12:28:21Z</time>
					</trkpt>
					<trkpt lat="48.979930" lon="2.270500">
						<ele>45</ele>
						<time>2024-05-30T12:28:22Z</time>
					</trkpt>
					<trkpt lat="48.980130" lon="2.270520">
						<ele>46</ele>
						<time>2024-05-30T12:28:26Z</time>
					</trkpt>
					<trkpt lat="48.980170" lon="2.270500">
						<ele>46</ele>
						<time>2024-05-30T12:28:27Z</time>
					</trkpt>
					<trkpt lat="48.980190" lon="2.270460">
						<ele>46</ele>
						<time>2024-05-30T12:28:27Z</time>
					</trkpt>
					<trkpt lat="48.980270" lon="2.270450">
						<ele>46</ele>
						<time>2024-05-30T12:28:29Z</time>
					</trkpt>
					<trkpt lat="48.980560" lon="2.270470">
						<ele>46</ele>
						<time>2024-05-30T12:28:34Z</time>
					</trkpt>
					<trkpt lat="48.980990" lon="2.270610">
						<ele>47</ele>
						<time>2024-05-30T12:28:42Z</time>
					</trkpt>
					<trkpt lat="48.981350" lon="2.270830">
						<ele>48</ele>
						<time>2024-05-30T12:28:49Z</time>
					</trkpt>
					<trkpt lat="48.981700" lon="2.271020">
						<ele>49</ele>
						<time>2024-05-30T12:28:55Z</time>
					</trkpt>
					<trkpt lat="48.982330" lon="2.271450">
						<ele>52</ele>
						<time>2024-05-30T12:29:07Z</time>
					</trkpt>
					<trkpt lat="48.982870" lon="2.271760">
						<ele>54</ele>
						<time>2024-05-30T12:29:18Z</time>
					</trkpt>
					<trkpt lat="48.984230" lon="2.272280">
						<ele>58</ele>
						<time>2024-05-30T12:29:43Z</time>
					</trkpt>
					<trkpt lat="48.984660" lon="2.272410">
						<ele>58</ele>
						<time>2024-05-30T12:29:50Z</time>
					</trkpt>
					<trkpt lat="48.990240" lon="2.274840">
						<ele>53</ele>
						<time>2024-05-30T12:31:34Z</time>
					</trkpt>
					<trkpt lat="48.990840" lon="2.275030">
						<ele>53</ele>
						<time>2024-05-30T12:31:45Z</time>
					</trkpt>
					<trkpt lat="48.991030" lon="2.275030">
						<ele>53</ele>
						<time>2024-05-30T12:31:48Z</time>
					</trkpt>
					<trkpt lat="48.991340" lon="2.274920">
						<ele>53</ele>
						<time>2024-05-30T12:31:54Z</time>
					</trkpt>
					<trkpt lat="48.991380" lon="2.275050">
						<ele>53</ele>
						<time>2024-05-30T12:31:55Z</time>
					</trkpt>
					<trkpt lat="48.991450" lon="2.275120">
						<ele>53</ele>
						<time>2024-05-30T12:31:57Z</time>
					</trkpt>
					<trkpt lat="48.991540" lon="2.275130">
						<ele>53</ele>
						<time>2024-05-30T12:31:58Z</time>
					</trkpt>
					<trkpt lat="48.991600" lon="2.275080">
						<ele>53</ele>
						<time>2024-05-30T12:32:00Z</time>
					</trkpt>
					<trkpt lat="48.991650" lon="2.274950">
						<ele>53</ele>
						<time>2024-05-30T12:32:01Z</time>
					</trkpt>
					<trkpt lat="48.991650" lon="2.274880">
						<ele>53</ele>
						<time>2024-05-30T12:32:02Z</time>
					</trkpt>
					<trkpt lat="48.991890" lon="2.274750">
						<ele>53</ele>
						<time>2024-05-30T12:32:07Z</time>
					</trkpt>
					<trkpt lat="48.993150" lon="2.274680">
						<ele>49</ele>
						<time>2024-05-30T12:32:29Z</time>
					</trkpt>
					<trkpt lat="48.993470" lon="2.274700">
						<ele>49</ele>
						<time>2024-05-30T12:32:35Z</time>
					</trkpt>
					<trkpt lat="48.993510" lon="2.274770">
						<ele>49</ele>
						<time>2024-05-30T12:32:36Z</time>
					</trkpt>
					<trkpt lat="48.993560" lon="2.274800">
						<ele>49</ele>
						<time>2024-05-30T12:32:37Z</time>
					</trkpt>
					<trkpt lat="48.993620" lon="2.274790">
						<ele>49</ele>
						<time>2024-05-30T12:32:38Z</time>
					</trkpt>
					<trkpt lat="48.993670" lon="2.274730">
						<ele>50</ele>
						<time>2024-05-30T12:32:39Z</time>
					</trkpt>
					<trkpt lat="48.993870" lon="2.274800">
						<ele>50</ele>
						<time>2024-05-30T12:32:43Z</time>
					</trkpt>
					<trkpt lat="48.994500" lon="2.275250">
						<ele>53</ele>
						<time>2024-05-30T12:32:55Z</time>
					</trkpt>
					<trkpt lat="48.994670" lon="2.275420">
						<ele>54</ele>
						<time>2024-05-30T12:32:59Z</time>
					</trkpt>
					<trkpt lat="48.994670" lon="2.275530">
						<ele>54</ele>
						<time>2024-05-30T12:33:00Z</time>
					</trkpt>
					<trkpt lat="48.994690" lon="2.275600">
						<ele>54</ele>
						<time>2024-05-30T12:33:01Z</time>
					</trkpt>
					<trkpt lat="48.994740" lon="2.275660">
						<ele>55</ele>
						<time>2024-05-30T12:33:02Z</time>
					</trkpt>
					<trkpt lat="48.994960" lon="2.275800">
						<ele>56</ele>
						<time>2024-05-30T12:33:06Z</time>
					</trkpt>
					<trkpt lat="48.995060" lon="2.275750">
						<ele>56</ele>
						<time>2024-05-30T12:33:08Z</time>
					</trkpt>
					<trkpt lat="48.995160" lon="2.275780">
						<ele>57</ele>
						<time>2024-05-30T12:33:10Z</time>
					</trkpt>
					<trkpt lat="48.995190" lon="2.275760">
						<ele>57</ele>
						<time>2024-05-30T12:33:11Z</time>
					</trkpt>
					<trkpt lat="48.995630" lon="2.276110">
						<ele>58</ele>
						<time>2024-05-30T12:33:19Z</time>
					</trkpt>
					<trkpt lat="48.996080" lon="2.276380">
						<ele>59</ele>
						<time>2024-05-30T12:33:28Z</time>
					</trkpt>
					<trkpt lat="48.997320" lon="2.276960">
						<ele>59</ele>
						<time>2024-05-30T12:33:51Z</time>
					</trkpt>
					<trkpt lat="48.997540" lon="2.277050">
						<ele>59</ele>
						<time>2024-05-30T12:33:55Z</time>
					</trkpt>
					<trkpt lat="48.998300" lon="2.277230">
						<ele>60</ele>
						<time>2024-05-30T12:34:09Z</time>
					</trkpt>
					<trkpt lat="48.999350" lon="2.277610">
						<ele>58</ele>
						<time>2024-05-30T12:34:28Z</time>
					</trkpt>
					<trkpt lat="48.999820" lon="2.277850">
						<ele>58</ele>
						<time>2024-05-30T12:34:37Z</time>
					</trkpt>
					<trkpt lat="49.000030" lon="2.278000">
						<ele>58</ele>
						<time>2024-05-30T12:34:41Z</time>
					</trkpt>
					<trkpt lat="49.000540" lon="2.278510">
						<ele>59</ele>
						<time>2024-05-30T12:34:52Z</time>
					</trkpt>
					<trkpt lat="49.001050" lon="2.279050">
						<ele>61</ele>
						<time>2024-05-30T12:35:03Z</time>
					</trkpt>
					<trkpt lat="49.002900" lon="2.280600">
						<ele>67</ele>
						<time>2024-05-30T12:35:40Z</time>
					</trkpt>
					<trkpt lat="49.003230" lon="2.280920">
						<ele>65</ele>
						<time>2024-05-30T12:35:47Z</time>
					</trkpt>
					<trkpt lat="49.003340" lon="2.281080">
						<ele>64</ele>
						<time>2024-05-30T12:35:50Z</time>
					</trkpt>
					<trkpt lat="49.003380" lon="2.281230">
						<ele>64</ele>
						<time>2024-05-30T12:35:52Z</time>
					</trkpt>
					<trkpt lat="49.003380" lon="2.281340">
						<ele>64</ele>
						<time>2024-05-30T12:35:53Z</time>
					</trkpt>
					<trkpt lat="49.003420" lon="2.281430">
						<ele>64</ele>
						<time>2024-05-30T12:35:55Z</time>
					</trkpt>
					<trkpt lat="49.003480" lon="2.281480">
						<ele>64</ele>
						<time>2024-05-30T12:35:56Z</time>
					</trkpt>
					<trkpt lat="49.003550" lon="2.281480">
						<ele>64</ele>
						<time>2024-05-30T12:35:57Z</time>
					</trkpt>
					<trkpt lat="49.003600" lon="2.281430">
						<ele>64</ele>
						<time>2024-05-30T12:35:58Z</time>
					</trkpt>
					<trkpt lat="49.003710" lon="2.281410">
						<ele>65</ele>
						<time>2024-05-30T12:36:00Z</time>
					</trkpt>
					<trkpt lat="49.003830" lon="2.281440">
						<ele>65</ele>
						<time>2024-05-30T12:36:02Z</time>
					</trkpt>
					<trkpt lat="49.004200" lon="2.281680">
						<ele>66</ele>
						<time>2024-05-30T12:36:09Z</time>
					</trkpt>
					<trkpt lat="49.004300" lon="2.281790">
						<ele>66</ele>
						<time>2024-05-30T12:36:12Z</time>
					</trkpt>
					<trkpt lat="49.005300" lon="2.282530">
						<ele>67</ele>
						<time>2024-05-30T12:36:31Z</time>
					</trkpt>
					<trkpt lat="49.005930" lon="2.282950">
						<ele>68</ele>
						<time>2024-05-30T12:36:44Z</time>
					</trkpt>
					<trkpt lat="49.006200" lon="2.283160">
						<ele>68</ele>
						<time>2024-05-30T12:36:49Z</time>
					</trkpt>
					<trkpt lat="49.006310" lon="2.283330">
						<ele>68</ele>
						<time>2024-05-30T12:36:52Z</time>
					</trkpt>
					<trkpt lat="49.006560" lon="2.284120">
						<ele>68</ele>
						<time>2024-05-30T12:37:02Z</time>
					</trkpt>
					<trkpt lat="49.006620" lon="2.284240">
						<ele>68</ele>
						<time>2024-05-30T12:37:04Z</time>
					</trkpt>
					<trkpt lat="49.006670" lon="2.284290">
						<ele>68</ele>
						<time>2024-05-30T12:37:05Z</time>
					</trkpt>
					<trkpt lat="49.007770" lon="2.284610">
						<ele>71</ele>
						<time>2024-05-30T12:37:25Z</time>
					</trkpt>
					<trkpt lat="49.008000" lon="2.284660">
						<ele>71</ele>
						<time>2024-05-30T12:37:29Z</time>
					</trkpt>
					<trkpt lat="49.008530" lon="2.284660">
						<ele>72</ele>
						<time>2024-05-30T12:37:38Z</time>
					</trkpt>
					<trkpt lat="49.008930" lon="2.284720">
						<ele>73</ele>
						<time>2024-05-30T12:37:46Z</time>
					</trkpt>
					<trkpt lat="49.009000" lon="2.284750">
						<ele>73</ele>
						<time>2024-05-30T12:37:47Z</time>
					</trkpt>
					<trkpt lat="49.010240" lon="2.285150">
						<ele>78</ele>
						<time>2024-05-30T12:38:09Z</time>
					</trkpt>
					<trkpt lat="49.010590" lon="2.285220">
						<ele>78</ele>
						<time>2024-05-30T12:38:16Z</time>
					</trkpt>
					<trkpt lat="49.010870" lon="2.285390">
						<ele>78</ele>
						<time>2024-05-30T12:38:21Z</time>
					</trkpt>
					<trkpt lat="49.011260" lon="2.285560">
						<ele>79</ele>
						<time>2024-05-30T12:38:28Z</time>
					</trkpt>
					<trkpt lat="49.011650" lon="2.285700">
						<ele>80</ele>
						<time>2024-05-30T12:38:35Z</time>
					</trkpt>
					<trkpt lat="49.012210" lon="2.285850">
						<ele>81</ele>
						<time>2024-05-30T12:38:45Z</time>
					</trkpt>
					<trkpt lat="49.012790" lon="2.286130">
						<ele>81</ele>
						<time>2024-05-30T12:38:56Z</time>
					</trkpt>
					<trkpt lat="49.013310" lon="2.286300">
						<ele>80</ele>
						<time>2024-05-30T12:39:06Z</time>
					</trkpt>
					<trkpt lat="49.013690" lon="2.286370">
						<ele>80</ele>
						<time>2024-05-30T12:39:13Z</time>
					</trkpt>
					<trkpt lat="49.013860" lon="2.286430">
						<ele>80</ele>
						<time>2024-05-30T12:39:16Z</time>
					</trkpt>
					<trkpt lat="49.014000" lon="2.286520">
						<ele>80</ele>
						<time>2024-05-30T12:39:18Z</time>
					</trkpt>
					<trkpt lat="49.014110" lon="2.286620">
						<ele>79</ele>
						<time>2024-05-30T12:39:21Z</time>
					</trkpt>
					<trkpt lat="49.014110" lon="2.286740">
						<ele>79</ele>
						<time>2024-05-30T12:39:22Z</time>
					</trkpt>
					<trkpt lat="49.014140" lon="2.286790">
						<ele>79</ele>
						<time>2024-05-30T12:39:23Z</time>
					</trkpt>
					<trkpt lat="49.014200" lon="2.286820">
						<ele>79</ele>
						<time>2024-05-30T12:39:24Z</time>
					</trkpt>
					<trkpt lat="49.014360" lon="2.286990">
						<ele>80</ele>
						<time>2024-05-30T12:39:27Z</time>
					</trkpt>
					<trkpt lat="49.015120" lon="2.287930">
						<ele>82</ele>
						<time>2024-05-30T12:39:45Z</time>
					</trkpt>
					<trkpt lat="49.015430" lon="2.288210">
						<ele>84</ele>
						<time>2024-05-30T12:39:51Z</time>
					</trkpt>
					<trkpt lat="49.016420" lon="2.288900">
						<ele>86</ele>
						<time>2024-05-30T12:40:11Z</time>
					</trkpt>
					<trkpt lat="49.016850" lon="2.289110">
						<ele>86</ele>
						<time>2024-05-30T12:40:19Z</time>
					</trkpt>
					<trkpt lat="49.017440" lon="2.289350">
						<ele>87</ele>
						<time>2024-05-30T12:40:30Z</time>
					</trkpt>
					<trkpt lat="49.017570" lon="2.289430">
						<ele>87</ele>
						<time>2024-05-30T12:40:32Z</time>
					</trkpt>
					<trkpt lat="49.017730" lon="2.289600">
						<ele>87</ele>
						<time>2024-05-30T12:40:35Z</time>
					</trkpt>
					<trkpt lat="49.018180" lon="2.290360">
						<ele>89</ele>
						<time>2024-05-30T12:40:47Z</time>
					</trkpt>
					<trkpt lat="49.018520" lon="2.290820">
						<ele>91</ele>
						<time>2024-05-30T12:40:56Z</time>
					</trkpt>
					<trkpt lat="49.018790" lon="2.291080">
						<ele>94</ele>
						<time>2024-05-30T12:41:01Z</time>
					</trkpt>
					<trkpt lat="49.019110" lon="2.291340">
						<ele>95</ele>
						<time>2024-05-30T12:41:08Z</time>
					</trkpt>
					<trkpt lat="49.019950" lon="2.291800">
						<ele>97</ele>
						<time>2024-05-30T12:41:24Z</time>
					</trkpt>
					<trkpt lat="49.020510" lon="2.291950">
						<ele>99</ele>
						<time>2024-05-30T12:41:34Z</time>
					</trkpt>
					<trkpt lat="49.020720" lon="2.292060">
						<ele>99</ele>
						<time>2024-05-30T12:41:38Z</time>
					</trkpt>
					<trkpt lat="49.020890" lon="2.292250">
						<ele>100</ele>
						<time>2024-05-30T12:41:41Z</time>
					</trkpt>
					<trkpt lat="49.021070" lon="2.292550">
						<ele>100</ele>
						<time>2024-05-30T12:41:46Z</time>
					</trkpt>
					<trkpt lat="49.021140" lon="2.292740">
						<ele>100</ele>
						<time>2024-05-30T12:41:49Z</time>
					</trkpt>
					<trkpt lat="49.021390" lon="2.293550">
						<ele>100</ele>
						<time>2024-05-30T12:41:59Z</time>
					</trkpt>
					<trkpt lat="49.021500" lon="2.293800">
						<ele>101</ele>
						<time>2024-05-30T12:42:03Z</time>
					</trkpt>
					<trkpt lat="49.021640" lon="2.294000">
						<ele>101</ele>
						<time>2024-05-30T12:42:06Z</time>
					</trkpt>
					<trkpt lat="49.022020" lon="2.294420">
						<ele>102</ele>
						<time>2024-05-30T12:42:14Z</time>
					</trkpt>
					<trkpt lat="49.022620" lon="2.295060">
						<ele>103</ele>
						<time>2024-05-30T12:42:27Z</time>
					</trkpt>
					<trkpt lat="49.024360" lon="2.296550">
						<ele>101</ele>
						<time>2024-05-30T12:43:03Z</time>
					</trkpt>
					<trkpt lat="49.024580" lon="2.296790">
						<ele>102</ele>
						<time>2024-05-30T12:43:08Z</time>
					</trkpt>
					<trkpt lat="49.024850" lon="2.297170">
						<ele>103</ele>
						<time>2024-05-30T12:43:14Z</time>
					</trkpt>
					<trkpt lat="49.025030" lon="2.297510">
						<ele>103</ele>
						<time>2024-05-30T12:43:19Z</time>
					</trkpt>
					<trkpt lat="49.025260" lon="2.298190">
						<ele>106</ele>
						<time>2024-05-30T12:43:28Z</time>
					</trkpt>
					<trkpt lat="49.025390" lon="2.298800">
						<ele>107</ele>
						<time>2024-05-30T12:43:36Z</time>
					</trkpt>
					<trkpt lat="49.025410" lon="2.299180">
						<ele>107</ele>
						<time>2024-05-30T12:43:40Z</time>
					</trkpt>
					<trkpt lat="49.025400" lon="2.299710">
						<ele>108</ele>
						<time>2024-05-30T12:43:46Z</time>
					</trkpt>
					<trkpt lat="49.025130" lon="2.303380">
						<ele>122</ele>
						<time>2024-05-30T12:44:29Z</time>
					</trkpt>
					<trkpt lat="49.025150" lon="2.303710">
						<ele>123</ele>
						<time>2024-05-30T12:44:33Z</time>
					</trkpt>
					<trkpt lat="49.025860" lon="2.310030">
						<ele>143</ele>
						<time>2024-05-30T12:45:48Z</time>
					</trkpt>
					<trkpt lat="49.025910" lon="2.310630">
						<ele>144</ele>
						<time>2024-05-30T12:45:55Z</time>
					</trkpt>
					<trkpt lat="49.025960" lon="2.310900">
						<ele>145</ele>
						<time>2024-05-30T12:45:58Z</time>
					</trkpt>
					<trkpt lat="49.026010" lon="2.311060">
						<ele>146</ele>
						<time>2024-05-30T12:46:01Z</time>
					</trkpt>
					<trkpt lat="49.026180" lon="2.311460">
						<ele>148</ele>
						<time>2024-05-30T12:46:06Z</time>
					</trkpt>
					<trkpt lat="49.026310" lon="2.311620">
						<ele>149</ele>
						<time>2024-05-30T12:46:09Z</time>
					</trkpt>
					<trkpt lat="49.026440" lon="2.311750">
						<ele>150</ele>
						<time>2024-05-30T12:46:12Z</time>
					</trkpt>
					<trkpt lat="49.026610" lon="2.311860">
						<ele>151</ele>
						<time>2024-05-30T12:46:15Z</time>
					</trkpt>
					<trkpt lat="49.026860" lon="2.311950">
						<ele>152</ele>
						<time>2024-05-30T12:46:20Z</time>
					</trkpt>
					<trkpt lat="49.027140" lon="2.311990">
						<ele>153</ele>
						<time>2024-05-30T12:46:25Z</time>
					</trkpt>
					<trkpt lat="49.027380" lon="2.311980">
						<ele>153</ele>
						<time>2024-05-30T12:46:29Z</time>
					</trkpt>
					<trkpt lat="49.027520" lon="2.311940">
						<ele>154</ele>
						<time>2024-05-30T12:46:32Z</time>
					</trkpt>
					<trkpt lat="49.027730" lon="2.311820">
						<ele>154</ele>
						<time>2024-05-30T12:46:36Z</time>
					</trkpt>
					<trkpt lat="49.027870" lon="2.311710">
						<ele>154</ele>
						<time>2024-05-30T12:46:38Z</time>
					</trkpt>
					<trkpt lat="49.028100" lon="2.311420">
						<ele>156</ele>
						<time>2024-05-30T12:46:44Z</time>
					</trkpt>
					<trkpt lat="49.028200" lon="2.311230">
						<ele>156</ele>
						<time>2024-05-30T12:46:46Z</time>
					</trkpt>
					<trkpt lat="49.028480" lon="2.310550">
						<ele>157</ele>
						<time>2024-05-30T12:46:56Z</time>
					</trkpt>
					<trkpt lat="49.028640" lon="2.310300">
						<ele>158</ele>
						<time>2024-05-30T12:47:00Z</time>
					</trkpt>
					<trkpt lat="49.028820" lon="2.310130">
						<ele>158</ele>
						<time>2024-05-30T12:47:04Z</time>
					</trkpt>
					<trkpt lat="49.029170" lon="2.309830">
						<ele>158</ele>
						<time>2024-05-30T12:47:11Z</time>
					</trkpt>
					<trkpt lat="49.029580" lon="2.309300">
						<ele>159</ele>
						<time>2024-05-30T12:47:20Z</time>
					</trkpt>
					<trkpt lat="49.030530" lon="2.308270">
						<ele>156</ele>
						<time>2024-05-30T12:47:41Z</time>
					</trkpt>
					<trkpt lat="49.030680" lon="2.308190">
						<ele>156</ele>
						<time>2024-05-30T12:47:44Z</time>
					</trkpt>
					<trkpt lat="49.030870" lon="2.308160">
						<ele>155</ele>
						<time>2024-05-30T12:47:47Z</time>
					</trkpt>
					<trkpt lat="49.031070" lon="2.308170">
						<ele>155</ele>
						<time>2024-05-30T12:47:51Z</time>
					</trkpt>
					<trkpt lat="49.031200" lon="2.308220">
						<ele>154</ele>
						<time>2024-05-30T12:47:53Z</time>
					</trkpt>
					<trkpt lat="49.031360" lon="2.308330">
						<ele>153</ele>
						<time>2024-05-30T12:47:56Z</time>
					</trkpt>
					<trkpt lat="49.031520" lon="2.308470">
						<ele>153</ele>
						<time>2024-05-30T12:48:00Z</time>
					</trkpt>
					<trkpt lat="49.032450" lon="2.309900">
						<ele>146</ele>
						<time>2024-05-30T12:48:23Z</time>
					</trkpt>
					<trkpt lat="49.032710" lon="2.310200">
						<ele>143</ele>
						<time>2024-05-30T12:48:29Z</time>
					</trkpt>
					<trkpt lat="49.033090" lon="2.310580">
						<ele>138</ele>
						<time>2024-05-30T12:48:37Z</time>
					</trkpt>
					<trkpt lat="49.033220" lon="2.310670">
						<ele>136</ele>
						<time>2024-05-30T12:48:40Z</time>
					</trkpt>
					<trkpt lat="49.033670" lon="2.310930">
						<ele>131</ele>
						<time>2024-05-30T12:48:48Z</time>
					</trkpt>
					<trkpt lat="49.036890" lon="2.311960">
						<ele>116</ele>
						<time>2024-05-30T12:49:47Z</time>
					</trkpt>
					<trkpt lat="49.037150" lon="2.312060">
						<ele>115</ele>
						<time>2024-05-30T12:49:51Z</time>
					</trkpt>
					<trkpt lat="49.037420" lon="2.312230">
						<ele>114</ele>
						<time>2024-05-30T12:49:57Z</time>
					</trkpt>
					<trkpt lat="49.038510" lon="2.313920">
						<ele>110</ele>
						<time>2024-05-30T12:50:24Z</time>
					</trkpt>
					<trkpt lat="49.038530" lon="2.314000">
						<ele>110</ele>
						<time>2024-05-30T12:50:25Z</time>
					</trkpt>
					<trkpt lat="49.040490" lon="2.317130">
						<ele>109</ele>
						<time>2024-05-30T12:51:16Z</time>
					</trkpt>
					<trkpt lat="49.040580" lon="2.317290">
						<ele>109</ele>
						<time>2024-05-30T12:51:18Z</time>
					</trkpt>
					<trkpt lat="49.040680" lon="2.317550">
						<ele>108</ele>
						<time>2024-05-30T12:51:22Z</time>
					</trkpt>
					<trkpt lat="49.041070" lon="2.318760">
						<ele>106</ele>
						<time>2024-05-30T12:51:38Z</time>
					</trkpt>
					<trkpt lat="49.041210" lon="2.319080">
						<ele>105</ele>
						<time>2024-05-30T12:51:42Z</time>
					</trkpt>
					<trkpt lat="49.041340" lon="2.319310">
						<ele>105</ele>
						<time>2024-05-30T12:51:46Z</time>
					</trkpt>
					<trkpt lat="49.041530" lon="2.319580">
						<ele>104</ele>
						<time>2024-05-30T12:51:50Z</time>
					</trkpt>
					<trkpt lat="49.041880" lon="2.320000">
						<ele>103</ele>
						<time>2024-05-30T12:51:58Z</time>
					</trkpt>
					<trkpt lat="49.042030" lon="2.320080">
						<ele>103</ele>
						<time>2024-05-30T12:52:01Z</time>
					</trkpt>
					<trkpt lat="49.042200" lon="2.320300">
						<ele>102</ele>
						<time>2024-05-30T12:52:05Z</time>
					</trkpt>
					<trkpt lat="49.042890" lon="2.321230">
						<ele>101</ele>
						<time>2024-05-30T12:52:21Z</time>
					</trkpt>
					<trkpt lat="49.043030" lon="2.321460">
						<ele>101</ele>
						<time>2024-05-30T12:52:25Z</time>
					</trkpt>
					<trkpt lat="49.043450" lon="2.322480">
						<ele>99</ele>
						<time>2024-05-30T12:52:39Z</time>
					</trkpt>
					<trkpt lat="49.043820" lon="2.323670">
						<ele>99</ele>
						<time>2024-05-30T12:52:54Z</time>
					</trkpt>
					<trkpt lat="49.044000" lon="2.324040">
						<ele>98</ele>
						<time>2024-05-30T12:53:00Z</time>
					</trkpt>
					<trkpt lat="49.044180" lon="2.324460">
						<ele>97</ele>
						<time>2024-05-30T12:53:06Z</time>
					</trkpt>
					<trkpt lat="49.044400" lon="2.325020">
						<ele>97</ele>
						<time>2024-05-30T12:53:13Z</time>
					</trkpt>
					<trkpt lat="49.045220" lon="2.327620">
						<ele>94</ele>
						<time>2024-05-30T12:53:47Z</time>
					</trkpt>
					<trkpt lat="49.045670" lon="2.328780">
						<ele>93</ele>
						<time>2024-05-30T12:54:03Z</time>
					</trkpt>
					<trkpt lat="49.045760" lon="2.329050">
						<ele>92</ele>
						<time>2024-05-30T12:54:06Z</time>
					</trkpt>
					<trkpt lat="49.045870" lon="2.329300">
						<ele>91</ele>
						<time>2024-05-30T12:54:10Z</time>
					</trkpt>
					<trkpt lat="49.045990" lon="2.329470">
						<ele>92</ele>
						<time>2024-05-30T12:54:13Z</time>
					</trkpt>
					<trkpt lat="49.046350" lon="2.330320">
						<ele>92</ele>
						<time>2024-05-30T12:54:24Z</time>
					</trkpt>
					<trkpt lat="49.046460" lon="2.330570">
						<ele>92</ele>
						<time>2024-05-30T12:54:28Z</time>
					</trkpt>
					<trkpt lat="49.047150" lon="2.331570">
						<ele>90</ele>
						<time>2024-05-30T12:54:45Z</time>
					</trkpt>
					<trkpt lat="49.047220" lon="2.331710">
						<ele>90</ele>
						<time>2024-05-30T12:54:47Z</time>
					</trkpt>
					<trkpt lat="49.047240" lon="2.331810">
						<ele>90</ele>
						<time>2024-05-30T12:54:48Z</time>
					</trkpt>
					<trkpt lat="49.047240" lon="2.331920">
						<ele>90</ele>
						<time>2024-05-30T12:54:49Z</time>
					</trkpt>
					<trkpt lat="49.047390" lon="2.332040">
						<ele>89</ele>
						<time>2024-05-30T12:54:52Z</time>
					</trkpt>
					<trkpt lat="49.047440" lon="2.332040">
						<ele>89</ele>
						<time>2024-05-30T12:54:53Z</time>
					</trkpt>
					<trkpt lat="49.047610" lon="2.332130">
						<ele>88</ele>
						<time>2024-05-30T12:54:56Z</time>
					</trkpt>
					<trkpt lat="49.047760" lon="2.332270">
						<ele>88</ele>
						<time>2024-05-30T12:55:00Z</time>
					</trkpt>
					<trkpt lat="49.048310" lon="2.333110">
						<ele>85</ele>
						<time>2024-05-30T12:55:13Z</time>
					</trkpt>
					<trkpt lat="49.048430" lon="2.333240">
						<ele>85</ele>
						<time>2024-05-30T12:55:16Z</time>
					</trkpt>
					<trkpt lat="49.048460" lon="2.333350">
						<ele>85</ele>
						<time>2024-05-30T12:55:17Z</time>
					</trkpt>
					<trkpt lat="49.048530" lon="2.333400">
						<ele>85</ele>
						<time>2024-05-30T12:55:19Z</time>
					</trkpt>
					<trkpt lat="49.048840" lon="2.333780">
						<ele>86</ele>
						<time>2024-05-30T12:55:26Z</time>
					</trkpt>
					<trkpt lat="49.049260" lon="2.334240">
						<ele>86</ele>
						<time>2024-05-30T12:55:35Z</time>
					</trkpt>
					<trkpt lat="49.048370" lon="2.335470">
						<ele>85</ele>
						<time>2024-05-30T12:55:56Z</time>
					</trkpt>
					<trkpt lat="49.048260" lon="2.335670">
						<ele>85</ele>
						<time>2024-05-30T12:55:59Z</time>
					</trkpt>
					<trkpt lat="49.048110" lon="2.336220">
						<ele>86</ele>
						<time>2024-05-30T12:56:06Z</time>
					</trkpt>
					<trkpt lat="49.048090" lon="2.336350">
						<ele>86</ele>
						<time>2024-05-30T12:56:08Z</time>
					</trkpt>
					<trkpt lat="49.048110" lon="2.336460">
						<ele>86</ele>
						<time>2024-05-30T12:56:09Z</time>
					</trkpt>
					<trkpt lat="49.049730" lon="2.335660">
						<ele>92</ele>
						<time>2024-05-30T12:56:40Z</time>
					</trkpt>
					<trkpt lat="49.050210" lon="2.335510">
						<ele>94</ele>
						<time>2024-05-30T12:56:48Z</time>
					</trkpt>
					<trkpt lat="49.050270" lon="2.335650">
						<ele>95</ele>
						<time>2024-05-30T12:56:50Z</time>
					</trkpt>
					<trkpt lat="49.050410" lon="2.336370">
						<ele>96</ele>
						<time>2024-05-30T12:56:59Z</time>
					</trkpt>
					<trkpt lat="49.050530" lon="2.336860">
						<ele>97</ele>
						<time>2024-05-30T12:57:05Z</time>
					</trkpt>
					<trkpt lat="49.051030" lon="2.337860">
						<ele>98</ele>
						<time>2024-05-30T12:57:20Z</time>
					</trkpt>
					<trkpt lat="49.051590" lon="2.338860">
						<ele>99</ele>
						<time>2024-05-30T12:57:35Z</time>
					</trkpt>
					<trkpt lat="49.051680" lon="2.338990">
						<ele>99</ele>
						<time>2024-05-30T12:57:37Z</time>
					</trkpt>
					<trkpt lat="49.054930" lon="2.342160">
						<ele>97</ele>
						<time>2024-05-30T12:58:46Z</time>
					</trkpt>
					<trkpt lat="49.055300" lon="2.342450">
						<ele>98</ele>
						<time>2024-05-30T12:58:53Z</time>
					</trkpt>
					<trkpt lat="49.055450" lon="2.342560">
						<ele>98</ele>
						<time>2024-05-30T12:58:56Z</time>
					</trkpt>
					<trkpt lat="49.056280" lon="2.343070">
						<ele>97</ele>
						<time>2024-05-30T12:59:12Z</time>
					</trkpt>
					<trkpt lat="49.056340" lon="2.343160">
						<ele>97</ele>
						<time>2024-05-30T12:59:14Z</time>
					</trkpt>
					<trkpt lat="49.056410" lon="2.343300">
						<ele>97</ele>
						<time>2024-05-30T12:59:16Z</time>
					</trkpt>
					<trkpt lat="49.056790" lon="2.344850">
						<ele>96</ele>
						<time>2024-05-30T12:59:35Z</time>
					</trkpt>
					<trkpt lat="49.056880" lon="2.345010">
						<ele>97</ele>
						<time>2024-05-30T12:59:38Z</time>
					</trkpt>
					<trkpt lat="49.056980" lon="2.345080">
						<ele>96</ele>
						<time>2024-05-30T12:59:40Z</time>
					</trkpt>
					<trkpt lat="49.057320" lon="2.345610">
						<ele>97</ele>
						<time>2024-05-30T12:59:48Z</time>
					</trkpt>
					<trkpt lat="49.057450" lon="2.345900">
						<ele>98</ele>
						<time>2024-05-30T12:59:52Z</time>
					</trkpt>
					<trkpt lat="49.057500" lon="2.346150">
						<ele>100</ele>
						<time>2024-05-30T12:59:55Z</time>
					</trkpt>
					<trkpt lat="49.057550" lon="2.346270">
						<ele>100</ele>
						<time>2024-05-30T12:59:57Z</time>
					</trkpt>
					<trkpt lat="49.057710" lon="2.346530">
						<ele>102</ele>
						<time>2024-05-30T13:00:01Z</time>
					</trkpt>
					<trkpt lat="49.058020" lon="2.346940">
						<ele>104</ele>
						<time>2024-05-30T13:00:08Z</time>
					</trkpt>
					<trkpt lat="49.058180" lon="2.347670">
						<ele>108</ele>
						<time>2024-05-30T13:00:17Z</time>
					</trkpt>
					<trkpt lat="49.058240" lon="2.348100">
						<ele>108</ele>
						<time>2024-05-30T13:00:23Z</time>
					</trkpt>
					<trkpt lat="49.058280" lon="2.349300">
						<ele>108</ele>
						<time>2024-05-30T13:00:37Z</time>
					</trkpt>
					<trkpt lat="49.058380" lon="2.350250">
						<ele>108</ele>
						<time>2024-05-30T13:00:48Z</time>
					</trkpt>
					<trkpt lat="49.058810" lon="2.351820">
						<ele>107</ele>
						<time>2024-05-30T13:01:08Z</time>
					</trkpt>
					<trkpt lat="49.059110" lon="2.352740">
						<ele>108</ele>
						<time>2024-05-30T13:01:20Z</time>
					</trkpt>
					<trkpt lat="49.059040" lon="2.352920">
						<ele>108</ele>
						<time>2024-05-30T13:01:22Z</time>
					</trkpt>
					<trkpt lat="49.059010" lon="2.353080">
						<ele>108</ele>
						<time>2024-05-30T13:01:24Z</time>
					</trkpt>
					<trkpt lat="49.059120" lon="2.355800">
						<ele>111</ele>
						<time>2024-05-30T13:01:56Z</time>
					</trkpt>
					<trkpt lat="49.059160" lon="2.357150">
						<ele>113</ele>
						<time>2024-05-30T13:02:11Z</time>
					</trkpt>
					<trkpt lat="49.059120" lon="2.358700">
						<ele>113</ele>
						<time>2024-05-30T13:02:30Z</time>
					</trkpt>
					<trkpt lat="49.059180" lon="2.360720">
						<ele>113</ele>
						<time>2024-05-30T13:02:53Z</time>
					</trkpt>
					<trkpt lat="49.059190" lon="2.362320">
						<ele>111</ele>
						<time>2024-05-30T13:03:12Z</time>
					</trkpt>
					<trkpt lat="49.059660" lon="2.365370">
						<ele>108</ele>
						<time>2024-05-30T13:03:48Z</time>
					</trkpt>
					<trkpt lat="49.059810" lon="2.366300">
						<ele>109</ele>
						<time>2024-05-30T13:03:59Z</time>
					</trkpt>
					<trkpt lat="49.060180" lon="2.368220">
						<ele>108</ele>
						<time>2024-05-30T13:04:23Z</time>
					</trkpt>
					<trkpt lat="49.060310" lon="2.368900">
						<ele>108</ele>
						<time>2024-05-30T13:04:31Z</time>
					</trkpt>
					<trkpt lat="49.060350" lon="2.369710">
						<ele>109</ele>
						<time>2024-05-30T13:04:41Z</time>
					</trkpt>
					<trkpt lat="49.060310" lon="2.370640">
						<ele>113</ele>
						<time>2024-05-30T13:04:51Z</time>
					</trkpt>
					<trkpt lat="49.060340" lon="2.373910">
						<ele>117</ele>
						<time>2024-05-30T13:05:30Z</time>
					</trkpt>
					<trkpt lat="49.060370" lon="2.374910">
						<ele>117</ele>
						<time>2024-05-30T13:05:41Z</time>
					</trkpt>
					<trkpt lat="49.060810" lon="2.377280">
						<ele>117</ele>
						<time>2024-05-30T13:06:10Z</time>
					</trkpt>
					<trkpt lat="49.061090" lon="2.378640">
						<ele>118</ele>
						<time>2024-05-30T13:06:27Z</time>
					</trkpt>
					<trkpt lat="49.061110" lon="2.379340">
						<ele>118</ele>
						<time>2024-05-30T13:06:35Z</time>
					</trkpt>
					<trkpt lat="49.061040" lon="2.380970">
						<ele>118</ele>
						<time>2024-05-30T13:06:54Z</time>
					</trkpt>
					<trkpt lat="49.060800" lon="2.382570">
						<ele>118</ele>
						<time>2024-05-30T13:07:13Z</time>
					</trkpt>
					<trkpt lat="49.060670" lon="2.383670">
						<ele>117</ele>
						<time>2024-05-30T13:07:26Z</time>
					</trkpt>
					<trkpt lat="49.063260" lon="2.384750">
						<ele>122</ele>
						<time>2024-05-30T13:08:14Z</time>
					</trkpt>
					<trkpt lat="49.063850" lon="2.385000">
						<ele>121</ele>
						<time>2024-05-30T13:08:25Z</time>
					</trkpt>
					<trkpt lat="49.065730" lon="2.385550">
						<ele>119</ele>
						<time>2024-05-30T13:08:59Z</time>
					</trkpt>
					<trkpt lat="49.066820" lon="2.385930">
						<ele>121</ele>
						<time>2024-05-30T13:09:19Z</time>
					</trkpt>
					<trkpt lat="49.067250" lon="2.386250">
						<ele>121</ele>
						<time>2024-05-30T13:09:27Z</time>
					</trkpt>
					<trkpt lat="49.067670" lon="2.386410">
						<ele>122</ele>
						<time>2024-05-30T13:09:35Z</time>
					</trkpt>
					<trkpt lat="49.068820" lon="2.386340">
						<ele>126</ele>
						<time>2024-05-30T13:09:55Z</time>
					</trkpt>
					<trkpt lat="49.069060" lon="2.386380">
						<ele>126</ele>
						<time>2024-05-30T13:10:00Z</time>
					</trkpt>
					<trkpt lat="49.069490" lon="2.386590">
						<ele>127</ele>
						<time>2024-05-30T13:10:08Z</time>
					</trkpt>
					<trkpt lat="49.069590" lon="2.386660">
						<ele>127</ele>
						<time>2024-05-30T13:10:10Z</time>
					</trkpt>
					<trkpt lat="49.069680" lon="2.386830">
						<ele>127</ele>
						<time>2024-05-30T13:10:12Z</time>
					</trkpt>
					<trkpt lat="49.070010" lon="2.387740">
						<ele>127</ele>
						<time>2024-05-30T13:10:24Z</time>
					</trkpt>
					<trkpt lat="49.070160" lon="2.388100">
						<ele>127</ele>
						<time>2024-05-30T13:10:29Z</time>
					</trkpt>
					<trkpt lat="49.070280" lon="2.388230">
						<ele>127</ele>
						<time>2024-05-30T13:10:32Z</time>
					</trkpt>
					<trkpt lat="49.070460" lon="2.388200">
						<ele>128</ele>
						<time>2024-05-30T13:10:35Z</time>
					</trkpt>
					<trkpt lat="49.070510" lon="2.388590">
						<ele>128</ele>
						<time>2024-05-30T13:10:40Z</time>
					</trkpt>
					<trkpt lat="49.070550" lon="2.388810">
						<ele>128</ele>
						<time>2024-05-30T13:10:42Z</time>
					</trkpt>
					<trkpt lat="49.070620" lon="2.389040">
						<ele>129</ele>
						<time>2024-05-30T13:10:45Z</time>
					</trkpt>
					<trkpt lat="49.071270" lon="2.390810">
						<ele>128</ele>
						<time>2024-05-30T13:11:09Z</time>
					</trkpt>
					<trkpt lat="49.071530" lon="2.391730">
						<ele>129</ele>
						<time>2024-05-30T13:11:21Z</time>
					</trkpt>
					<trkpt lat="49.071640" lon="2.392260">
						<ele>129</ele>
						<time>2024-05-30T13:11:27Z</time>
					</trkpt>
					<trkpt lat="49.071750" lon="2.392950">
						<ele>130</ele>
						<time>2024-05-30T13:11:35Z</time>
					</trkpt>
					<trkpt lat="49.071780" lon="2.393210">
						<ele>130</ele>
						<time>2024-05-30T13:11:38Z</time>
					</trkpt>
					<trkpt lat="49.071840" lon="2.394040">
						<ele>128</ele>
						<time>2024-05-30T13:11:48Z</time>
					</trkpt>
					<trkpt lat="49.071840" lon="2.394800">
						<ele>127</ele>
						<time>2024-05-30T13:11:57Z</time>
					</trkpt>
					<trkpt lat="49.071810" lon="2.395380">
						<ele>127</ele>
						<time>2024-05-30T13:12:04Z</time>
					</trkpt>
					<trkpt lat="49.071750" lon="2.396100">
						<ele>127</ele>
						<time>2024-05-30T13:12:12Z</time>
					</trkpt>
					<trkpt lat="49.070920" lon="2.402880">
						<ele>129</ele>
						<time>2024-05-30T13:13:33Z</time>
					</trkpt>
					<trkpt lat="49.070890" lon="2.403340">
						<ele>128</ele>
						<time>2024-05-30T13:13:38Z</time>
					</trkpt>
					<trkpt lat="49.070890" lon="2.403620">
						<ele>128</ele>
						<time>2024-05-30T13:13:41Z</time>
					</trkpt>
					<trkpt lat="49.070930" lon="2.404170">
						<ele>129</ele>
						<time>2024-05-30T13:13:48Z</time>
					</trkpt>
					<trkpt lat="49.071090" lon="2.405650">
						<ele>128</ele>
						<time>2024-05-30T13:14:05Z</time>
					</trkpt>
					<trkpt lat="49.071100" lon="2.406050">
						<ele>128</ele>
						<time>2024-05-30T13:14:10Z</time>
					</trkpt>
					<trkpt lat="49.071080" lon="2.406460">
						<ele>127</ele>
						<time>2024-05-30T13:14:15Z</time>
					</trkpt>
					<trkpt lat="49.071020" lon="2.406890">
						<ele>127</ele>
						<time>2024-05-30T13:14:20Z</time>
					</trkpt>
					<trkpt lat="49.070930" lon="2.407260">
						<ele>127</ele>
						<time>2024-05-30T13:14:24Z</time>
					</trkpt>
					<trkpt lat="49.070300" lon="2.409100">
						<ele>126</ele>
						<time>2024-05-30T13:14:49Z</time>
					</trkpt>
					<trkpt lat="49.070210" lon="2.409390">
						<ele>126</ele>
						<time>2024-05-30T13:14:52Z</time>
					</trkpt>
					<trkpt lat="49.070140" lon="2.409750">
						<ele>126</ele>
						<time>2024-05-30T13:14:57Z</time>
					</trkpt>
					<trkpt lat="49.070070" lon="2.410250">
						<ele>126</ele>
						<time>2024-05-30T13:15:03Z</time>
					</trkpt>
					<trkpt lat="49.069790" lon="2.412840">
						<ele>130</ele>
						<time>2024-05-30T13:15:33Z</time>
					</trkpt>
					<trkpt lat="49.069670" lon="2.413850">
						<ele>130</ele>
						<time>2024-05-30T13:15:45Z</time>
					</trkpt>
					<trkpt lat="49.069430" lon="2.415550">
						<ele>132</ele>
						<time>2024-05-30T13:16:06Z</time>
					</trkpt>
					<trkpt lat="49.069350" lon="2.415930">
						<ele>132</ele>
						<time>2024-05-30T13:16:10Z</time>
					</trkpt>
					<trkpt lat="49.069240" lon="2.416300">
						<ele>132</ele>
						<time>2024-05-30T13:16:15Z</time>
					</trkpt>
					<trkpt lat="49.069140" lon="2.416560">
						<ele>131</ele>
						<time>2024-05-30T13:16:18Z</time>
					</trkpt>
					<trkpt lat="49.068920" lon="2.417060">
						<ele>131</ele>
						<time>2024-05-30T13:16:25Z</time>
					</trkpt>
					<trkpt lat="49.068550" lon="2.417770">
						<ele>132</ele>
						<time>2024-05-30T13:16:36Z</time>
					</trkpt>
					<trkpt lat="49.068160" lon="2.418430">
						<ele>133</ele>
						<time>2024-05-30T13:16:46Z</time>
					</trkpt>
					<trkpt lat="49.067990" lon="2.418800">
						<ele>134</ele>
						<time>2024-05-30T13:16:52Z</time>
					</trkpt>
					<trkpt lat="49.067860" lon="2.419130">
						<ele>135</ele>
						<time>2024-05-30T13:16:56Z</time>
					</trkpt>
					<trkpt lat="49.067720" lon="2.419590">
						<ele>136</ele>
						<time>2024-05-30T13:17:02Z</time>
					</trkpt>
					<trkpt lat="49.067620" lon="2.420050">
						<ele>138</ele>
						<time>2024-05-30T13:17:08Z</time>
					</trkpt>
					<trkpt lat="49.066950" lon="2.424280">
						<ele>138</ele>
						<time>2024-05-30T13:17:58Z</time>
					</trkpt>
					<trkpt lat="49.066920" lon="2.424600">
						<ele>138</ele>
						<time>2024-05-30T13:18:02Z</time>
					</trkpt>
					<trkpt lat="49.066920" lon="2.425400">
						<ele>139</ele>
						<time>2024-05-30T13:18:12Z</time>
					</trkpt>
					<trkpt lat="49.066880" lon="2.425880">
						<ele>139</ele>
						<time>2024-05-30T13:18:17Z</time>
					</trkpt>
					<trkpt lat="49.066310" lon="2.428880">
						<ele>136</ele>
						<time>2024-05-30T13:18:54Z</time>
					</trkpt>
					<trkpt lat="49.066080" lon="2.429900">
						<ele>133</ele>
						<time>2024-05-30T13:19:06Z</time>
					</trkpt>
					<trkpt lat="49.066040" lon="2.430200">
						<ele>132</ele>
						<time>2024-05-30T13:19:10Z</time>
					</trkpt>
					<trkpt lat="49.065760" lon="2.431090">
						<ele>131</ele>
						<time>2024-05-30T13:19:21Z</time>
					</trkpt>
					<trkpt lat="49.065770" lon="2.431140">
						<ele>131</ele>
						<time>2024-05-30T13:19:22Z</time>
					</trkpt>
					<trkpt lat="49.065890" lon="2.431330">
						<ele>131</ele>
						<time>2024-05-30T13:19:25Z</time>
					</trkpt>
					<trkpt lat="49.066240" lon="2.431720">
						<ele>131</ele>
						<time>2024-05-30T13:19:33Z</time>
					</trkpt>
					<trkpt lat="49.068550" lon="2.434730">
						<ele>132</ele>
						<time>2024-05-30T13:20:27Z</time>
					</trkpt>
					<trkpt lat="49.068610" lon="2.434820">
						<ele>131</ele>
						<time>2024-05-30T13:20:28Z</time>
					</trkpt>
					<trkpt lat="49.068630" lon="2.434890">
						<ele>131</ele>
						<time>2024-05-30T13:20:29Z</time>
					</trkpt>
					<trkpt lat="49.068630" lon="2.434980">
						<ele>131</ele>
						<time>2024-05-30T13:20:30Z</time>
					</trkpt>
					<trkpt lat="49.067890" lon="2.438920">
						<ele>124</ele>
						<time>2024-05-30T13:21:18Z</time>
					</trkpt>
					<trkpt lat="49.067700" lon="2.439960">
						<ele>123</ele>
						<time>2024-05-30T13:21:31Z</time>
					</trkpt>
					<trkpt lat="49.067660" lon="2.440340">
						<ele>123</ele>
						<time>2024-05-30T13:21:35Z</time>
					</trkpt>
					<trkpt lat="49.067540" lon="2.443040">
						<ele>131</ele>
						<time>2024-05-30T13:22:07Z</time>
					</trkpt>
					<trkpt lat="49.067460" lon="2.443730">
						<ele>132</ele>
						<time>2024-05-30T13:22:15Z</time>
					</trkpt>
					<trkpt lat="49.067420" lon="2.443930">
						<ele>133</ele>
						<time>2024-05-30T13:22:17Z</time>
					</trkpt>
					<trkpt lat="49.066830" lon="2.446500">
						<ele>135</ele>
						<time>2024-05-30T13:22:49Z</time>
					</trkpt>
					<trkpt lat="49.066120" lon="2.449210">
						<ele>145</ele>
						<time>2024-05-30T13:23:23Z</time>
					</trkpt>
					<trkpt lat="49.066060" lon="2.449530">
						<ele>146</ele>
						<time>2024-05-30T13:23:27Z</time>
					</trkpt>
					<trkpt lat="49.066060" lon="2.449950">
						<ele>149</ele>
						<time>2024-05-30T13:23:32Z</time>
					</trkpt>
					<trkpt lat="49.066190" lon="2.453010">
						<ele>162</ele>
						<time>2024-05-30T13:24:07Z</time>
					</trkpt>
					<trkpt lat="49.066180" lon="2.453350">
						<ele>163</ele>
						<time>2024-05-30T13:24:11Z</time>
					</trkpt>
					<trkpt lat="49.066220" lon="2.453680">
						<ele>165</ele>
						<time>2024-05-30T13:24:15Z</time>
					</trkpt>
					<trkpt lat="49.066310" lon="2.455750">
						<ele>165</ele>
						<time>2024-05-30T13:24:40Z</time>
					</trkpt>
					<trkpt lat="49.066310" lon="2.457510">
						<ele>164</ele>
						<time>2024-05-30T13:25:00Z</time>
					</trkpt>
					<trkpt lat="49.066280" lon="2.459310">
						<ele>160</ele>
						<time>2024-05-30T13:25:21Z</time>
					</trkpt>
					<trkpt lat="49.066350" lon="2.460590">
						<ele>154</ele>
						<time>2024-05-30T13:25:36Z</time>
					</trkpt>
					<trkpt lat="49.066340" lon="2.460860">
						<ele>153</ele>
						<time>2024-05-30T13:25:39Z</time>
					</trkpt>
					<trkpt lat="49.066370" lon="2.461110">
						<ele>152</ele>
						<time>2024-05-30T13:25:42Z</time>
					</trkpt>
					<trkpt lat="49.066430" lon="2.462080">
						<ele>150</ele>
						<time>2024-05-30T13:25:53Z</time>
					</trkpt>
					<trkpt lat="49.066480" lon="2.462380">
						<ele>150</ele>
						<time>2024-05-30T13:25:57Z</time>
					</trkpt>
					<trkpt lat="49.066590" lon="2.462830">
						<ele>149</ele>
						<time>2024-05-30T13:26:03Z</time>
					</trkpt>
					<trkpt lat="49.066780" lon="2.463480">
						<ele>147</ele>
						<time>2024-05-30T13:26:11Z</time>
					</trkpt>
					<trkpt lat="49.066860" lon="2.463710">
						<ele>145</ele>
						<time>2024-05-30T13:26:14Z</time>
					</trkpt>
					<trkpt lat="49.067080" lon="2.464200">
						<ele>142</ele>
						<time>2024-05-30T13:26:21Z</time>
					</trkpt>
					<trkpt lat="49.067170" lon="2.464480">
						<ele>141</ele>
						<time>2024-05-30T13:26:25Z</time>
					</trkpt>
					<trkpt lat="49.067210" lon="2.464710">
						<ele>140</ele>
						<time>2024-05-30T13:26:27Z</time>
					</trkpt>
					<trkpt lat="49.067220" lon="2.465000">
						<ele>139</ele>
						<time>2024-05-30T13:26:31Z</time>
					</trkpt>
					<trkpt lat="49.067210" lon="2.465900">
						<ele>135</ele>
						<time>2024-05-30T13:26:41Z</time>
					</trkpt>
					<trkpt lat="49.067250" lon="2.466340">
						<ele>134</ele>
						<time>2024-05-30T13:26:46Z</time>
					</trkpt>
					<trkpt lat="49.067300" lon="2.466640">
						<ele>133</ele>
						<time>2024-05-30T13:26:50Z</time>
					</trkpt>
					<trkpt lat="49.067630" lon="2.468080">
						<ele>133</ele>
						<time>2024-05-30T13:27:08Z</time>
					</trkpt>
					<trkpt lat="49.067720" lon="2.468610">
						<ele>133</ele>
						<time>2024-05-30T13:27:14Z</time>
					</trkpt>
					<trkpt lat="49.067770" lon="2.469350">
						<ele>133</ele>
						<time>2024-05-30T13:27:23Z</time>
					</trkpt>
					<trkpt lat="49.067820" lon="2.471190">
						<ele>131</ele>
						<time>2024-05-30T13:27:44Z</time>
					</trkpt>
					<trkpt lat="49.067810" lon="2.471330">
						<ele>131</ele>
						<time>2024-05-30T13:27:46Z</time>
					</trkpt>
					<trkpt lat="49.067760" lon="2.471410">
						<ele>131</ele>
						<time>2024-05-30T13:27:47Z</time>
					</trkpt>
					<trkpt lat="49.067730" lon="2.471430">
						<ele>131</ele>
						<time>2024-05-30T13:27:48Z</time>
					</trkpt>
					<trkpt lat="49.067760" lon="2.471540">
						<ele>131</ele>
						<time>2024-05-30T13:27:49Z</time>
					</trkpt>
					<trkpt lat="49.067810" lon="2.471650">
						<ele>131</ele>
						<time>2024-05-30T13:27:51Z</time>
					</trkpt>
					<trkpt lat="49.067960" lon="2.471830">
						<ele>131</ele>
						<time>2024-05-30T13:27:54Z</time>
					</trkpt>
					<trkpt lat="49.067860" lon="2.472040">
						<ele>131</ele>
						<time>2024-05-30T13:27:57Z</time>
					</trkpt>
					<trkpt lat="49.067850" lon="2.472140">
						<ele>132</ele>
						<time>2024-05-30T13:27:58Z</time>
					</trkpt>
					<trkpt lat="49.067950" lon="2.472930">
						<ele>131</ele>
						<time>2024-05-30T13:28:08Z</time>
					</trkpt>
					<trkpt lat="49.067980" lon="2.474440">
						<ele>130</ele>
						<time>2024-05-30T13:28:25Z</time>
					</trkpt>
					<trkpt lat="49.067950" lon="2.475040">
						<ele>130</ele>
						<time>2024-05-30T13:28:32Z</time>
					</trkpt>
					<trkpt lat="49.067700" lon="2.476330">
						<ele>130</ele>
						<time>2024-05-30T13:28:48Z</time>
					</trkpt>
					<trkpt lat="49.068160" lon="2.477320">
						<ele>127</ele>
						<time>2024-05-30T13:29:02Z</time>
					</trkpt>
					<trkpt lat="49.068250" lon="2.477480">
						<ele>126</ele>
						<time>2024-05-30T13:29:05Z</time>
					</trkpt>
					<trkpt lat="49.068530" lon="2.477720">
						<ele>123</ele>
						<time>2024-05-30T13:29:10Z</time>
					</trkpt>
					<trkpt lat="49.068590" lon="2.477810">
						<ele>123</ele>
						<time>2024-05-30T13:29:12Z</time>
					</trkpt>
					<trkpt lat="49.068660" lon="2.478000">
						<ele>122</ele>
						<time>2024-05-30T13:29:14Z</time>
					</trkpt>
					<trkpt lat="49.068870" lon="2.479500">
						<ele>123</ele>
						<time>2024-05-30T13:29:32Z</time>
					</trkpt>
					<trkpt lat="49.068910" lon="2.479620">
						<ele>123</ele>
						<time>2024-05-30T13:29:34Z</time>
					</trkpt>
					<trkpt lat="49.069280" lon="2.480010">
						<ele>126</ele>
						<time>2024-05-30T13:29:42Z</time>
					</trkpt>
					<trkpt lat="49.069460" lon="2.480220">
						<ele>127</ele>
						<time>2024-05-30T13:29:46Z</time>
					</trkpt>
					<trkpt lat="49.069570" lon="2.480470">
						<ele>127</ele>
						<time>2024-05-30T13:29:49Z</time>
					</trkpt>
					<trkpt lat="49.069780" lon="2.481060">
						<ele>127</ele>
						<time>2024-05-30T13:29:57Z</time>
					</trkpt>
					<trkpt lat="49.069870" lon="2.481520">
						<ele>126</ele>
						<time>2024-05-30T13:30:03Z</time>
					</trkpt>
					<trkpt lat="49.069900" lon="2.481770">
						<ele>126</ele>
						<time>2024-05-30T13:30:06Z</time>
					</trkpt>
					<trkpt lat="49.069890" lon="2.481910">
						<ele>126</ele>
						<time>2024-05-30T13:30:07Z</time>
					</trkpt>
					<trkpt lat="49.069830" lon="2.482070">
						<ele>125</ele>
						<time>2024-05-30T13:30:10Z</time>
					</trkpt>
					<trkpt lat="49.069910" lon="2.482190">
						<ele>126</ele>
						<time>2024-05-30T13:30:12Z</time>
					</trkpt>
					<trkpt lat="49.069930" lon="2.482290">
						<ele>126</ele>
						<time>2024-05-30T13:30:13Z</time>
					</trkpt>
					<trkpt lat="49.070000" lon="2.484140">
						<ele>129</ele>
						<time>2024-05-30T13:30:34Z</time>
					</trkpt>
					<trkpt lat="49.070060" lon="2.485380">
						<ele>132</ele>
						<time>2024-05-30T13:30:49Z</time>
					</trkpt>
					<trkpt lat="49.070110" lon="2.485740">
						<ele>132</ele>
						<time>2024-05-30T13:30:53Z</time>
					</trkpt>
					<trkpt lat="49.070160" lon="2.485910">
						<ele>132</ele>
						<time>2024-05-30T13:30:55Z</time>
					</trkpt>
					<trkpt lat="49.073170" lon="2.494100">
						<ele>135</ele>
						<time>2024-05-30T13:32:45Z</time>
					</trkpt>
					<trkpt lat="49.073260" lon="2.494290">
						<ele>135</ele>
						<time>2024-05-30T13:32:48Z</time>
					</trkpt>
					<trkpt lat="49.074010" lon="2.495780">
						<ele>135</ele>
						<time>2024-05-30T13:33:09Z</time>
					</trkpt>
					<trkpt lat="49.074050" lon="2.495900">
						<ele>135</ele>
						<time>2024-05-30T13:33:11Z</time>
					</trkpt>
					<trkpt lat="49.074080" lon="2.496020">
						<ele>135</ele>
						<time>2024-05-30T13:33:13Z</time>
					</trkpt>
					<trkpt lat="49.074140" lon="2.497930">
						<ele>135</ele>
						<time>2024-05-30T13:33:35Z</time>
					</trkpt>
					<trkpt lat="49.074050" lon="2.497970">
						<ele>135</ele>
						<time>2024-05-30T13:33:36Z</time>
					</trkpt>
					<trkpt lat="49.073930" lon="2.498060">
						<ele>135</ele>
						<time>2024-05-30T13:33:39Z</time>
					</trkpt>
					<trkpt lat="49.073140" lon="2.498870">
						<ele>134</ele>
						<time>2024-05-30T13:33:56Z</time>
					</trkpt>
					<trkpt lat="49.073040" lon="2.498970">
						<ele>133</ele>
						<time>2024-05-30T13:33:58Z</time>
					</trkpt>
					<trkpt lat="49.072950" lon="2.499020">
						<ele>133</ele>
						<time>2024-05-30T13:34:00Z</time>
					</trkpt>
					<trkpt lat="49.072790" lon="2.499050">
						<ele>133</ele>
						<time>2024-05-30T13:34:02Z</time>
					</trkpt>
					<trkpt lat="49.072200" lon="2.499060">
						<ele>131</ele>
						<time>2024-05-30T13:34:13Z</time>
					</trkpt>
					<trkpt lat="49.071740" lon="2.498980">
						<ele>131</ele>
						<time>2024-05-30T13:34:21Z</time>
					</trkpt>
					<trkpt lat="49.071600" lon="2.498890">
						<ele>131</ele>
						<time>2024-05-30T13:34:24Z</time>
					</trkpt>
					<trkpt lat="49.071520" lon="2.498790">
						<ele>131</ele>
						<time>2024-05-30T13:34:26Z</time>
					</trkpt>
					<trkpt lat="49.071470" lon="2.498660">
						<ele>131</ele>
						<time>2024-05-30T13:34:28Z</time>
					</trkpt>
					<trkpt lat="49.071430" lon="2.498620">
						<ele>131</ele>
						<time>2024-05-30T13:34:28Z</time>
					</trkpt>
					<trkpt lat="49.071340" lon="2.498590">
						<ele>131</ele>
						<time>2024-05-30T13:34:30Z</time>
					</trkpt>
					<trkpt lat="49.071290" lon="2.498600">
						<ele>131</ele>
						<time>2024-05-30T13:34:31Z</time>
					</trkpt>
					<trkpt lat="49.071230" lon="2.498660">
						<ele>130</ele>
						<time>2024-05-30T13:34:32Z</time>
					</trkpt>
					<trkpt lat="49.071180" lon="2.498760">
						<ele>130</ele>
						<time>2024-05-30T13:34:34Z</time>
					</trkpt>
					<trkpt lat="49.071170" lon="2.498910">
						<ele>130</ele>
						<time>2024-05-30T13:34:35Z</time>
					</trkpt>
					<trkpt lat="49.071180" lon="2.498980">
						<ele>130</ele>
						<time>2024-05-30T13:34:36Z</time>
					</trkpt>
					<trkpt lat="49.071220" lon="2.499070">
						<ele>130</ele>
						<time>2024-05-30T13:34:38Z</time>
					</trkpt>
					<trkpt lat="49.071400" lon="2.499200">
						<ele>130</ele>
						<time>2024-05-30T13:34:41Z</time>
					</trkpt>
					<trkpt lat="49.071430" lon="2.499290">
						<ele>130</ele>
						<time>2024-05-30T13:34:42Z</time>
					</trkpt>
					<trkpt lat="49.071790" lon="2.504180">
						<ele>125</ele>
						<time>2024-05-30T13:35:40Z</time>
					</trkpt>
					<trkpt lat="49.071800" lon="2.504490">
						<ele>126</ele>
						<time>2024-05-30T13:35:43Z</time>
					</trkpt>
					<trkpt lat="49.071750" lon="2.504730">
						<ele>126</ele>
						<time>2024-05-30T13:35:46Z</time>
					</trkpt>
					<trkpt lat="49.071690" lon="2.504890">
						<ele>126</ele>
						<time>2024-05-30T13:35:48Z</time>
					</trkpt>
					<trkpt lat="49.063850" lon="2.520860">
						<ele>115</ele>
						<time>2024-05-30T13:39:41Z</time>
					</trkpt>
					<trkpt lat="49.063740" lon="2.521090">
						<ele>116</ele>
						<time>2024-05-30T13:39:44Z</time>
					</trkpt>
					<trkpt lat="49.063410" lon="2.521690">
						<ele>118</ele>
						<time>2024-05-30T13:39:53Z</time>
					</trkpt>
					<trkpt lat="49.063320" lon="2.521740">
						<ele>118</ele>
						<time>2024-05-30T13:39:55Z</time>
					</trkpt>
					<trkpt lat="49.063220" lon="2.521740">
						<ele>118</ele>
						<time>2024-05-30T13:39:57Z</time>
					</trkpt>
					<trkpt lat="49.063170" lon="2.521700">
						<ele>118</ele>
						<time>2024-05-30T13:39:58Z</time>
					</trkpt>
					<trkpt lat="49.063130" lon="2.521700">
						<ele>118</ele>
						<time>2024-05-30T13:39:59Z</time>
					</trkpt>
					<trkpt lat="49.063100" lon="2.521710">
						<ele>118</ele>
						<time>2024-05-30T13:39:59Z</time>
					</trkpt>
					<trkpt lat="49.063040" lon="2.521780">
						<ele>119</ele>
						<time>2024-05-30T13:40:00Z</time>
					</trkpt>
					<trkpt lat="49.063020" lon="2.521780">
						<ele>119</ele>
						<time>2024-05-30T13:40:01Z</time>
					</trkpt>
					<trkpt lat="49.062890" lon="2.521900">
						<ele>119</ele>
						<time>2024-05-30T13:40:04Z</time>
					</trkpt>
					<trkpt lat="49.062630" lon="2.521890">
						<ele>119</ele>
						<time>2024-05-30T13:40:08Z</time>
					</trkpt>
					<trkpt lat="49.062530" lon="2.521910">
						<ele>119</ele>
						<time>2024-05-30T13:40:10Z</time>
					</trkpt>
					<trkpt lat="49.062430" lon="2.521980">
						<ele>119</ele>
						<time>2024-05-30T13:40:12Z</time>
					</trkpt>
					<trkpt lat="49.062320" lon="2.522130">
						<ele>118</ele>
						<time>2024-05-30T13:40:15Z</time>
					</trkpt>
					<trkpt lat="49.061960" lon="2.522200">
						<ele>117</ele>
						<time>2024-05-30T13:40:21Z</time>
					</trkpt>
					<trkpt lat="49.061870" lon="2.522520">
						<ele>117</ele>
						<time>2024-05-30T13:40:25Z</time>
					</trkpt>
					<trkpt lat="49.061930" lon="2.522890">
						<ele>117</ele>
						<time>2024-05-30T13:40:30Z</time>
					</trkpt>
					<trkpt lat="49.061930" lon="2.522970">
						<ele>118</ele>
						<time>2024-05-30T13:40:30Z</time>
					</trkpt>
					<trkpt lat="49.061900" lon="2.523070">
						<ele>118</ele>
						<time>2024-05-30T13:40:32Z</time>
					</trkpt>
					<trkpt lat="49.061940" lon="2.523100">
						<ele>118</ele>
						<time>2024-05-30T13:40:33Z</time>
					</trkpt>
					<trkpt lat="49.061770" lon="2.523430">
						<ele>117</ele>
						<time>2024-05-30T13:40:37Z</time>
					</trkpt>
					<trkpt lat="49.061730" lon="2.523530">
						<ele>117</ele>
						<time>2024-05-30T13:40:39Z</time>
					</trkpt>
					<trkpt lat="49.061690" lon="2.523780">
						<ele>117</ele>
						<time>2024-05-30T13:40:42Z</time>
					</trkpt>
					<trkpt lat="49.061690" lon="2.523960">
						<ele>117</ele>
						<time>2024-05-30T13:40:44Z</time>
					</trkpt>
					<trkpt lat="49.061720" lon="2.524170">
						<ele>117</ele>
						<time>2024-05-30T13:40:46Z</time>
					</trkpt>
					<trkpt lat="49.061770" lon="2.524330">
						<ele>117</ele>
						<time>2024-05-30T13:40:48Z</time>
					</trkpt>
					<trkpt lat="49.061870" lon="2.524500">
						<ele>117</ele>
						<time>2024-05-30T13:40:51Z</time>
					</trkpt>
					<trkpt lat="49.062460" lon="2.524980">
						<ele>119</ele>
						<time>2024-05-30T13:41:03Z</time>
					</trkpt>
					<trkpt lat="49.062550" lon="2.525080">
						<ele>119</ele>
						<time>2024-05-30T13:41:05Z</time>
					</trkpt>
					<trkpt lat="49.062640" lon="2.525220">
						<ele>119</ele>
						<time>2024-05-30T13:41:07Z</time>
					</trkpt>
					<trkpt lat="49.062690" lon="2.525370">
						<ele>119</ele>
						<time>2024-05-30T13:41:09Z</time>
					</trkpt>
					<trkpt lat="49.062730" lon="2.525580">
						<ele>119</ele>
						<time>2024-05-30T13:41:12Z</time>
					</trkpt>
					<trkpt lat="49.062720" lon="2.525900">
						<ele>119</ele>
						<time>2024-05-30T13:41:16Z</time>
					</trkpt>
					<trkpt lat="49.062680" lon="2.526170">
						<ele>118</ele>
						<time>2024-05-30T13:41:19Z</time>
					</trkpt>
					<trkpt lat="49.062580" lon="2.526490">
						<ele>118</ele>
						<time>2024-05-30T13:41:23Z</time>
					</trkpt>
					<trkpt lat="49.062560" lon="2.526550">
						<ele>117</ele>
						<time>2024-05-30T13:41:24Z</time>
					</trkpt>
					<trkpt lat="49.062500" lon="2.526620">
						<ele>117</ele>
						<time>2024-05-30T13:41:25Z</time>
					</trkpt>
					<trkpt lat="49.062450" lon="2.526710">
						<ele>117</ele>
						<time>2024-05-30T13:41:26Z</time>
					</trkpt>
					<trkpt lat="49.062460" lon="2.526790">
						<ele>117</ele>
						<time>2024-05-30T13:41:27Z</time>
					</trkpt>
					<trkpt lat="49.062490" lon="2.526850">
						<ele>117</ele>
						<time>2024-05-30T13:41:28Z</time>
					</trkpt>
					<trkpt lat="49.062540" lon="2.527020">
						<ele>117</ele>
						<time>2024-05-30T13:41:30Z</time>
					</trkpt>
					<trkpt lat="49.062600" lon="2.527290">
						<ele>117</ele>
						<time>2024-05-30T13:41:34Z</time>
					</trkpt>
					<trkpt lat="49.062620" lon="2.528360">
						<ele>117</ele>
						<time>2024-05-30T13:41:46Z</time>
					</trkpt>
					<trkpt lat="49.062590" lon="2.528710">
						<ele>118</ele>
						<time>2024-05-30T13:41:50Z</time>
					</trkpt>
					<trkpt lat="49.062500" lon="2.529120">
						<ele>118</ele>
						<time>2024-05-30T13:41:55Z</time>
					</trkpt>
					<trkpt lat="49.062390" lon="2.529490">
						<ele>118</ele>
						<time>2024-05-30T13:42:00Z</time>
					</trkpt>
					<trkpt lat="49.062210" lon="2.529820">
						<ele>118</ele>
						<time>2024-05-30T13:42:05Z</time>
					</trkpt>
					<trkpt lat="49.062080" lon="2.530000">
						<ele>117</ele>
						<time>2024-05-30T13:42:08Z</time>
					</trkpt>
					<trkpt lat="49.061670" lon="2.530490">
						<ele>117</ele>
						<time>2024-05-30T13:42:17Z</time>
					</trkpt>
					<trkpt lat="49.061400" lon="2.530870">
						<ele>116</ele>
						<time>2024-05-30T13:42:24Z</time>
					</trkpt>
					<trkpt lat="49.060860" lon="2.531740">
						<ele>115</ele>
						<time>2024-05-30T13:42:38Z</time>
					</trkpt>
					<trkpt lat="49.060650" lon="2.532000">
						<ele>115</ele>
						<time>2024-05-30T13:42:43Z</time>
					</trkpt>
					<trkpt lat="49.060420" lon="2.532350">
						<ele>115</ele>
						<time>2024-05-30T13:42:49Z</time>
					</trkpt>
					<trkpt lat="49.060210" lon="2.532770">
						<ele>115</ele>
						<time>2024-05-30T13:42:55Z</time>
					</trkpt>
					<trkpt lat="49.060150" lon="2.532820">
						<ele>115</ele>
						<time>2024-05-30T13:42:56Z</time>
					</trkpt>
					<trkpt lat="49.060100" lon="2.532850">
						<ele>115</ele>
						<time>2024-05-30T13:42:57Z</time>
					</trkpt>
					<trkpt lat="49.060050" lon="2.532930">
						<ele>115</ele>
						<time>2024-05-30T13:42:58Z</time>
					</trkpt>
					<trkpt lat="49.060050" lon="2.533030">
						<ele>115</ele>
						<time>2024-05-30T13:42:59Z</time>
					</trkpt>
					<trkpt lat="49.060080" lon="2.533110">
						<ele>115</ele>
						<time>2024-05-30T13:43:00Z</time>
					</trkpt>
					<trkpt lat="49.060120" lon="2.533140">
						<ele>115</ele>
						<time>2024-05-30T13:43:01Z</time>
					</trkpt>
					<trkpt lat="49.060190" lon="2.533290">
						<ele>115</ele>
						<time>2024-05-30T13:43:03Z</time>
					</trkpt>
					<trkpt lat="49.060220" lon="2.533450">
						<ele>115</ele>
						<time>2024-05-30T13:43:05Z</time>
					</trkpt>
					<trkpt lat="49.059850" lon="2.536690">
						<ele>117</ele>
						<time>2024-05-30T13:43:44Z</time>
					</trkpt>
					<trkpt lat="49.059960" lon="2.537640">
						<ele>117</ele>
						<time>2024-05-30T13:43:55Z</time>
					</trkpt>
					<trkpt lat="49.059960" lon="2.537760">
						<ele>117</ele>
						<time>2024-05-30T13:43:56Z</time>
					</trkpt>
					<trkpt lat="49.059800" lon="2.538910">
						<ele>117</ele>
						<time>2024-05-30T13:44:10Z</time>
					</trkpt>
					<trkpt lat="49.059870" lon="2.539830">
						<ele>118</ele>
						<time>2024-05-30T13:44:21Z</time>
					</trkpt>
					<trkpt lat="49.060070" lon="2.541110">
						<ele>117</ele>
						<time>2024-05-30T13:44:36Z</time>
					</trkpt>
					<trkpt lat="49.060190" lon="2.542810">
						<ele>116</ele>
						<time>2024-05-30T13:44:56Z</time>
					</trkpt>
					<trkpt lat="49.060180" lon="2.542950">
						<ele>116</ele>
						<time>2024-05-30T13:44:58Z</time>
					</trkpt>
					<trkpt lat="49.060160" lon="2.543020">
						<ele>116</ele>
						<time>2024-05-30T13:44:59Z</time>
					</trkpt>
					<trkpt lat="49.060130" lon="2.543080">
						<ele>116</ele>
						<time>2024-05-30T13:44:59Z</time>
					</trkpt>
					<trkpt lat="49.060130" lon="2.543140">
						<ele>116</ele>
						<time>2024-05-30T13:45:00Z</time>
					</trkpt>
					<trkpt lat="49.060150" lon="2.543190">
						<ele>116</ele>
						<time>2024-05-30T13:45:01Z</time>
					</trkpt>
					<trkpt lat="49.060190" lon="2.543220">
						<ele>116</ele>
						<time>2024-05-30T13:45:02Z</time>
					</trkpt>
					<trkpt lat="49.060250" lon="2.543360">
						<ele>116</ele>
						<time>2024-05-30T13:45:04Z</time>
					</trkpt>
					<trkpt lat="49.060490" lon="2.544670">
						<ele>119</ele>
						<time>2024-05-30T13:45:19Z</time>
					</trkpt>
					<trkpt lat="49.060510" lon="2.544930">
						<ele>118</ele>
						<time>2024-05-30T13:45:23Z</time>
					</trkpt>
					<trkpt lat="49.060540" lon="2.545560">
						<ele>118</ele>
						<time>2024-05-30T13:45:30Z</time>
					</trkpt>
					<trkpt lat="49.060560" lon="2.547360">
						<ele>118</ele>
						<time>2024-05-30T13:45:51Z</time>
					</trkpt>
					<trkpt lat="49.060550" lon="2.549100">
						<ele>114</ele>
						<time>2024-05-30T13:46:11Z</time>
					</trkpt>
					<trkpt lat="49.060510" lon="2.550880">
						<ele>105</ele>
						<time>2024-05-30T13:46:32Z</time>
					</trkpt>
					<trkpt lat="49.060480" lon="2.551750">
						<ele>101</ele>
						<time>2024-05-30T13:46:42Z</time>
					</trkpt>
					<trkpt lat="49.060470" lon="2.552010">
						<ele>101</ele>
						<time>2024-05-30T13:46:45Z</time>
					</trkpt>
					<trkpt lat="49.060490" lon="2.552240">
						<ele>101</ele>
						<time>2024-05-30T13:46:48Z</time>
					</trkpt>
					<trkpt lat="49.060550" lon="2.552590">
						<ele>101</ele>
						<time>2024-05-30T13:46:52Z</time>
					</trkpt>
					<trkpt lat="49.060640" lon="2.552910">
						<ele>101</ele>
						<time>2024-05-30T13:46:56Z</time>
					</trkpt>
					<trkpt lat="49.060730" lon="2.553120">
						<ele>100</ele>
						<time>2024-05-30T13:46:59Z</time>
					</trkpt>
					<trkpt lat="49.061030" lon="2.553660">
						<ele>100</ele>
						<time>2024-05-30T13:47:07Z</time>
					</trkpt>
					<trkpt lat="49.061210" lon="2.553910">
						<ele>101</ele>
						<time>2024-05-30T13:47:12Z</time>
					</trkpt>
					<trkpt lat="49.061440" lon="2.554150">
						<ele>101</ele>
						<time>2024-05-30T13:47:17Z</time>
					</trkpt>
					<trkpt lat="49.061630" lon="2.554320">
						<ele>102</ele>
						<time>2024-05-30T13:47:21Z</time>
					</trkpt>
					<trkpt lat="49.062020" lon="2.554620">
						<ele>103</ele>
						<time>2024-05-30T13:47:28Z</time>
					</trkpt>
					<trkpt lat="49.063200" lon="2.555410">
						<ele>105</ele>
						<time>2024-05-30T13:47:51Z</time>
					</trkpt>
					<trkpt lat="49.063410" lon="2.555590">
						<ele>105</ele>
						<time>2024-05-30T13:47:55Z</time>
					</trkpt>
					<trkpt lat="49.063590" lon="2.555800">
						<ele>105</ele>
						<time>2024-05-30T13:48:00Z</time>
					</trkpt>
					<trkpt lat="49.063720" lon="2.555970">
						<ele>105</ele>
						<time>2024-05-30T13:48:03Z</time>
					</trkpt>
					<trkpt lat="49.063900" lon="2.556320">
						<ele>105</ele>
						<time>2024-05-30T13:48:08Z</time>
					</trkpt>
					<trkpt lat="49.064290" lon="2.557220">
						<ele>103</ele>
						<time>2024-05-30T13:48:20Z</time>
					</trkpt>
					<trkpt lat="49.064500" lon="2.557630">
						<ele>103</ele>
						<time>2024-05-30T13:48:26Z</time>
					</trkpt>
					<trkpt lat="49.064630" lon="2.557830">
						<ele>103</ele>
						<time>2024-05-30T13:48:30Z</time>
					</trkpt>
					<trkpt lat="49.064750" lon="2.557960">
						<ele>103</ele>
						<time>2024-05-30T13:48:32Z</time>
					</trkpt>
					<trkpt lat="49.064900" lon="2.558040">
						<ele>103</ele>
						<time>2024-05-30T13:48:35Z</time>
					</trkpt>
					<trkpt lat="49.065540" lon="2.558250">
						<ele>105</ele>
						<time>2024-05-30T13:48:47Z</time>
					</trkpt>
					<trkpt lat="49.066880" lon="2.558880">
						<ele>107</ele>
						<time>2024-05-30T13:49:12Z</time>
					</trkpt>
					<trkpt lat="49.067060" lon="2.559040">
						<ele>107</ele>
						<time>2024-05-30T13:49:15Z</time>
					</trkpt>
					<trkpt lat="49.067210" lon="2.559250">
						<ele>107</ele>
						<time>2024-05-30T13:49:19Z</time>
					</trkpt>
					<trkpt lat="49.067320" lon="2.559440">
						<ele>107</ele>
						<time>2024-05-30T13:49:22Z</time>
					</trkpt>
					<trkpt lat="49.067440" lon="2.559730">
						<ele>107</ele>
						<time>2024-05-30T13:49:26Z</time>
					</trkpt>
					<trkpt lat="49.067590" lon="2.560160">
						<ele>107</ele>
						<time>2024-05-30T13:49:32Z</time>
					</trkpt>
					<trkpt lat="49.067690" lon="2.560750">
						<ele>107</ele>
						<time>2024-05-30T13:49:39Z</time>
					</trkpt>
					<trkpt lat="49.067820" lon="2.562220">
						<ele>108</ele>
						<time>2024-05-30T13:49:56Z</time>
					</trkpt>
					<trkpt lat="49.067870" lon="2.562530">
						<ele>108</ele>
						<time>2024-05-30T13:50:00Z</time>
					</trkpt>
					<trkpt lat="49.067940" lon="2.562820">
						<ele>109</ele>
						<time>2024-05-30T13:50:03Z</time>
					</trkpt>
					<trkpt lat="49.068460" lon="2.564450">
						<ele>109</ele>
						<time>2024-05-30T13:50:25Z</time>
					</trkpt>
					<trkpt lat="49.068740" lon="2.565230">
						<ele>110</ele>
						<time>2024-05-30T13:50:35Z</time>
					</trkpt>
					<trkpt lat="49.068920" lon="2.565600">
						<ele>110</ele>
						<time>2024-05-30T13:50:40Z</time>
					</trkpt>
					<trkpt lat="49.069130" lon="2.565910">
						<ele>110</ele>
						<time>2024-05-30T13:50:45Z</time>
					</trkpt>
					<trkpt lat="49.069240" lon="2.566420">
						<ele>111</ele>
						<time>2024-05-30T13:50:52Z</time>
					</trkpt>
					<trkpt lat="49.069240" lon="2.566510">
						<ele>111</ele>
						<time>2024-05-30T13:50:53Z</time>
					</trkpt>
					<trkpt lat="49.069130" lon="2.566790">
						<ele>111</ele>
						<time>2024-05-30T13:50:57Z</time>
					</trkpt>
					<trkpt lat="49.068900" lon="2.567310">
						<ele>112</ele>
						<time>2024-05-30T13:51:04Z</time>
					</trkpt>
					<trkpt lat="49.068830" lon="2.567530">
						<ele>112</ele>
						<time>2024-05-30T13:51:07Z</time>
					</trkpt>
					<trkpt lat="49.068980" lon="2.568200">
						<ele>113</ele>
						<time>2024-05-30T13:51:15Z</time>
					</trkpt>
					<trkpt lat="49.069260" lon="2.568810">
						<ele>114</ele>
						<time>2024-05-30T13:51:24Z</time>
					</trkpt>
					<trkpt lat="49.070020" lon="2.570600">
						<ele>114</ele>
						<time>2024-05-30T13:51:49Z</time>
					</trkpt>
					<trkpt lat="49.070160" lon="2.571130">
						<ele>115</ele>
						<time>2024-05-30T13:51:55Z</time>
					</trkpt>
					<trkpt lat="49.070510" lon="2.572760">
						<ele>115</ele>
						<time>2024-05-30T13:52:15Z</time>
					</trkpt>
					<trkpt lat="49.070870" lon="2.573140">
						<ele>114</ele>
						<time>2024-05-30T13:52:23Z</time>
					</trkpt>
					<trkpt lat="49.071620" lon="2.574030">
						<ele>116</ele>
						<time>2024-05-30T13:52:40Z</time>
					</trkpt>
					<trkpt lat="49.072080" lon="2.574630">
						<ele>118</ele>
						<time>2024-05-30T13:52:51Z</time>
					</trkpt>
					<trkpt lat="49.072830" lon="2.575830">
						<ele>116</ele>
						<time>2024-05-30T13:53:10Z</time>
					</trkpt>
					<trkpt lat="49.072960" lon="2.576130">
						<ele>116</ele>
						<time>2024-05-30T13:53:14Z</time>
					</trkpt>
					<trkpt lat="49.073000" lon="2.576290">
						<ele>116</ele>
						<time>2024-05-30T13:53:16Z</time>
					</trkpt>
					<trkpt lat="49.073120" lon="2.576390">
						<ele>116</ele>
						<time>2024-05-30T13:53:19Z</time>
					</trkpt>
					<trkpt lat="49.073380" lon="2.576730">
						<ele>116</ele>
						<time>2024-05-30T13:53:25Z</time>
					</trkpt>
					<trkpt lat="49.073790" lon="2.577400">
						<ele>116</ele>
						<time>2024-05-30T13:53:35Z</time>
					</trkpt>
					<trkpt lat="49.074110" lon="2.577980">
						<ele>115</ele>
						<time>2024-05-30T13:53:44Z</time>
					</trkpt>
					<trkpt lat="49.074780" lon="2.580590">
						<ele>117</ele>
						<time>2024-05-30T13:54:17Z</time>
					</trkpt>
					<trkpt lat="49.074930" lon="2.581490">
						<ele>116</ele>
						<time>2024-05-30T13:54:28Z</time>
					</trkpt>
					<trkpt lat="49.075250" lon="2.583930">
						<ele>120</ele>
						<time>2024-05-30T13:54:57Z</time>
					</trkpt>
					<trkpt lat="49.075380" lon="2.584640">
						<ele>121</ele>
						<time>2024-05-30T13:55:05Z</time>
					</trkpt>
					<trkpt lat="49.075840" lon="2.586730">
						<ele>132</ele>
						<time>2024-05-30T13:55:31Z</time>
					</trkpt>
					<trkpt lat="49.075960" lon="2.587030">
						<ele>134</ele>
						<time>2024-05-30T13:55:35Z</time>
					</trkpt>
					<trkpt lat="49.077190" lon="2.588890">
						<ele>139</ele>
						<time>2024-05-30T13:56:06Z</time>
					</trkpt>
					<trkpt lat="49.077440" lon="2.589240">
						<ele>140</ele>
						<time>2024-05-30T13:56:12Z</time>
					</trkpt>
					<trkpt lat="49.078680" lon="2.589520">
						<ele>140</ele>
						<time>2024-05-30T13:56:34Z</time>
					</trkpt>
					<trkpt lat="49.079380" lon="2.589880">
						<ele>142</ele>
						<time>2024-05-30T13:56:47Z</time>
					</trkpt>
					<trkpt lat="49.079730" lon="2.590150">
						<ele>143</ele>
						<time>2024-05-30T13:56:54Z</time>
					</trkpt>
					<trkpt lat="49.079930" lon="2.590260">
						<ele>143</ele>
						<time>2024-05-30T13:56:58Z</time>
					</trkpt>
					<trkpt lat="49.080540" lon="2.590460">
						<ele>143</ele>
						<time>2024-05-30T13:57:09Z</time>
					</trkpt>
					<trkpt lat="49.081460" lon="2.590990">
						<ele>142</ele>
						<time>2024-05-30T13:57:27Z</time>
					</trkpt>
					<trkpt lat="49.081680" lon="2.591040">
						<ele>141</ele>
						<time>2024-05-30T13:57:31Z</time>
					</trkpt>
					<trkpt lat="49.081890" lon="2.591020">
						<ele>141</ele>
						<time>2024-05-30T13:57:34Z</time>
					</trkpt>
					<trkpt lat="49.083770" lon="2.589990">
						<ele>141</ele>
						<time>2024-05-30T13:58:10Z</time>
					</trkpt>
					<trkpt lat="49.084950" lon="2.589260">
						<ele>147</ele>
						<time>2024-05-30T13:58:33Z</time>
					</trkpt>
					<trkpt lat="49.085600" lon="2.588830">
						<ele>153</ele>
						<time>2024-05-30T13:58:45Z</time>
					</trkpt>
					<trkpt lat="49.086630" lon="2.588060">
						<ele>159</ele>
						<time>2024-05-30T13:59:06Z</time>
					</trkpt>
					<trkpt lat="49.086810" lon="2.587950">
						<ele>160</ele>
						<time>2024-05-30T13:59:09Z</time>
					</trkpt>
					<trkpt lat="49.087130" lon="2.587880">
						<ele>162</ele>
						<time>2024-05-30T13:59:15Z</time>
					</trkpt>
					<trkpt lat="49.087340" lon="2.587870">
						<ele>163</ele>
						<time>2024-05-30T13:59:19Z</time>
					</trkpt>
					<trkpt lat="49.088510" lon="2.587920">
						<ele>167</ele>
						<time>2024-05-30T13:59:39Z</time>
					</trkpt>
					<trkpt lat="49.088710" lon="2.587980">
						<ele>167</ele>
						<time>2024-05-30T13:59:43Z</time>
					</trkpt>
					<trkpt lat="49.089260" lon="2.588210">
						<ele>166</ele>
						<time>2024-05-30T13:59:53Z</time>
					</trkpt>
					<trkpt lat="49.090060" lon="2.588350">
						<ele>168</ele>
						<time>2024-05-30T14:00:08Z</time>
					</trkpt>
					<trkpt lat="49.090350" lon="2.588420">
						<ele>167</ele>
						<time>2024-05-30T14:00:13Z</time>
					</trkpt>
					<trkpt lat="49.090610" lon="2.588530">
						<ele>166</ele>
						<time>2024-05-30T14:00:18Z</time>
					</trkpt>
					<trkpt lat="49.090760" lon="2.588630">
						<ele>166</ele>
						<time>2024-05-30T14:00:20Z</time>
					</trkpt>
					<trkpt lat="49.090880" lon="2.588760">
						<ele>165</ele>
						<time>2024-05-30T14:00:23Z</time>
					</trkpt>
					<trkpt lat="49.092230" lon="2.590860">
						<ele>157</ele>
						<time>2024-05-30T14:00:57Z</time>
					</trkpt>
					<trkpt lat="49.092320" lon="2.590920">
						<ele>156</ele>
						<time>2024-05-30T14:00:59Z</time>
					</trkpt>
					<trkpt lat="49.093250" lon="2.590210">
						<ele>140</ele>
						<time>2024-05-30T14:01:18Z</time>
					</trkpt>
					<trkpt lat="49.093830" lon="2.589940">
						<ele>135</ele>
						<time>2024-05-30T14:01:28Z</time>
					</trkpt>
					<trkpt lat="49.094250" lon="2.589900">
						<ele>133</ele>
						<time>2024-05-30T14:01:36Z</time>
					</trkpt>
					<trkpt lat="49.094620" lon="2.589810">
						<ele>130</ele>
						<time>2024-05-30T14:01:43Z</time>
					</trkpt>
					<trkpt lat="49.095320" lon="2.589500">
						<ele>127</ele>
						<time>2024-05-30T14:01:56Z</time>
					</trkpt>
					<trkpt lat="49.095970" lon="2.589120">
						<ele>124</ele>
						<time>2024-05-30T14:02:08Z</time>
					</trkpt>
					<trkpt lat="49.096690" lon="2.588570">
						<ele>119</ele>
						<time>2024-05-30T14:02:22Z</time>
					</trkpt>
					<trkpt lat="49.097400" lon="2.587690">
						<ele>116</ele>
						<time>2024-05-30T14:02:39Z</time>
					</trkpt>
					<trkpt lat="49.098500" lon="2.585700">
						<ele>115</ele>
						<time>2024-05-30T14:03:09Z</time>
					</trkpt>
					<trkpt lat="49.098620" lon="2.585560">
						<ele>115</ele>
						<time>2024-05-30T14:03:12Z</time>
					</trkpt>
					<trkpt lat="49.099040" lon="2.585160">
						<ele>116</ele>
						<time>2024-05-30T14:03:20Z</time>
					</trkpt>
					<trkpt lat="49.099240" lon="2.585030">
						<ele>116</ele>
						<time>2024-05-30T14:03:24Z</time>
					</trkpt>
					<trkpt lat="49.099750" lon="2.584850">
						<ele>115</ele>
						<time>2024-05-30T14:03:34Z</time>
					</trkpt>
					<trkpt lat="49.100310" lon="2.584460">
						<ele>114</ele>
						<time>2024-05-30T14:03:44Z</time>
					</trkpt>
					<trkpt lat="49.101460" lon="2.584380">
						<ele>109</ele>
						<time>2024-05-30T14:04:05Z</time>
					</trkpt>
					<trkpt lat="49.101730" lon="2.584340">
						<ele>108</ele>
						<time>2024-05-30T14:04:10Z</time>
					</trkpt>
					<trkpt lat="49.102000" lon="2.584240">
						<ele>107</ele>
						<time>2024-05-30T14:04:15Z</time>
					</trkpt>
					<trkpt lat="49.102650" lon="2.582370">
						<ele>104</ele>
						<time>2024-05-30T14:04:39Z</time>
					</trkpt>
					<trkpt lat="49.103130" lon="2.581620">
						<ele>106</ele>
						<time>2024-05-30T14:04:52Z</time>
					</trkpt>
					<trkpt lat="49.103290" lon="2.581330">
						<ele>107</ele>
						<time>2024-05-30T14:04:56Z</time>
					</trkpt>
					<trkpt lat="49.103510" lon="2.580780">
						<ele>108</ele>
						<time>2024-05-30T14:05:04Z</time>
					</trkpt>
					<trkpt lat="49.102700" lon="2.579560">
						<ele>111</ele>
						<time>2024-05-30T14:05:24Z</time>
					</trkpt>
					<trkpt lat="49.102740" lon="2.579510">
						<ele>111</ele>
						<time>2024-05-30T14:05:25Z</time>
					</trkpt>
					<trkpt lat="49.103430" lon="2.577980">
						<ele>113</ele>
						<time>2024-05-30T14:05:46Z</time>
					</trkpt>
					<trkpt lat="49.103800" lon="2.577410">
						<ele>114</ele>
						<time>2024-05-30T14:05:56Z</time>
					</trkpt>
					<trkpt lat="49.104250" lon="2.576830">
						<ele>115</ele>
						<time>2024-05-30T14:06:06Z</time>
					</trkpt>
					<trkpt lat="49.104660" lon="2.576230">
						<ele>114</ele>
						<time>2024-05-30T14:06:16Z</time>
					</trkpt>
					<trkpt lat="49.105200" lon="2.575600">
						<ele>112</ele>
						<time>2024-05-30T14:06:28Z</time>
					</trkpt>
					<trkpt lat="49.105570" lon="2.575150">
						<ele>110</ele>
						<time>2024-05-30T14:06:37Z</time>
					</trkpt>
					<trkpt lat="49.105450" lon="2.574670">
						<ele>111</ele>
						<time>2024-05-30T14:06:43Z</time>
					</trkpt>
					<trkpt lat="49.105190" lon="2.573010">
						<ele>112</ele>
						<time>2024-05-30T14:07:03Z</time>
					</trkpt>
					<trkpt lat="49.104050" lon="2.567610">
						<ele>111</ele>
						<time>2024-05-30T14:08:09Z</time>
					</trkpt>
					<trkpt lat="49.103450" lon="2.566110">
						<ele>110</ele>
						<time>2024-05-30T14:08:29Z</time>
					</trkpt>
					<trkpt lat="49.103280" lon="2.565710">
						<ele>111</ele>
						<time>2024-05-30T14:08:35Z</time>
					</trkpt>
					<trkpt lat="49.103220" lon="2.565530">
						<ele>111</ele>
						<time>2024-05-30T14:08:37Z</time>
					</trkpt>
					<trkpt lat="49.103150" lon="2.565250">
						<ele>112</ele>
						<time>2024-05-30T14:08:41Z</time>
					</trkpt>
					<trkpt lat="49.102890" lon="2.563750">
						<ele>115</ele>
						<time>2024-05-30T14:08:59Z</time>
					</trkpt>
					<trkpt lat="49.102470" lon="2.561850">
						<ele>118</ele>
						<time>2024-05-30T14:09:22Z</time>
					</trkpt>
					<trkpt lat="49.102350" lon="2.561390">
						<ele>119</ele>
						<time>2024-05-30T14:09:28Z</time>
					</trkpt>
					<trkpt lat="49.101660" lon="2.559360">
						<ele>121</ele>
						<time>2024-05-30T14:09:54Z</time>
					</trkpt>
					<trkpt lat="49.101350" lon="2.558520">
						<ele>121</ele>
						<time>2024-05-30T14:10:06Z</time>
					</trkpt>
					<trkpt lat="49.101040" lon="2.557810">
						<ele>122</ele>
						<time>2024-05-30T14:10:16Z</time>
					</trkpt>
					<trkpt lat="49.100900" lon="2.557390">
						<ele>122</ele>
						<time>2024-05-30T14:10:21Z</time>
					</trkpt>
					<trkpt lat="49.100840" lon="2.557070">
						<ele>122</ele>
						<time>2024-05-30T14:10:25Z</time>
					</trkpt>
					<trkpt lat="49.100590" lon="2.555210">
						<ele>123</ele>
						<time>2024-05-30T14:10:47Z</time>
					</trkpt>
					<trkpt lat="49.099980" lon="2.551870">
						<ele>128</ele>
						<time>2024-05-30T14:11:28Z</time>
					</trkpt>
					<trkpt lat="49.099370" lon="2.549490">
						<ele>131</ele>
						<time>2024-05-30T14:11:57Z</time>
					</trkpt>
					<trkpt lat="49.099180" lon="2.548990">
						<ele>130</ele>
						<time>2024-05-30T14:12:04Z</time>
					</trkpt>
					<trkpt lat="49.098950" lon="2.548520">
						<ele>129</ele>
						<time>2024-05-30T14:12:11Z</time>
					</trkpt>
					<trkpt lat="49.098030" lon="2.547240">
						<ele>130</ele>
						<time>2024-05-30T14:12:33Z</time>
					</trkpt>
					<trkpt lat="49.097560" lon="2.546400">
						<ele>133</ele>
						<time>2024-05-30T14:12:46Z</time>
					</trkpt>
					<trkpt lat="49.097150" lon="2.545450">
						<ele>139</ele>
						<time>2024-05-30T14:12:59Z</time>
					</trkpt>
					<trkpt lat="49.097090" lon="2.544920">
						<ele>140</ele>
						<time>2024-05-30T14:13:05Z</time>
					</trkpt>
					<trkpt lat="49.097060" lon="2.544280">
						<ele>142</ele>
						<time>2024-05-30T14:13:13Z</time>
					</trkpt>
					<trkpt lat="49.097060" lon="2.543620">
						<ele>142</ele>
						<time>2024-05-30T14:13:21Z</time>
					</trkpt>
					<trkpt lat="49.097200" lon="2.542140">
						<ele>145</ele>
						<time>2024-05-30T14:13:38Z</time>
					</trkpt>
					<trkpt lat="49.097280" lon="2.541850">
						<ele>145</ele>
						<time>2024-05-30T14:13:42Z</time>
					</trkpt>
					<trkpt lat="49.097720" lon="2.540700">
						<ele>145</ele>
						<time>2024-05-30T14:13:57Z</time>
					</trkpt>
					<trkpt lat="49.098250" lon="2.538930">
						<ele>138</ele>
						<time>2024-05-30T14:14:20Z</time>
					</trkpt>
					<trkpt lat="49.098700" lon="2.537410">
						<ele>132</ele>
						<time>2024-05-30T14:14:39Z</time>
					</trkpt>
					<trkpt lat="49.098870" lon="2.536700">
						<ele>129</ele>
						<time>2024-05-30T14:14:48Z</time>
					</trkpt>
					<trkpt lat="49.098970" lon="2.536170">
						<ele>129</ele>
						<time>2024-05-30T14:14:55Z</time>
					</trkpt>
					<trkpt lat="49.099060" lon="2.535490">
						<ele>128</ele>
						<time>2024-05-30T14:15:03Z</time>
					</trkpt>
					<trkpt lat="49.099270" lon="2.532710">
						<ele>126</ele>
						<time>2024-05-30T14:15:35Z</time>
					</trkpt>
					<trkpt lat="49.099400" lon="2.531830">
						<ele>125</ele>
						<time>2024-05-30T14:15:46Z</time>
					</trkpt>
					<trkpt lat="49.099450" lon="2.531740">
						<ele>125</ele>
						<time>2024-05-30T14:15:47Z</time>
					</trkpt>
					<trkpt lat="49.099500" lon="2.531570">
						<ele>125</ele>
						<time>2024-05-30T14:15:49Z</time>
					</trkpt>
					<trkpt lat="49.099590" lon="2.531490">
						<ele>125</ele>
						<time>2024-05-30T14:15:51Z</time>
					</trkpt>
					<trkpt lat="49.099630" lon="2.531420">
						<ele>125</ele>
						<time>2024-05-30T14:15:52Z</time>
					</trkpt>
					<trkpt lat="49.099650" lon="2.531320">
						<ele>125</ele>
						<time>2024-05-30T14:15:53Z</time>
					</trkpt>
					<trkpt lat="49.099650" lon="2.531220">
						<ele>124</ele>
						<time>2024-05-30T14:15:55Z</time>
					</trkpt>
					<trkpt lat="49.099600" lon="2.531060">
						<ele>124</ele>
						<time>2024-05-30T14:15:57Z</time>
					</trkpt>
					<trkpt lat="49.099520" lon="2.530950">
						<ele>124</ele>
						<time>2024-05-30T14:15:59Z</time>
					</trkpt>
					<trkpt lat="49.099810" lon="2.530230">
						<ele>123</ele>
						<time>2024-05-30T14:16:08Z</time>
					</trkpt>
					<trkpt lat="49.100180" lon="2.529070">
						<ele>120</ele>
						<time>2024-05-30T14:16:23Z</time>
					</trkpt>
					<trkpt lat="49.100230" lon="2.529100">
						<ele>120</ele>
						<time>2024-05-30T14:16:24Z</time>
					</trkpt>
					<trkpt lat="49.100340" lon="2.529070">
						<ele>120</ele>
						<time>2024-05-30T14:16:26Z</time>
					</trkpt>
					<trkpt lat="49.100410" lon="2.528950">
						<ele>120</ele>
						<time>2024-05-30T14:16:28Z</time>
					</trkpt>
					<trkpt lat="49.100430" lon="2.528880">
						<ele>121</ele>
						<time>2024-05-30T14:16:29Z</time>
					</trkpt>
					<trkpt lat="49.100420" lon="2.528710">
						<ele>121</ele>
						<time>2024-05-30T14:16:31Z</time>
					</trkpt>
					<trkpt lat="49.100340" lon="2.528590">
						<ele>120</ele>
						<time>2024-05-30T14:16:33Z</time>
					</trkpt>
					<trkpt lat="49.100850" lon="2.527110">
						<ele>120</ele>
						<time>2024-05-30T14:16:53Z</time>
					</trkpt>
					<trkpt lat="49.100900" lon="2.526860">
						<ele>119</ele>
						<time>2024-05-30T14:16:56Z</time>
					</trkpt>
					<trkpt lat="49.100920" lon="2.526560">
						<ele>119</ele>
						<time>2024-05-30T14:16:59Z</time>
					</trkpt>
					<trkpt lat="49.100930" lon="2.526180">
						<ele>117</ele>
						<time>2024-05-30T14:17:04Z</time>
					</trkpt>
					<trkpt lat="49.100950" lon="2.525820">
						<ele>116</ele>
						<time>2024-05-30T14:17:08Z</time>
					</trkpt>
					<trkpt lat="49.100960" lon="2.525510">
						<ele>116</ele>
						<time>2024-05-30T14:17:11Z</time>
					</trkpt>
					<trkpt lat="49.100970" lon="2.525240">
						<ele>116</ele>
						<time>2024-05-30T14:17:15Z</time>
					</trkpt>
					<trkpt lat="49.101040" lon="2.524820">
						<ele>117</ele>
						<time>2024-05-30T14:17:20Z</time>
					</trkpt>
					<trkpt lat="49.101100" lon="2.524730">
						<ele>117</ele>
						<time>2024-05-30T14:17:21Z</time>
					</trkpt>
					<trkpt lat="49.101110" lon="2.524640">
						<ele>117</ele>
						<time>2024-05-30T14:17:22Z</time>
					</trkpt>
					<trkpt lat="49.101080" lon="2.524550">
						<ele>117</ele>
						<time>2024-05-30T14:17:23Z</time>
					</trkpt>
					<trkpt lat="49.101060" lon="2.524520">
						<ele>117</ele>
						<time>2024-05-30T14:17:24Z</time>
					</trkpt>
					<trkpt lat="49.100990" lon="2.524490">
						<ele>117</ele>
						<time>2024-05-30T14:17:25Z</time>
					</trkpt>
					<trkpt lat="49.100960" lon="2.524500">
						<ele>117</ele>
						<time>2024-05-30T14:17:26Z</time>
					</trkpt>
					<trkpt lat="49.100830" lon="2.524410">
						<ele>117</ele>
						<time>2024-05-30T14:17:28Z</time>
					</trkpt>
					<trkpt lat="49.100610" lon="2.524180">
						<ele>116</ele>
						<time>2024-05-30T14:17:33Z</time>
					</trkpt>
					<trkpt lat="49.100100" lon="2.523810">
						<ele>115</ele>
						<time>2024-05-30T14:17:43Z</time>
					</trkpt>
					<trkpt lat="49.099760" lon="2.523530">
						<ele>114</ele>
						<time>2024-05-30T14:17:50Z</time>
					</trkpt>
					<trkpt lat="49.099660" lon="2.523370">
						<ele>114</ele>
						<time>2024-05-30T14:17:52Z</time>
					</trkpt>
					<trkpt lat="49.098890" lon="2.521810">
						<ele>111</ele>
						<time>2024-05-30T14:18:15Z</time>
					</trkpt>
					<trkpt lat="49.097710" lon="2.519330">
						<ele>108</ele>
						<time>2024-05-30T14:18:51Z</time>
					</trkpt>
					<trkpt lat="49.097280" lon="2.518170">
						<ele>106</ele>
						<time>2024-05-30T14:19:06Z</time>
					</trkpt>
					<trkpt lat="49.096820" lon="2.516810">
						<ele>104</ele>
						<time>2024-05-30T14:19:24Z</time>
					</trkpt>
					<trkpt lat="49.095890" lon="2.513990">
						<ele>100</ele>
						<time>2024-05-30T14:20:01Z</time>
					</trkpt>
					<trkpt lat="49.095280" lon="2.510920">
						<ele>94</ele>
						<time>2024-05-30T14:20:38Z</time>
					</trkpt>
					<trkpt lat="49.095180" lon="2.510280">
						<ele>91</ele>
						<time>2024-05-30T14:20:46Z</time>
					</trkpt>
					<trkpt lat="49.094910" lon="2.507420">
						<ele>90</ele>
						<time>2024-05-30T14:21:20Z</time>
					</trkpt>
					<trkpt lat="49.094640" lon="2.504240">
						<ele>90</ele>
						<time>2024-05-30T14:21:57Z</time>
					</trkpt>
					<trkpt lat="49.094570" lon="2.503590">
						<ele>88</ele>
						<time>2024-05-30T14:22:05Z</time>
					</trkpt>
					<trkpt lat="49.094520" lon="2.503460">
						<ele>87</ele>
						<time>2024-05-30T14:22:07Z</time>
					</trkpt>
					<trkpt lat="49.094450" lon="2.503180">
						<ele>86</ele>
						<time>2024-05-30T14:22:10Z</time>
					</trkpt>
					<trkpt lat="49.094430" lon="2.502780">
						<ele>87</ele>
						<time>2024-05-30T14:22:15Z</time>
					</trkpt>
					<trkpt lat="49.094450" lon="2.502530">
						<ele>87</ele>
						<time>2024-05-30T14:22:18Z</time>
					</trkpt>
					<trkpt lat="49.094170" lon="2.500330">
						<ele>87</ele>
						<time>2024-05-30T14:22:44Z</time>
					</trkpt>
					<trkpt lat="49.094160" lon="2.499990">
						<ele>88</ele>
						<time>2024-05-30T14:22:48Z</time>
					</trkpt>
					<trkpt lat="49.094210" lon="2.498650">
						<ele>86</ele>
						<time>2024-05-30T14:23:03Z</time>
					</trkpt>
					<trkpt lat="49.094250" lon="2.497700">
						<ele>85</ele>
						<time>2024-05-30T14:23:15Z</time>
					</trkpt>
					<trkpt lat="49.094280" lon="2.497400">
						<ele>84</ele>
						<time>2024-05-30T14:23:18Z</time>
					</trkpt>
					<trkpt lat="49.094330" lon="2.497180">
						<ele>83</ele>
						<time>2024-05-30T14:23:21Z</time>
					</trkpt>
					<trkpt lat="49.094420" lon="2.496910">
						<ele>82</ele>
						<time>2024-05-30T14:23:24Z</time>
					</trkpt>
					<trkpt lat="49.095240" lon="2.494830">
						<ele>80</ele>
						<time>2024-05-30T14:23:53Z</time>
					</trkpt>
					<trkpt lat="49.095710" lon="2.493570">
						<ele>81</ele>
						<time>2024-05-30T14:24:09Z</time>
					</trkpt>
					<trkpt lat="49.095860" lon="2.492680">
						<ele>83</ele>
						<time>2024-05-30T14:24:20Z</time>
					</trkpt>
					<trkpt lat="49.095990" lon="2.491700">
						<ele>81</ele>
						<time>2024-05-30T14:24:32Z</time>
					</trkpt>
					<trkpt lat="49.096020" lon="2.491430">
						<ele>80</ele>
						<time>2024-05-30T14:24:35Z</time>
					</trkpt>
					<trkpt lat="49.096000" lon="2.490960">
						<ele>79</ele>
						<time>2024-05-30T14:24:41Z</time>
					</trkpt>
					<trkpt lat="49.095910" lon="2.490670">
						<ele>77</ele>
						<time>2024-05-30T14:24:44Z</time>
					</trkpt>
					<trkpt lat="49.095520" lon="2.489820">
						<ele>75</ele>
						<time>2024-05-30T14:24:56Z</time>
					</trkpt>
					<trkpt lat="49.095400" lon="2.489490">
						<ele>75</ele>
						<time>2024-05-30T14:25:01Z</time>
					</trkpt>
					<trkpt lat="49.095360" lon="2.489260">
						<ele>75</ele>
						<time>2024-05-30T14:25:04Z</time>
					</trkpt>
					<trkpt lat="49.095310" lon="2.488490">
						<ele>76</ele>
						<time>2024-05-30T14:25:13Z</time>
					</trkpt>
					<trkpt lat="49.095280" lon="2.487650">
						<ele>77</ele>
						<time>2024-05-30T14:25:22Z</time>
					</trkpt>
					<trkpt lat="49.095400" lon="2.487420">
						<ele>77</ele>
						<time>2024-05-30T14:25:26Z</time>
					</trkpt>
					<trkpt lat="49.095520" lon="2.487280">
						<ele>77</ele>
						<time>2024-05-30T14:25:28Z</time>
					</trkpt>
					<trkpt lat="49.095700" lon="2.486340">
						<ele>75</ele>
						<time>2024-05-30T14:25:40Z</time>
					</trkpt>
					<trkpt lat="49.095710" lon="2.484720">
						<ele>73</ele>
						<time>2024-05-30T14:25:59Z</time>
					</trkpt>
					<trkpt lat="49.095650" lon="2.483890">
						<ele>71</ele>
						<time>2024-05-30T14:26:08Z</time>
					</trkpt>
					<trkpt lat="49.095890" lon="2.482830">
						<ele>71</ele>
						<time>2024-05-30T14:26:22Z</time>
					</trkpt>
					<trkpt lat="49.096230" lon="2.480790">
						<ele>71</ele>
						<time>2024-05-30T14:26:46Z</time>
					</trkpt>
					<trkpt lat="49.096330" lon="2.480430">
						<ele>71</ele>
						<time>2024-05-30T14:26:51Z</time>
					</trkpt>
					<trkpt lat="49.096410" lon="2.480240">
						<ele>71</ele>
						<time>2024-05-30T14:26:53Z</time>
					</trkpt>
					<trkpt lat="49.096510" lon="2.480070">
						<ele>71</ele>
						<time>2024-05-30T14:26:56Z</time>
					</trkpt>
					<trkpt lat="49.096650" lon="2.479870">
						<ele>72</ele>
						<time>2024-05-30T14:26:59Z</time>
					</trkpt>
					<trkpt lat="49.096860" lon="2.479620">
						<ele>73</ele>
						<time>2024-05-30T14:27:04Z</time>
					</trkpt>
					<trkpt lat="49.097010" lon="2.479330">
						<ele>73</ele>
						<time>2024-05-30T14:27:08Z</time>
					</trkpt>
					<trkpt lat="49.097080" lon="2.479110">
						<ele>73</ele>
						<time>2024-05-30T14:27:11Z</time>
					</trkpt>
					<trkpt lat="49.097160" lon="2.478550">
						<ele>73</ele>
						<time>2024-05-30T14:27:18Z</time>
					</trkpt>
					<trkpt lat="49.097210" lon="2.477620">
						<ele>74</ele>
						<time>2024-05-30T14:27:29Z</time>
					</trkpt>
					<trkpt lat="49.097260" lon="2.476660">
						<ele>74</ele>
						<time>2024-05-30T14:27:40Z</time>
					</trkpt>
					<trkpt lat="49.097330" lon="2.474370">
						<ele>81</ele>
						<time>2024-05-30T14:28:07Z</time>
					</trkpt>
					<trkpt lat="49.097450" lon="2.472000">
						<ele>88</ele>
						<time>2024-05-30T14:28:34Z</time>
					</trkpt>
					<trkpt lat="49.097480" lon="2.471800">
						<ele>88</ele>
						<time>2024-05-30T14:28:37Z</time>
					</trkpt>
					<trkpt lat="49.097800" lon="2.470490">
						<ele>82</ele>
						<time>2024-05-30T14:28:53Z</time>
					</trkpt>
					<trkpt lat="49.097820" lon="2.470310">
						<ele>82</ele>
						<time>2024-05-30T14:28:55Z</time>
					</trkpt>
					<trkpt lat="49.097810" lon="2.470200">
						<ele>82</ele>
						<time>2024-05-30T14:28:56Z</time>
					</trkpt>
					<trkpt lat="49.097460" lon="2.468150">
						<ele>73</ele>
						<time>2024-05-30T14:29:21Z</time>
					</trkpt>
					<trkpt lat="49.097440" lon="2.467680">
						<ele>71</ele>
						<time>2024-05-30T14:29:27Z</time>
					</trkpt>
					<trkpt lat="49.097450" lon="2.467510">
						<ele>71</ele>
						<time>2024-05-30T14:29:29Z</time>
					</trkpt>
					<trkpt lat="49.097560" lon="2.467120">
						<ele>70</ele>
						<time>2024-05-30T14:29:34Z</time>
					</trkpt>
					<trkpt lat="49.097640" lon="2.466950">
						<ele>69</ele>
						<time>2024-05-30T14:29:36Z</time>
					</trkpt>
					<trkpt lat="49.097730" lon="2.466830">
						<ele>69</ele>
						<time>2024-05-30T14:29:38Z</time>
					</trkpt>
					<trkpt lat="49.098050" lon="2.466160">
						<ele>67</ele>
						<time>2024-05-30T14:29:48Z</time>
					</trkpt>
					<trkpt lat="49.098130" lon="2.466090">
						<ele>67</ele>
						<time>2024-05-30T14:29:49Z</time>
					</trkpt>
					<trkpt lat="49.098440" lon="2.465950">
						<ele>66</ele>
						<time>2024-05-30T14:29:55Z</time>
					</trkpt>
					<trkpt lat="49.098510" lon="2.465890">
						<ele>65</ele>
						<time>2024-05-30T14:29:57Z</time>
					</trkpt>
					<trkpt lat="49.098540" lon="2.465820">
						<ele>65</ele>
						<time>2024-05-30T14:29:58Z</time>
					</trkpt>
					<trkpt lat="49.098540" lon="2.465640">
						<ele>64</ele>
						<time>2024-05-30T14:30:00Z</time>
					</trkpt>
					<trkpt lat="49.098930" lon="2.463940">
						<ele>60</ele>
						<time>2024-05-30T14:30:21Z</time>
					</trkpt>
					<trkpt lat="49.099200" lon="2.462870">
						<ele>59</ele>
						<time>2024-05-30T14:30:34Z</time>
					</trkpt>
					<trkpt lat="49.099290" lon="2.462450">
						<ele>59</ele>
						<time>2024-05-30T14:30:39Z</time>
					</trkpt>
					<trkpt lat="49.099520" lon="2.460930">
						<ele>60</ele>
						<time>2024-05-30T14:30:57Z</time>
					</trkpt>
					<trkpt lat="49.099560" lon="2.460250">
						<ele>60</ele>
						<time>2024-05-30T14:31:05Z</time>
					</trkpt>
					<trkpt lat="49.099560" lon="2.459450">
						<ele>61</ele>
						<time>2024-05-30T14:31:15Z</time>
					</trkpt>
					<trkpt lat="49.099340" lon="2.452450">
						<ele>60</ele>
						<time>2024-05-30T14:32:36Z</time>
					</trkpt>
					<trkpt lat="49.099320" lon="2.451260">
						<ele>58</ele>
						<time>2024-05-30T14:32:50Z</time>
					</trkpt>
					<trkpt lat="49.099360" lon="2.450660">
						<ele>58</ele>
						<time>2024-05-30T14:32:57Z</time>
					</trkpt>
					<trkpt lat="49.099420" lon="2.450310">
						<ele>59</ele>
						<time>2024-05-30T14:33:01Z</time>
					</trkpt>
					<trkpt lat="49.099650" lon="2.448550">
						<ele>62</ele>
						<time>2024-05-30T14:33:22Z</time>
					</trkpt>
					<trkpt lat="49.099700" lon="2.448420">
						<ele>62</ele>
						<time>2024-05-30T14:33:24Z</time>
					</trkpt>
					<trkpt lat="49.099800" lon="2.448320">
						<ele>63</ele>
						<time>2024-05-30T14:33:26Z</time>
					</trkpt>
					<trkpt lat="49.099840" lon="2.448260">
						<ele>63</ele>
						<time>2024-05-30T14:33:27Z</time>
					</trkpt>
					<trkpt lat="49.099860" lon="2.448200">
						<ele>63</ele>
						<time>2024-05-30T14:33:28Z</time>
					</trkpt>
					<trkpt lat="49.099850" lon="2.448040">
						<ele>63</ele>
						<time>2024-05-30T14:33:30Z</time>
					</trkpt>
					<trkpt lat="49.099810" lon="2.447900">
						<ele>63</ele>
						<time>2024-05-30T14:33:32Z</time>
					</trkpt>
					<trkpt lat="49.099800" lon="2.447710">
						<ele>63</ele>
						<time>2024-05-30T14:33:34Z</time>
					</trkpt>
					<trkpt lat="49.099810" lon="2.447520">
						<ele>63</ele>
						<time>2024-05-30T14:33:36Z</time>
					</trkpt>
					<trkpt lat="49.100040" lon="2.446750">
						<ele>64</ele>
						<time>2024-05-30T14:33:46Z</time>
					</trkpt>
					<trkpt lat="49.100340" lon="2.445960">
						<ele>65</ele>
						<time>2024-05-30T14:33:57Z</time>
					</trkpt>
					<trkpt lat="49.100590" lon="2.445430">
						<ele>66</ele>
						<time>2024-05-30T14:34:04Z</time>
					</trkpt>
					<trkpt lat="49.101010" lon="2.444720">
						<ele>67</ele>
						<time>2024-05-30T14:34:15Z</time>
					</trkpt>
					<trkpt lat="49.101910" lon="2.443420">
						<ele>65</ele>
						<time>2024-05-30T14:34:37Z</time>
					</trkpt>
					<trkpt lat="49.102710" lon="2.442410">
						<ele>59</ele>
						<time>2024-05-30T14:34:56Z</time>
					</trkpt>
					<trkpt lat="49.102850" lon="2.442260">
						<ele>59</ele>
						<time>2024-05-30T14:34:59Z</time>
					</trkpt>
					<trkpt lat="49.102980" lon="2.442150">
						<ele>58</ele>
						<time>2024-05-30T14:35:02Z</time>
					</trkpt>
					<trkpt lat="49.103450" lon="2.441930">
						<ele>57</ele>
						<time>2024-05-30T14:35:10Z</time>
					</trkpt>
					<trkpt lat="49.104060" lon="2.441680">
						<ele>54</ele>
						<time>2024-05-30T14:35:21Z</time>
					</trkpt>
					<trkpt lat="49.106070" lon="2.440980">
						<ele>54</ele>
						<time>2024-05-30T14:35:58Z</time>
					</trkpt>
					<trkpt lat="49.106650" lon="2.440810">
						<ele>55</ele>
						<time>2024-05-30T14:36:09Z</time>
					</trkpt>
					<trkpt lat="49.107050" lon="2.440750">
						<ele>55</ele>
						<time>2024-05-30T14:36:16Z</time>
					</trkpt>
					<trkpt lat="49.107340" lon="2.440750">
						<ele>56</ele>
						<time>2024-05-30T14:36:21Z</time>
					</trkpt>
					<trkpt lat="49.107550" lon="2.440690">
						<ele>56</ele>
						<time>2024-05-30T14:36:25Z</time>
					</trkpt>
					<trkpt lat="49.107680" lon="2.440630">
						<ele>56</ele>
						<time>2024-05-30T14:36:27Z</time>
					</trkpt>
					<trkpt lat="49.107790" lon="2.440550">
						<ele>57</ele>
						<time>2024-05-30T14:36:29Z</time>
					</trkpt>
					<trkpt lat="49.107890" lon="2.440430">
						<ele>58</ele>
						<time>2024-05-30T14:36:32Z</time>
					</trkpt>
					<trkpt lat="49.107970" lon="2.440250">
						<ele>59</ele>
						<time>2024-05-30T14:36:34Z</time>
					</trkpt>
					<trkpt lat="49.108050" lon="2.439890">
						<ele>61</ele>
						<time>2024-05-30T14:36:39Z</time>
					</trkpt>
					<trkpt lat="49.108070" lon="2.439560">
						<ele>62</ele>
						<time>2024-05-30T14:36:42Z</time>
					</trkpt>
					<trkpt lat="49.108550" lon="2.435760">
						<ele>69</ele>
						<time>2024-05-30T14:37:28Z</time>
					</trkpt>
					<trkpt lat="49.108680" lon="2.435260">
						<ele>69</ele>
						<time>2024-05-30T14:37:34Z</time>
					</trkpt>
					<trkpt lat="49.110360" lon="2.431340">
						<ele>71</ele>
						<time>2024-05-30T14:38:28Z</time>
					</trkpt>
					<trkpt lat="49.110560" lon="2.430970">
						<ele>71</ele>
						<time>2024-05-30T14:38:34Z</time>
					</trkpt>
					<trkpt lat="49.110670" lon="2.430860">
						<ele>71</ele>
						<time>2024-05-30T14:38:36Z</time>
					</trkpt>
					<trkpt lat="49.110870" lon="2.430450">
						<ele>70</ele>
						<time>2024-05-30T14:38:42Z</time>
					</trkpt>
					<trkpt lat="49.110930" lon="2.430410">
						<ele>70</ele>
						<time>2024-05-30T14:38:43Z</time>
					</trkpt>
					<trkpt lat="49.110950" lon="2.430330">
						<ele>70</ele>
						<time>2024-05-30T14:38:44Z</time>
					</trkpt>
					<trkpt lat="49.110930" lon="2.430270">
						<ele>70</ele>
						<time>2024-05-30T14:38:45Z</time>
					</trkpt>
					<trkpt lat="49.110870" lon="2.430220">
						<ele>70</ele>
						<time>2024-05-30T14:38:46Z</time>
					</trkpt>
					<trkpt lat="49.110890" lon="2.430050">
						<ele>69</ele>
						<time>2024-05-30T14:38:48Z</time>
					</trkpt>
					<trkpt lat="49.111010" lon="2.429620">
						<ele>70</ele>
						<time>2024-05-30T14:38:54Z</time>
					</trkpt>
					<trkpt lat="49.111060" lon="2.429510">
						<ele>70</ele>
						<time>2024-05-30T14:38:55Z</time>
					</trkpt>
					<trkpt lat="49.111110" lon="2.429520">
						<ele>70</ele>
						<time>2024-05-30T14:38:56Z</time>
					</trkpt>
					<trkpt lat="49.111170" lon="2.429440">
						<ele>70</ele>
						<time>2024-05-30T14:38:58Z</time>
					</trkpt>
					<trkpt lat="49.111170" lon="2.429360">
						<ele>70</ele>
						<time>2024-05-30T14:38:59Z</time>
					</trkpt>
					<trkpt lat="49.111140" lon="2.429290">
						<ele>70</ele>
						<time>2024-05-30T14:39:00Z</time>
					</trkpt>
					<trkpt lat="49.111120" lon="2.429270">
						<ele>70</ele>
						<time>2024-05-30T14:39:00Z</time>
					</trkpt>
					<trkpt lat="49.111130" lon="2.429170">
						<ele>70</ele>
						<time>2024-05-30T14:39:01Z</time>
					</trkpt>
					<trkpt lat="49.111310" lon="2.428530">
						<ele>70</ele>
						<time>2024-05-30T14:39:09Z</time>
					</trkpt>
					<trkpt lat="49.111760" lon="2.427550">
						<ele>69</ele>
						<time>2024-05-30T14:39:23Z</time>
					</trkpt>
					<trkpt lat="49.112070" lon="2.427080">
						<ele>71</ele>
						<time>2024-05-30T14:39:31Z</time>
					</trkpt>
					<trkpt lat="49.112080" lon="2.427020">
						<ele>71</ele>
						<time>2024-05-30T14:39:32Z</time>
					</trkpt>
					<trkpt lat="49.112340" lon="2.426930">
						<ele>73</ele>
						<time>2024-05-30T14:39:37Z</time>
					</trkpt>
					<trkpt lat="49.112760" lon="2.426870">
						<ele>75</ele>
						<time>2024-05-30T14:39:44Z</time>
					</trkpt>
					<trkpt lat="49.113250" lon="2.426940">
						<ele>76</ele>
						<time>2024-05-30T14:39:53Z</time>
					</trkpt>
					<trkpt lat="49.113330" lon="2.426910">
						<ele>76</ele>
						<time>2024-05-30T14:39:54Z</time>
					</trkpt>
					<trkpt lat="49.113330" lon="2.424970">
						<ele>71</ele>
						<time>2024-05-30T14:40:17Z</time>
					</trkpt>
					<trkpt lat="49.113310" lon="2.424170">
						<ele>71</ele>
						<time>2024-05-30T14:40:26Z</time>
					</trkpt>
					<trkpt lat="49.113210" lon="2.423110">
						<ele>72</ele>
						<time>2024-05-30T14:40:39Z</time>
					</trkpt>
					<trkpt lat="49.113220" lon="2.422270">
						<ele>75</ele>
						<time>2024-05-30T14:40:48Z</time>
					</trkpt>
					<trkpt lat="49.112600" lon="2.422260">
						<ele>71</ele>
						<time>2024-05-30T14:40:59Z</time>
					</trkpt>
					<trkpt lat="49.112490" lon="2.422240">
						<ele>71</ele>
						<time>2024-05-30T14:41:01Z</time>
					</trkpt>
					<trkpt lat="49.112410" lon="2.422200">
						<ele>70</ele>
						<time>2024-05-30T14:41:03Z</time>
					</trkpt>
					<trkpt lat="49.112170" lon="2.422010">
						<ele>69</ele>
						<time>2024-05-30T14:41:08Z</time>
					</trkpt>
					<trkpt lat="49.112160" lon="2.421680">
						<ele>70</ele>
						<time>2024-05-30T14:41:12Z</time>
					</trkpt>
					<trkpt lat="49.112110" lon="2.421580">
						<ele>71</ele>
						<time>2024-05-30T14:41:13Z</time>
					</trkpt>
					<trkpt lat="49.111980" lon="2.421400">
						<ele>71</ele>
						<time>2024-05-30T14:41:16Z</time>
					</trkpt>
					<trkpt lat="49.111940" lon="2.421290">
						<ele>71</ele>
						<time>2024-05-30T14:41:18Z</time>
					</trkpt>
					<trkpt lat="49.111910" lon="2.421130">
						<ele>72</ele>
						<time>2024-05-30T14:41:20Z</time>
					</trkpt>
					<trkpt lat="49.111880" lon="2.420720">
						<ele>73</ele>
						<time>2024-05-30T14:41:24Z</time>
					</trkpt>
					<trkpt lat="49.111730" lon="2.420010">
						<ele>75</ele>
						<time>2024-05-30T14:41:33Z</time>
					</trkpt>
					<trkpt lat="49.111460" lon="2.419220">
						<ele>80</ele>
						<time>2024-05-30T14:41:43Z</time>
					</trkpt>
					<trkpt lat="49.111170" lon="2.418140">
						<ele>85</ele>
						<time>2024-05-30T14:41:57Z</time>
					</trkpt>
					<trkpt lat="49.111000" lon="2.417690">
						<ele>85</ele>
						<time>2024-05-30T14:42:03Z</time>
					</trkpt>
					<trkpt lat="49.110770" lon="2.417160">
						<ele>84</ele>
						<time>2024-05-30T14:42:11Z</time>
					</trkpt>
					<trkpt lat="49.110130" lon="2.416300">
						<ele>78</ele>
						<time>2024-05-30T14:42:26Z</time>
					</trkpt>
					<trkpt lat="49.109970" lon="2.415880">
						<ele>75</ele>
						<time>2024-05-30T14:42:31Z</time>
					</trkpt>
					<trkpt lat="49.109890" lon="2.415540">
						<ele>75</ele>
						<time>2024-05-30T14:42:36Z</time>
					</trkpt>
					<trkpt lat="49.109750" lon="2.414510">
						<ele>75</ele>
						<time>2024-05-30T14:42:48Z</time>
					</trkpt>
					<trkpt lat="49.109600" lon="2.413760">
						<ele>77</ele>
						<time>2024-05-30T14:42:57Z</time>
					</trkpt>
					<trkpt lat="49.109440" lon="2.413110">
						<ele>78</ele>
						<time>2024-05-30T14:43:05Z</time>
					</trkpt>
					<trkpt lat="49.109370" lon="2.412720">
						<ele>78</ele>
						<time>2024-05-30T14:43:10Z</time>
					</trkpt>
					<trkpt lat="49.109340" lon="2.412320">
						<ele>78</ele>
						<time>2024-05-30T14:43:14Z</time>
					</trkpt>
					<trkpt lat="49.109390" lon="2.411300">
						<ele>79</ele>
						<time>2024-05-30T14:43:26Z</time>
					</trkpt>
					<trkpt lat="49.109470" lon="2.410710">
						<ele>79</ele>
						<time>2024-05-30T14:43:33Z</time>
					</trkpt>
					<trkpt lat="49.109800" lon="2.409310">
						<ele>79</ele>
						<time>2024-05-30T14:43:51Z</time>
					</trkpt>
					<trkpt lat="49.110110" lon="2.407490">
						<ele>83</ele>
						<time>2024-05-30T14:44:13Z</time>
					</trkpt>
					<trkpt lat="49.110110" lon="2.406740">
						<ele>85</ele>
						<time>2024-05-30T14:44:21Z</time>
					</trkpt>
					<trkpt lat="49.110250" lon="2.405340">
						<ele>88</ele>
						<time>2024-05-30T14:44:38Z</time>
					</trkpt>
					<trkpt lat="49.110320" lon="2.404880">
						<ele>89</ele>
						<time>2024-05-30T14:44:43Z</time>
					</trkpt>
					<trkpt lat="49.110440" lon="2.404480">
						<ele>91</ele>
						<time>2024-05-30T14:44:48Z</time>
					</trkpt>
					<trkpt lat="49.110820" lon="2.403560">
						<ele>93</ele>
						<time>2024-05-30T14:45:01Z</time>
					</trkpt>
					<trkpt lat="49.111160" lon="2.402900">
						<ele>100</ele>
						<time>2024-05-30T14:45:11Z</time>
					</trkpt>
					<trkpt lat="49.111310" lon="2.402660">
						<ele>101</ele>
						<time>2024-05-30T14:45:15Z</time>
					</trkpt>
					<trkpt lat="49.111790" lon="2.401860">
						<ele>104</ele>
						<time>2024-05-30T14:45:27Z</time>
					</trkpt>
					<trkpt lat="49.112060" lon="2.401310">
						<ele>105</ele>
						<time>2024-05-30T14:45:35Z</time>
					</trkpt>
					<trkpt lat="49.112350" lon="2.400460">
						<ele>105</ele>
						<time>2024-05-30T14:45:47Z</time>
					</trkpt>
					<trkpt lat="49.112350" lon="2.399770">
						<ele>107</ele>
						<time>2024-05-30T14:45:55Z</time>
					</trkpt>
					<trkpt lat="49.112290" lon="2.399010">
						<ele>108</ele>
						<time>2024-05-30T14:46:04Z</time>
					</trkpt>
					<trkpt lat="49.111820" lon="2.396560">
						<ele>110</ele>
						<time>2024-05-30T14:46:33Z</time>
					</trkpt>
					<trkpt lat="49.111740" lon="2.396240">
						<ele>110</ele>
						<time>2024-05-30T14:46:37Z</time>
					</trkpt>
					<trkpt lat="49.111540" lon="2.395530">
						<ele>112</ele>
						<time>2024-05-30T14:46:46Z</time>
					</trkpt>
					<trkpt lat="49.111400" lon="2.395130">
						<ele>113</ele>
						<time>2024-05-30T14:46:52Z</time>
					</trkpt>
					<trkpt lat="49.111370" lon="2.394810">
						<ele>113</ele>
						<time>2024-05-30T14:46:55Z</time>
					</trkpt>
					<trkpt lat="49.111430" lon="2.394050">
						<ele>113</ele>
						<time>2024-05-30T14:47:04Z</time>
					</trkpt>
					<trkpt lat="49.111500" lon="2.393950">
						<ele>113</ele>
						<time>2024-05-30T14:47:06Z</time>
					</trkpt>
					<trkpt lat="49.111570" lon="2.393940">
						<ele>113</ele>
						<time>2024-05-30T14:47:07Z</time>
					</trkpt>
					<trkpt lat="49.111720" lon="2.393920">
						<ele>112</ele>
						<time>2024-05-30T14:47:10Z</time>
					</trkpt>
					<trkpt lat="49.111800" lon="2.393820">
						<ele>113</ele>
						<time>2024-05-30T14:47:12Z</time>
					</trkpt>
					<trkpt lat="49.111940" lon="2.393750">
						<ele>113</ele>
						<time>2024-05-30T14:47:14Z</time>
					</trkpt>
					<trkpt lat="49.112340" lon="2.393860">
						<ele>115</ele>
						<time>2024-05-30T14:47:22Z</time>
					</trkpt>
					<trkpt lat="49.112470" lon="2.393860">
						<ele>116</ele>
						<time>2024-05-30T14:47:24Z</time>
					</trkpt>
					<trkpt lat="49.112640" lon="2.393800">
						<ele>117</ele>
						<time>2024-05-30T14:47:27Z</time>
					</trkpt>
					<trkpt lat="49.112710" lon="2.393730">
						<ele>118</ele>
						<time>2024-05-30T14:47:28Z</time>
					</trkpt>
					<trkpt lat="49.112760" lon="2.393600">
						<ele>119</ele>
						<time>2024-05-30T14:47:30Z</time>
					</trkpt>
					<trkpt lat="49.112800" lon="2.393360">
						<ele>120</ele>
						<time>2024-05-30T14:47:33Z</time>
					</trkpt>
					<trkpt lat="49.112800" lon="2.393230">
						<ele>121</ele>
						<time>2024-05-30T14:47:35Z</time>
					</trkpt>
					<trkpt lat="49.112780" lon="2.393040">
						<ele>122</ele>
						<time>2024-05-30T14:47:37Z</time>
					</trkpt>
					<trkpt lat="49.112720" lon="2.392850">
						<ele>123</ele>
						<time>2024-05-30T14:47:39Z</time>
					</trkpt>
					<trkpt lat="49.112620" lon="2.392720">
						<ele>123</ele>
						<time>2024-05-30T14:47:42Z</time>
					</trkpt>
					<trkpt lat="49.112370" lon="2.392510">
						<ele>122</ele>
						<time>2024-05-30T14:47:47Z</time>
					</trkpt>
					<trkpt lat="49.112230" lon="2.392380">
						<ele>121</ele>
						<time>2024-05-30T14:47:50Z</time>
					</trkpt>
					<trkpt lat="49.112080" lon="2.392090">
						<ele>121</ele>
						<time>2024-05-30T14:47:54Z</time>
					</trkpt>
					<trkpt lat="49.112010" lon="2.391860">
						<ele>122</ele>
						<time>2024-05-30T14:47:57Z</time>
					</trkpt>
					<trkpt lat="49.111870" lon="2.390810">
						<ele>125</ele>
						<time>2024-05-30T14:48:09Z</time>
					</trkpt>
					<trkpt lat="49.111820" lon="2.390420">
						<ele>125</ele>
						<time>2024-05-30T14:48:14Z</time>
					</trkpt>
					<trkpt lat="49.111630" lon="2.389170">
						<ele>130</ele>
						<time>2024-05-30T14:48:29Z</time>
					</trkpt>
					<trkpt lat="49.111380" lon="2.387790">
						<ele>132</ele>
						<time>2024-05-30T14:48:46Z</time>
					</trkpt>
					<trkpt lat="49.111150" lon="2.386640">
						<ele>135</ele>
						<time>2024-05-30T14:49:00Z</time>
					</trkpt>
					<trkpt lat="49.110790" lon="2.385170">
						<ele>136</ele>
						<time>2024-05-30T14:49:18Z</time>
					</trkpt>
					<trkpt lat="49.110120" lon="2.382840">
						<ele>136</ele>
						<time>2024-05-30T14:49:48Z</time>
					</trkpt>
					<trkpt lat="49.109450" lon="2.380350">
						<ele>140</ele>
						<time>2024-05-30T14:50:19Z</time>
					</trkpt>
					<trkpt lat="49.108700" lon="2.377910">
						<ele>140</ele>
						<time>2024-05-30T14:50:50Z</time>
					</trkpt>
					<trkpt lat="49.106840" lon="2.371480">
						<ele>150</ele>
						<time>2024-05-30T14:52:12Z</time>
					</trkpt>
					<trkpt lat="49.105940" lon="2.368450">
						<ele>149</ele>
						<time>2024-05-30T14:52:51Z</time>
					</trkpt>
					<trkpt lat="49.105640" lon="2.367670">
						<ele>147</ele>
						<time>2024-05-30T14:53:02Z</time>
					</trkpt>
					<trkpt lat="49.105370" lon="2.366910">
						<ele>146</ele>
						<time>2024-05-30T14:53:12Z</time>
					</trkpt>
					<trkpt lat="49.105320" lon="2.366750">
						<ele>146</ele>
						<time>2024-05-30T14:53:14Z</time>
					</trkpt>
					<trkpt lat="49.105310" lon="2.366580">
						<ele>146</ele>
						<time>2024-05-30T14:53:16Z</time>
					</trkpt>
					<trkpt lat="49.105350" lon="2.366430">
						<ele>147</ele>
						<time>2024-05-30T14:53:18Z</time>
					</trkpt>
					<trkpt lat="49.105350" lon="2.366320">
						<ele>147</ele>
						<time>2024-05-30T14:53:19Z</time>
					</trkpt>
					<trkpt lat="49.105330" lon="2.366210">
						<ele>147</ele>
						<time>2024-05-30T14:53:20Z</time>
					</trkpt>
					<trkpt lat="49.105290" lon="2.366110">
						<ele>147</ele>
						<time>2024-05-30T14:53:21Z</time>
					</trkpt>
					<trkpt lat="49.105230" lon="2.366020">
						<ele>147</ele>
						<time>2024-05-30T14:53:23Z</time>
					</trkpt>
					<trkpt lat="49.105170" lon="2.365970">
						<ele>147</ele>
						<time>2024-05-30T14:53:24Z</time>
					</trkpt>
					<trkpt lat="49.105030" lon="2.365960">
						<ele>148</ele>
						<time>2024-05-30T14:53:27Z</time>
					</trkpt>
					<trkpt lat="49.104930" lon="2.366020">
						<ele>148</ele>
						<time>2024-05-30T14:53:29Z</time>
					</trkpt>
					<trkpt lat="49.104820" lon="2.366040">
						<ele>148</ele>
						<time>2024-05-30T14:53:31Z</time>
					</trkpt>
					<trkpt lat="49.104720" lon="2.365990">
						<ele>148</ele>
						<time>2024-05-30T14:53:32Z</time>
					</trkpt>
					<trkpt lat="49.103800" lon="2.365260">
						<ele>148</ele>
						<time>2024-05-30T14:53:51Z</time>
					</trkpt>
					<trkpt lat="49.103250" lon="2.364930">
						<ele>148</ele>
						<time>2024-05-30T14:54:01Z</time>
					</trkpt>
					<trkpt lat="49.102880" lon="2.364700">
						<ele>146</ele>
						<time>2024-05-30T14:54:09Z</time>
					</trkpt>
					<trkpt lat="49.101570" lon="2.364090">
						<ele>143</ele>
						<time>2024-05-30T14:54:33Z</time>
					</trkpt>
					<trkpt lat="49.101660" lon="2.363740">
						<ele>144</ele>
						<time>2024-05-30T14:54:37Z</time>
					</trkpt>
					<trkpt lat="49.101750" lon="2.363440">
						<ele>144</ele>
						<time>2024-05-30T14:54:41Z</time>
					</trkpt>
					<trkpt lat="49.101770" lon="2.363220">
						<ele>145</ele>
						<time>2024-05-30T14:54:44Z</time>
					</trkpt>
					<trkpt lat="49.101760" lon="2.363080">
						<ele>145</ele>
						<time>2024-05-30T14:54:45Z</time>
					</trkpt>
					<trkpt lat="49.101460" lon="2.361710">
						<ele>146</ele>
						<time>2024-05-30T14:55:02Z</time>
					</trkpt>
					<trkpt lat="49.101410" lon="2.361290">
						<ele>146</ele>
						<time>2024-05-30T14:55:07Z</time>
					</trkpt>
					<trkpt lat="49.101420" lon="2.361110">
						<ele>146</ele>
						<time>2024-05-30T14:55:09Z</time>
					</trkpt>
					<trkpt lat="49.101470" lon="2.360920">
						<ele>146</ele>
						<time>2024-05-30T14:55:12Z</time>
					</trkpt>
					<trkpt lat="49.102880" lon="2.357280">
						<ele>154</ele>
						<time>2024-05-30T14:56:01Z</time>
					</trkpt>
					<trkpt lat="49.103150" lon="2.356570">
						<ele>156</ele>
						<time>2024-05-30T14:56:10Z</time>
					</trkpt>
					<trkpt lat="49.103870" lon="2.354410">
						<ele>168</ele>
						<time>2024-05-30T14:56:39Z</time>
					</trkpt>
					<trkpt lat="49.104100" lon="2.353800">
						<ele>168</ele>
						<time>2024-05-30T14:56:47Z</time>
					</trkpt>
					<trkpt lat="49.104270" lon="2.353550">
						<ele>170</ele>
						<time>2024-05-30T14:56:51Z</time>
					</trkpt>
					<trkpt lat="49.105200" lon="2.352420">
						<ele>180</ele>
						<time>2024-05-30T14:57:12Z</time>
					</trkpt>
					<trkpt lat="49.105840" lon="2.351520">
						<ele>184</ele>
						<time>2024-05-30T14:57:28Z</time>
					</trkpt>
					<trkpt lat="49.106030" lon="2.351290">
						<ele>184</ele>
						<time>2024-05-30T14:57:32Z</time>
					</trkpt>
					<trkpt lat="49.106560" lon="2.350880">
						<ele>185</ele>
						<time>2024-05-30T14:57:43Z</time>
					</trkpt>
					<trkpt lat="49.106660" lon="2.350840">
						<ele>185</ele>
						<time>2024-05-30T14:57:44Z</time>
					</trkpt>
					<trkpt lat="49.106870" lon="2.350650">
						<ele>184</ele>
						<time>2024-05-30T14:57:49Z</time>
					</trkpt>
					<trkpt lat="49.107110" lon="2.350370">
						<ele>183</ele>
						<time>2024-05-30T14:57:54Z</time>
					</trkpt>
					<trkpt lat="49.107280" lon="2.350110">
						<ele>182</ele>
						<time>2024-05-30T14:57:58Z</time>
					</trkpt>
					<trkpt lat="49.107510" lon="2.349690">
						<ele>182</ele>
						<time>2024-05-30T14:58:05Z</time>
					</trkpt>
					<trkpt lat="49.108110" lon="2.348480">
						<ele>182</ele>
						<time>2024-05-30T14:58:22Z</time>
					</trkpt>
					<trkpt lat="49.108250" lon="2.348220">
						<ele>182</ele>
						<time>2024-05-30T14:58:26Z</time>
					</trkpt>
					<trkpt lat="49.108260" lon="2.348140">
						<ele>182</ele>
						<time>2024-05-30T14:58:27Z</time>
					</trkpt>
					<trkpt lat="49.108360" lon="2.347970">
						<ele>182</ele>
						<time>2024-05-30T14:58:30Z</time>
					</trkpt>
					<trkpt lat="49.108460" lon="2.347840">
						<ele>183</ele>
						<time>2024-05-30T14:58:32Z</time>
					</trkpt>
					<trkpt lat="49.108620" lon="2.347550">
						<ele>184</ele>
						<time>2024-05-30T14:58:37Z</time>
					</trkpt>
					<trkpt lat="49.108730" lon="2.347290">
						<ele>186</ele>
						<time>2024-05-30T14:58:40Z</time>
					</trkpt>
					<trkpt lat="49.108990" lon="2.346490">
						<ele>190</ele>
						<time>2024-05-30T14:58:51Z</time>
					</trkpt>
					<trkpt lat="49.109460" lon="2.344550">
						<ele>197</ele>
						<time>2024-05-30T14:59:15Z</time>
					</trkpt>
					<trkpt lat="49.109600" lon="2.344060">
						<ele>197</ele>
						<time>2024-05-30T14:59:21Z</time>
					</trkpt>
					<trkpt lat="49.109710" lon="2.343810">
						<ele>198</ele>
						<time>2024-05-30T14:59:25Z</time>
					</trkpt>
					<trkpt lat="49.109850" lon="2.343560">
						<ele>198</ele>
						<time>2024-05-30T14:59:28Z</time>
					</trkpt>
					<trkpt lat="49.109910" lon="2.343570">
						<ele>199</ele>
						<time>2024-05-30T14:59:30Z</time>
					</trkpt>
					<trkpt lat="49.109950" lon="2.343530">
						<ele>199</ele>
						<time>2024-05-30T14:59:30Z</time>
					</trkpt>
					<trkpt lat="49.109970" lon="2.343450">
						<ele>199</ele>
						<time>2024-05-30T14:59:31Z</time>
					</trkpt>
					<trkpt lat="49.109940" lon="2.343370">
						<ele>199</ele>
						<time>2024-05-30T14:59:32Z</time>
					</trkpt>
					<trkpt lat="49.109970" lon="2.343320">
						<ele>199</ele>
						<time>2024-05-30T14:59:33Z</time>
					</trkpt>
					<trkpt lat="49.110930" lon="2.341280">
						<ele>209</ele>
						<time>2024-05-30T15:00:03Z</time>
					</trkpt>
					<trkpt lat="49.113530" lon="2.335530">
						<ele>211</ele>
						<time>2024-05-30T15:01:24Z</time>
					</trkpt>
					<trkpt lat="49.113630" lon="2.335370">
						<ele>210</ele>
						<time>2024-05-30T15:01:26Z</time>
					</trkpt>
					<trkpt lat="49.113790" lon="2.335170">
						<ele>209</ele>
						<time>2024-05-30T15:01:30Z</time>
					</trkpt>
					<trkpt lat="49.116270" lon="2.333170">
						<ele>210</ele>
						<time>2024-05-30T15:02:20Z</time>
					</trkpt>
					<trkpt lat="49.116470" lon="2.333030">
						<ele>210</ele>
						<time>2024-05-30T15:02:24Z</time>
					</trkpt>
					<trkpt lat="49.116670" lon="2.332950">
						<ele>210</ele>
						<time>2024-05-30T15:02:28Z</time>
					</trkpt>
					<trkpt lat="49.116740" lon="2.332940">
						<ele>210</ele>
						<time>2024-05-30T15:02:29Z</time>
					</trkpt>
					<trkpt lat="49.117130" lon="2.332960">
						<ele>210</ele>
						<time>2024-05-30T15:02:36Z</time>
					</trkpt>
					<trkpt lat="49.117910" lon="2.333120">
						<ele>210</ele>
						<time>2024-05-30T15:02:50Z</time>
					</trkpt>
					<trkpt lat="49.119190" lon="2.333590">
						<ele>216</ele>
						<time>2024-05-30T15:03:13Z</time>
					</trkpt>
					<trkpt lat="49.119350" lon="2.333580">
						<ele>216</ele>
						<time>2024-05-30T15:03:16Z</time>
					</trkpt>
					<trkpt lat="49.119480" lon="2.333510">
						<ele>216</ele>
						<time>2024-05-30T15:03:19Z</time>
					</trkpt>
					<trkpt lat="49.119520" lon="2.333450">
						<ele>216</ele>
						<time>2024-05-30T15:03:20Z</time>
					</trkpt>
					<trkpt lat="49.119610" lon="2.333230">
						<ele>215</ele>
						<time>2024-05-30T15:03:23Z</time>
					</trkpt>
					<trkpt lat="49.119780" lon="2.332570">
						<ele>211</ele>
						<time>2024-05-30T15:03:31Z</time>
					</trkpt>
					<trkpt lat="49.120060" lon="2.331940">
						<ele>210</ele>
						<time>2024-05-30T15:03:40Z</time>
					</trkpt>
					<trkpt lat="49.120180" lon="2.331600">
						<ele>210</ele>
						<time>2024-05-30T15:03:44Z</time>
					</trkpt>
					<trkpt lat="49.120250" lon="2.330960">
						<ele>210</ele>
						<time>2024-05-30T15:03:52Z</time>
					</trkpt>
					<trkpt lat="49.120290" lon="2.330720">
						<ele>211</ele>
						<time>2024-05-30T15:03:55Z</time>
					</trkpt>
					<trkpt lat="49.120380" lon="2.330390">
						<ele>211</ele>
						<time>2024-05-30T15:03:59Z</time>
					</trkpt>
					<trkpt lat="49.121090" lon="2.328850">
						<ele>213</ele>
						<time>2024-05-30T15:04:21Z</time>
					</trkpt>
					<trkpt lat="49.121550" lon="2.327410">
						<ele>213</ele>
						<time>2024-05-30T15:04:39Z</time>
					</trkpt>
					<trkpt lat="49.122110" lon="2.325740">
						<ele>214</ele>
						<time>2024-05-30T15:05:01Z</time>
					</trkpt>
					<trkpt lat="49.122180" lon="2.325480">
						<ele>213</ele>
						<time>2024-05-30T15:05:05Z</time>
					</trkpt>
					<trkpt lat="49.122220" lon="2.325220">
						<ele>213</ele>
						<time>2024-05-30T15:05:08Z</time>
					</trkpt>
					<trkpt lat="49.122280" lon="2.324220">
						<ele>213</ele>
						<time>2024-05-30T15:05:19Z</time>
					</trkpt>
					<trkpt lat="49.122270" lon="2.323940">
						<ele>213</ele>
						<time>2024-05-30T15:05:23Z</time>
					</trkpt>
					<trkpt lat="49.122110" lon="2.323060">
						<ele>211</ele>
						<time>2024-05-30T15:05:33Z</time>
					</trkpt>
					<trkpt lat="49.122100" lon="2.322800">
						<ele>211</ele>
						<time>2024-05-30T15:05:36Z</time>
					</trkpt>
					<trkpt lat="49.122100" lon="2.322610">
						<ele>210</ele>
						<time>2024-05-30T15:05:38Z</time>
					</trkpt>
					<trkpt lat="49.122280" lon="2.320950">
						<ele>206</ele>
						<time>2024-05-30T15:05:58Z</time>
					</trkpt>
					<trkpt lat="49.122300" lon="2.320420">
						<ele>206</ele>
						<time>2024-05-30T15:06:04Z</time>
					</trkpt>
					<trkpt lat="49.122290" lon="2.320160">
						<ele>206</ele>
						<time>2024-05-30T15:06:07Z</time>
					</trkpt>
					<trkpt lat="49.122140" lon="2.319500">
						<ele>204</ele>
						<time>2024-05-30T15:06:15Z</time>
					</trkpt>
					<trkpt lat="49.121780" lon="2.318280">
						<ele>200</ele>
						<time>2024-05-30T15:06:31Z</time>
					</trkpt>
					<trkpt lat="49.121690" lon="2.318040">
						<ele>199</ele>
						<time>2024-05-30T15:06:34Z</time>
					</trkpt>
					<trkpt lat="49.121500" lon="2.317660">
						<ele>198</ele>
						<time>2024-05-30T15:06:40Z</time>
					</trkpt>
					<trkpt lat="49.121160" lon="2.317100">
						<ele>195</ele>
						<time>2024-05-30T15:06:49Z</time>
					</trkpt>
					<trkpt lat="49.120470" lon="2.315550">
						<ele>191</ele>
						<time>2024-05-30T15:07:11Z</time>
					</trkpt>
					<trkpt lat="49.120410" lon="2.315790">
						<ele>190</ele>
						<time>2024-05-30T15:07:14Z</time>
					</trkpt>
					<trkpt lat="49.120310" lon="2.315910">
						<ele>189</ele>
						<time>2024-05-30T15:07:16Z</time>
					</trkpt>
					<trkpt lat="49.117610" lon="2.318670">
						<ele>164</ele>
						<time>2024-05-30T15:08:14Z</time>
					</trkpt>
					<trkpt lat="49.117550" lon="2.318650">
						<ele>164</ele>
						<time>2024-05-30T15:08:15Z</time>
					</trkpt>
					<trkpt lat="49.117530" lon="2.318660">
						<ele>164</ele>
						<time>2024-05-30T15:08:15Z</time>
					</trkpt>
					<trkpt lat="49.117500" lon="2.318750">
						<ele>164</ele>
						<time>2024-05-30T15:08:16Z</time>
					</trkpt>
					<trkpt lat="49.117500" lon="2.318780">
						<ele>164</ele>
						<time>2024-05-30T15:08:17Z</time>
					</trkpt>
					<trkpt lat="49.113980" lon="2.322470">
						<ele>159</ele>
						<time>2024-05-30T15:09:33Z</time>
					</trkpt>
					<trkpt lat="49.112070" lon="2.324300">
						<ele>156</ele>
						<time>2024-05-30T15:10:13Z</time>
					</trkpt>
					<trkpt lat="49.109230" lon="2.318880">
						<ele>146</ele>
						<time>2024-05-30T15:11:34Z</time>
					</trkpt>
					<trkpt lat="49.106680" lon="2.314060">
						<ele>126</ele>
						<time>2024-05-30T15:12:46Z</time>
					</trkpt>
					<trkpt lat="49.105640" lon="2.312200">
						<ele>111</ele>
						<time>2024-05-30T15:13:14Z</time>
					</trkpt>
					<trkpt lat="49.105060" lon="2.311070">
						<ele>102</ele>
						<time>2024-05-30T15:13:31Z</time>
					</trkpt>
					<trkpt lat="49.104570" lon="2.310360">
						<ele>93</ele>
						<time>2024-05-30T15:13:43Z</time>
					</trkpt>
					<trkpt lat="49.104050" lon="2.309940">
						<ele>86</ele>
						<time>2024-05-30T15:13:53Z</time>
					</trkpt>
					<trkpt lat="49.103200" lon="2.309520">
						<ele>80</ele>
						<time>2024-05-30T15:14:09Z</time>
					</trkpt>
					<trkpt lat="49.102470" lon="2.308790">
						<ele>69</ele>
						<time>2024-05-30T15:14:25Z</time>
					</trkpt>
					<trkpt lat="49.102360" lon="2.308710">
						<ele>67</ele>
						<time>2024-05-30T15:14:27Z</time>
					</trkpt>
					<trkpt lat="49.101570" lon="2.307660">
						<ele>58</ele>
						<time>2024-05-30T15:14:46Z</time>
					</trkpt>
					<trkpt lat="49.100490" lon="2.306300">
						<ele>62</ele>
						<time>2024-05-30T15:15:11Z</time>
					</trkpt>
					<trkpt lat="49.100370" lon="2.306070">
						<ele>64</ele>
						<time>2024-05-30T15:15:14Z</time>
					</trkpt>
					<trkpt lat="49.100360" lon="2.306010">
						<ele>64</ele>
						<time>2024-05-30T15:15:15Z</time>
					</trkpt>
					<trkpt lat="49.100390" lon="2.305870">
						<ele>64</ele>
						<time>2024-05-30T15:15:16Z</time>
					</trkpt>
					<trkpt lat="49.100500" lon="2.305710">
						<ele>64</ele>
						<time>2024-05-30T15:15:19Z</time>
					</trkpt>
					<trkpt lat="49.100580" lon="2.305530">
						<ele>66</ele>
						<time>2024-05-30T15:15:22Z</time>
					</trkpt>
					<trkpt lat="49.100580" lon="2.305450">
						<ele>67</ele>
						<time>2024-05-30T15:15:23Z</time>
					</trkpt>
					<trkpt lat="49.100550" lon="2.305390">
						<ele>68</ele>
						<time>2024-05-30T15:15:23Z</time>
					</trkpt>
					<trkpt lat="49.101130" lon="2.304700">
						<ele>70</ele>
						<time>2024-05-30T15:15:37Z</time>
					</trkpt>
					<trkpt lat="49.101510" lon="2.304290">
						<ele>69</ele>
						<time>2024-05-30T15:15:45Z</time>
					</trkpt>
					<trkpt lat="49.101920" lon="2.303810">
						<ele>68</ele>
						<time>2024-05-30T15:15:54Z</time>
					</trkpt>
					<trkpt lat="49.102090" lon="2.303570">
						<ele>67</ele>
						<time>2024-05-30T15:15:58Z</time>
					</trkpt>
					<trkpt lat="49.102200" lon="2.303360">
						<ele>66</ele>
						<time>2024-05-30T15:16:01Z</time>
					</trkpt>
					<trkpt lat="49.102310" lon="2.303080">
						<ele>65</ele>
						<time>2024-05-30T15:16:05Z</time>
					</trkpt>
					<trkpt lat="49.102510" lon="2.302410">
						<ele>65</ele>
						<time>2024-05-30T15:16:14Z</time>
					</trkpt>
					<trkpt lat="49.103580" lon="2.298960">
						<ele>64</ele>
						<time>2024-05-30T15:16:58Z</time>
					</trkpt>
					<trkpt lat="49.104010" lon="2.297860">
						<ele>63</ele>
						<time>2024-05-30T15:17:13Z</time>
					</trkpt>
					<trkpt lat="49.104160" lon="2.297590">
						<ele>63</ele>
						<time>2024-05-30T15:17:17Z</time>
					</trkpt>
					<trkpt lat="49.104500" lon="2.297080">
						<ele>66</ele>
						<time>2024-05-30T15:17:26Z</time>
					</trkpt>
					<trkpt lat="49.104800" lon="2.296720">
						<ele>66</ele>
						<time>2024-05-30T15:17:32Z</time>
					</trkpt>
					<trkpt lat="49.105700" lon="2.295740">
						<ele>66</ele>
						<time>2024-05-30T15:17:52Z</time>
					</trkpt>
					<trkpt lat="49.105890" lon="2.295490">
						<ele>64</ele>
						<time>2024-05-30T15:17:57Z</time>
					</trkpt>
					<trkpt lat="49.106050" lon="2.295160">
						<ele>64</ele>
						<time>2024-05-30T15:18:01Z</time>
					</trkpt>
					<trkpt lat="49.106090" lon="2.294950">
						<ele>64</ele>
						<time>2024-05-30T15:18:04Z</time>
					</trkpt>
					<trkpt lat="49.106110" lon="2.294660">
						<ele>63</ele>
						<time>2024-05-30T15:18:07Z</time>
					</trkpt>
					<trkpt lat="49.106100" lon="2.294420">
						<ele>62</ele>
						<time>2024-05-30T15:18:10Z</time>
					</trkpt>
					<trkpt lat="49.106040" lon="2.294110">
						<ele>61</ele>
						<time>2024-05-30T15:18:14Z</time>
					</trkpt>
					<trkpt lat="49.105770" lon="2.293160">
						<ele>60</ele>
						<time>2024-05-30T15:18:26Z</time>
					</trkpt>
					<trkpt lat="49.105630" lon="2.293160">
						<ele>60</ele>
						<time>2024-05-30T15:18:28Z</time>
					</trkpt>
					<trkpt lat="49.105540" lon="2.293110">
						<ele>60</ele>
						<time>2024-05-30T15:18:30Z</time>
					</trkpt>
					<trkpt lat="49.105000" lon="2.292240">
						<ele>58</ele>
						<time>2024-05-30T15:18:44Z</time>
					</trkpt>
					<trkpt lat="49.104710" lon="2.291810">
						<ele>58</ele>
						<time>2024-05-30T15:18:51Z</time>
					</trkpt>
					<trkpt lat="49.104550" lon="2.291540">
						<ele>58</ele>
						<time>2024-05-30T15:18:55Z</time>
					</trkpt>
					<trkpt lat="49.104480" lon="2.291390">
						<ele>58</ele>
						<time>2024-05-30T15:18:58Z</time>
					</trkpt>
					<trkpt lat="49.104340" lon="2.290930">
						<ele>58</ele>
						<time>2024-05-30T15:19:04Z</time>
					</trkpt>
					<trkpt lat="49.102290" lon="2.282980">
						<ele>78</ele>
						<time>2024-05-30T15:20:43Z</time>
					</trkpt>
					<trkpt lat="49.101760" lon="2.280990">
						<ele>86</ele>
						<time>2024-05-30T15:21:08Z</time>
					</trkpt>
					<trkpt lat="49.101520" lon="2.278130">
						<ele>90</ele>
						<time>2024-05-30T15:21:42Z</time>
					</trkpt>
					<trkpt lat="49.101470" lon="2.277130">
						<ele>91</ele>
						<time>2024-05-30T15:21:53Z</time>
					</trkpt>
					<trkpt lat="49.101480" lon="2.277020">
						<ele>91</ele>
						<time>2024-05-30T15:21:55Z</time>
					</trkpt>
					<trkpt lat="49.101500" lon="2.276930">
						<ele>91</ele>
						<time>2024-05-30T15:21:56Z</time>
					</trkpt>
					<trkpt lat="49.101700" lon="2.276530">
						<ele>92</ele>
						<time>2024-05-30T15:22:02Z</time>
					</trkpt>
					<trkpt lat="49.101730" lon="2.276380">
						<ele>92</ele>
						<time>2024-05-30T15:22:03Z</time>
					</trkpt>
					<trkpt lat="49.101740" lon="2.276290">
						<ele>92</ele>
						<time>2024-05-30T15:22:05Z</time>
					</trkpt>
					<trkpt lat="49.101720" lon="2.276070">
						<ele>92</ele>
						<time>2024-05-30T15:22:07Z</time>
					</trkpt>
					<trkpt lat="49.101670" lon="2.275910">
						<ele>92</ele>
						<time>2024-05-30T15:22:09Z</time>
					</trkpt>
					<trkpt lat="49.101540" lon="2.275750">
						<ele>92</ele>
						<time>2024-05-30T15:22:12Z</time>
					</trkpt>
					<trkpt lat="49.101090" lon="2.275400">
						<ele>92</ele>
						<time>2024-05-30T15:22:21Z</time>
					</trkpt>
					<trkpt lat="49.100620" lon="2.274980">
						<ele>92</ele>
						<time>2024-05-30T15:22:31Z</time>
					</trkpt>
					<trkpt lat="49.099970" lon="2.274440">
						<ele>94</ele>
						<time>2024-05-30T15:22:44Z</time>
					</trkpt>
					<trkpt lat="49.098850" lon="2.273530">
						<ele>97</ele>
						<time>2024-05-30T15:23:07Z</time>
					</trkpt>
					<trkpt lat="49.098780" lon="2.273490">
						<ele>97</ele>
						<time>2024-05-30T15:23:08Z</time>
					</trkpt>
					<trkpt lat="49.098650" lon="2.273250">
						<ele>99</ele>
						<time>2024-05-30T15:23:12Z</time>
					</trkpt>
					<trkpt lat="49.098620" lon="2.273210">
						<ele>99</ele>
						<time>2024-05-30T15:23:12Z</time>
					</trkpt>
					<trkpt lat="49.098570" lon="2.273200">
						<ele>100</ele>
						<time>2024-05-30T15:23:13Z</time>
					</trkpt>
					<trkpt lat="49.098350" lon="2.273410">
						<ele>100</ele>
						<time>2024-05-30T15:23:18Z</time>
					</trkpt>
					<trkpt lat="49.098210" lon="2.273730">
						<ele>99</ele>
						<time>2024-05-30T15:23:22Z</time>
					</trkpt>
					<trkpt lat="49.098070" lon="2.273970">
						<ele>99</ele>
						<time>2024-05-30T15:23:26Z</time>
					</trkpt>
					<trkpt lat="49.097320" lon="2.274610">
						<ele>99</ele>
						<time>2024-05-30T15:23:41Z</time>
					</trkpt>
					<trkpt lat="49.097040" lon="2.274800">
						<ele>99</ele>
						<time>2024-05-30T15:23:47Z</time>
					</trkpt>
					<trkpt lat="49.096470" lon="2.275260">
						<ele>96</ele>
						<time>2024-05-30T15:23:58Z</time>
					</trkpt>
					<trkpt lat="49.096280" lon="2.275310">
						<ele>97</ele>
						<time>2024-05-30T15:24:02Z</time>
					</trkpt>
					<trkpt lat="49.096080" lon="2.275300">
						<ele>97</ele>
						<time>2024-05-30T15:24:05Z</time>
					</trkpt>
					<trkpt lat="49.095620" lon="2.275130">
						<ele>101</ele>
						<time>2024-05-30T15:24:14Z</time>
					</trkpt>
					<trkpt lat="49.095360" lon="2.275010">
						<ele>103</ele>
						<time>2024-05-30T15:24:18Z</time>
					</trkpt>
					<trkpt lat="49.095070" lon="2.274780">
						<ele>106</ele>
						<time>2024-05-30T15:24:24Z</time>
					</trkpt>
					<trkpt lat="49.094120" lon="2.273390">
						<ele>117</ele>
						<time>2024-05-30T15:24:48Z</time>
					</trkpt>
					<trkpt lat="49.093930" lon="2.272830">
						<ele>122</ele>
						<time>2024-05-30T15:24:55Z</time>
					</trkpt>
					<trkpt lat="49.093720" lon="2.271860">
						<ele>129</ele>
						<time>2024-05-30T15:25:07Z</time>
					</trkpt>
					<trkpt lat="49.093370" lon="2.270860">
						<ele>131</ele>
						<time>2024-05-30T15:25:20Z</time>
					</trkpt>
					<trkpt lat="49.093080" lon="2.270300">
						<ele>132</ele>
						<time>2024-05-30T15:25:28Z</time>
					</trkpt>
					<trkpt lat="49.091780" lon="2.269040">
						<ele>135</ele>
						<time>2024-05-30T15:25:56Z</time>
					</trkpt>
					<trkpt lat="49.091620" lon="2.268920">
						<ele>136</ele>
						<time>2024-05-30T15:25:59Z</time>
					</trkpt>
					<trkpt lat="49.091540" lon="2.268890">
						<ele>136</ele>
						<time>2024-05-30T15:26:00Z</time>
					</trkpt>
					<trkpt lat="49.091670" lon="2.268180">
						<ele>136</ele>
						<time>2024-05-30T15:26:09Z</time>
					</trkpt>
					<trkpt lat="49.091680" lon="2.266000">
						<ele>129</ele>
						<time>2024-05-30T15:26:34Z</time>
					</trkpt>
					<trkpt lat="49.091480" lon="2.260930">
						<ele>131</ele>
						<time>2024-05-30T15:27:34Z</time>
					</trkpt>
					<trkpt lat="49.091470" lon="2.260000">
						<ele>130</ele>
						<time>2024-05-30T15:27:44Z</time>
					</trkpt>
					<trkpt lat="49.091410" lon="2.259180">
						<ele>124</ele>
						<time>2024-05-30T15:27:54Z</time>
					</trkpt>
					<trkpt lat="49.091360" lon="2.258990">
						<ele>123</ele>
						<time>2024-05-30T15:27:56Z</time>
					</trkpt>
					<trkpt lat="49.091290" lon="2.258860">
						<ele>122</ele>
						<time>2024-05-30T15:27:58Z</time>
					</trkpt>
					<trkpt lat="49.091170" lon="2.258790">
						<ele>122</ele>
						<time>2024-05-30T15:28:01Z</time>
					</trkpt>
					<trkpt lat="49.091040" lon="2.258760">
						<ele>121</ele>
						<time>2024-05-30T15:28:03Z</time>
					</trkpt>
					<trkpt lat="49.090820" lon="2.258660">
						<ele>120</ele>
						<time>2024-05-30T15:28:07Z</time>
					</trkpt>
					<trkpt lat="49.090560" lon="2.258580">
						<ele>120</ele>
						<time>2024-05-30T15:28:12Z</time>
					</trkpt>
					<trkpt lat="49.090190" lon="2.258510">
						<ele>120</ele>
						<time>2024-05-30T15:28:18Z</time>
					</trkpt>
					<trkpt lat="49.089540" lon="2.258500">
						<ele>120</ele>
						<time>2024-05-30T15:28:30Z</time>
					</trkpt>
					<trkpt lat="49.089180" lon="2.258370">
						<ele>119</ele>
						<time>2024-05-30T15:28:37Z</time>
					</trkpt>
					<trkpt lat="49.086860" lon="2.258270">
						<ele>122</ele>
						<time>2024-05-30T15:29:18Z</time>
					</trkpt>
					<trkpt lat="49.084780" lon="2.257780">
						<ele>112</ele>
						<time>2024-05-30T15:29:55Z</time>
					</trkpt>
					<trkpt lat="49.084000" lon="2.257700">
						<ele>109</ele>
						<time>2024-05-30T15:30:09Z</time>
					</trkpt>
					<trkpt lat="49.083740" lon="2.257760">
						<ele>109</ele>
						<time>2024-05-30T15:30:14Z</time>
					</trkpt>
					<trkpt lat="49.083780" lon="2.257640">
						<ele>108</ele>
						<time>2024-05-30T15:30:16Z</time>
					</trkpt>
					<trkpt lat="49.083780" lon="2.257510">
						<ele>107</ele>
						<time>2024-05-30T15:30:17Z</time>
					</trkpt>
					<trkpt lat="49.083740" lon="2.257420">
						<ele>107</ele>
						<time>2024-05-30T15:30:18Z</time>
					</trkpt>
					<trkpt lat="49.082250" lon="2.256080">
						<ele>105</ele>
						<time>2024-05-30T15:30:49Z</time>
					</trkpt>
					<trkpt lat="49.079180" lon="2.253330">
						<ele>95</ele>
						<time>2024-05-30T15:31:52Z</time>
					</trkpt>
					<trkpt lat="49.078720" lon="2.253650">
						<ele>100</ele>
						<time>2024-05-30T15:32:01Z</time>
					</trkpt>
					<trkpt lat="49.077180" lon="2.254920">
						<ele>105</ele>
						<time>2024-05-30T15:32:33Z</time>
					</trkpt>
					<trkpt lat="49.075730" lon="2.256000">
						<ele>113</ele>
						<time>2024-05-30T15:33:01Z</time>
					</trkpt>
					<trkpt lat="49.074780" lon="2.256910">
						<ele>106</ele>
						<time>2024-05-30T15:33:21Z</time>
					</trkpt>
					<trkpt lat="49.071050" lon="2.261130">
						<ele>91</ele>
						<time>2024-05-30T15:34:44Z</time>
					</trkpt>
					<trkpt lat="49.070220" lon="2.262020">
						<ele>95</ele>
						<time>2024-05-30T15:35:02Z</time>
					</trkpt>
					<trkpt lat="49.069570" lon="2.262750">
						<ele>98</ele>
						<time>2024-05-30T15:35:16Z</time>
					</trkpt>
					<trkpt lat="49.067550" lon="2.264730">
						<ele>100</ele>
						<time>2024-05-30T15:35:59Z</time>
					</trkpt>
					<trkpt lat="49.065950" lon="2.266240">
						<ele>97</ele>
						<time>2024-05-30T15:36:32Z</time>
					</trkpt>
					<trkpt lat="49.065390" lon="2.266860">
						<ele>94</ele>
						<time>2024-05-30T15:36:45Z</time>
					</trkpt>
					<trkpt lat="49.064470" lon="2.267780">
						<ele>93</ele>
						<time>2024-05-30T15:37:04Z</time>
					</trkpt>
					<trkpt lat="49.064340" lon="2.267860">
						<ele>93</ele>
						<time>2024-05-30T15:37:07Z</time>
					</trkpt>
					<trkpt lat="49.063930" lon="2.267980">
						<ele>95</ele>
						<time>2024-05-30T15:37:14Z</time>
					</trkpt>
					<trkpt lat="49.063340" lon="2.268200">
						<ele>97</ele>
						<time>2024-05-30T15:37:25Z</time>
					</trkpt>
					<trkpt lat="49.062930" lon="2.268400">
						<ele>101</ele>
						<time>2024-05-30T15:37:33Z</time>
					</trkpt>
					<trkpt lat="49.062280" lon="2.268620">
						<ele>105</ele>
						<time>2024-05-30T15:37:45Z</time>
					</trkpt>
					<trkpt lat="49.061430" lon="2.268840">
						<ele>108</ele>
						<time>2024-05-30T15:38:00Z</time>
					</trkpt>
					<trkpt lat="49.060940" lon="2.268910">
						<ele>109</ele>
						<time>2024-05-30T15:38:09Z</time>
					</trkpt>
					<trkpt lat="49.059670" lon="2.269160">
						<ele>115</ele>
						<time>2024-05-30T15:38:31Z</time>
					</trkpt>
					<trkpt lat="49.056710" lon="2.269790">
						<ele>133</ele>
						<time>2024-05-30T15:39:25Z</time>
					</trkpt>
					<trkpt lat="49.056580" lon="2.269790">
						<ele>134</ele>
						<time>2024-05-30T15:39:27Z</time>
					</trkpt>
					<trkpt lat="49.056260" lon="2.269640">
						<ele>136</ele>
						<time>2024-05-30T15:39:33Z</time>
					</trkpt>
					<trkpt lat="49.056020" lon="2.269560">
						<ele>138</ele>
						<time>2024-05-30T15:39:37Z</time>
					</trkpt>
					<trkpt lat="49.055590" lon="2.269460">
						<ele>141</ele>
						<time>2024-05-30T15:39:45Z</time>
					</trkpt>
					<trkpt lat="49.054740" lon="2.269450">
						<ele>146</ele>
						<time>2024-05-30T15:40:00Z</time>
					</trkpt>
					<trkpt lat="49.054340" lon="2.269380">
						<ele>146</ele>
						<time>2024-05-30T15:40:07Z</time>
					</trkpt>
					<trkpt lat="49.054200" lon="2.269300">
						<ele>146</ele>
						<time>2024-05-30T15:40:10Z</time>
					</trkpt>
					<trkpt lat="49.054100" lon="2.269340">
						<ele>146</ele>
						<time>2024-05-30T15:40:12Z</time>
					</trkpt>
					<trkpt lat="49.053550" lon="2.269300">
						<ele>145</ele>
						<time>2024-05-30T15:40:22Z</time>
					</trkpt>
					<trkpt lat="49.053360" lon="2.269260">
						<ele>144</ele>
						<time>2024-05-30T15:40:25Z</time>
					</trkpt>
					<trkpt lat="49.052900" lon="2.269110">
						<ele>143</ele>
						<time>2024-05-30T15:40:33Z</time>
					</trkpt>
					<trkpt lat="49.052810" lon="2.269110">
						<ele>143</ele>
						<time>2024-05-30T15:40:35Z</time>
					</trkpt>
					<trkpt lat="49.052260" lon="2.269530">
						<ele>138</ele>
						<time>2024-05-30T15:40:46Z</time>
					</trkpt>
					<trkpt lat="49.050130" lon="2.271020">
						<ele>137</ele>
						<time>2024-05-30T15:41:28Z</time>
					</trkpt>
					<trkpt lat="49.049840" lon="2.271250">
						<ele>142</ele>
						<time>2024-05-30T15:41:33Z</time>
					</trkpt>
					<trkpt lat="49.049670" lon="2.271450">
						<ele>145</ele>
						<time>2024-05-30T15:41:37Z</time>
					</trkpt>
					<trkpt lat="49.049610" lon="2.271570">
						<ele>146</ele>
						<time>2024-05-30T15:41:39Z</time>
					</trkpt>
					<trkpt lat="49.049250" lon="2.272750">
						<ele>151</ele>
						<time>2024-05-30T15:41:54Z</time>
					</trkpt>
					<trkpt lat="49.048990" lon="2.273810">
						<ele>159</ele>
						<time>2024-05-30T15:42:07Z</time>
					</trkpt>
					<trkpt lat="49.048500" lon="2.275660">
						<ele>167</ele>
						<time>2024-05-30T15:42:31Z</time>
					</trkpt>
					<trkpt lat="49.048420" lon="2.276230">
						<ele>166</ele>
						<time>2024-05-30T15:42:37Z</time>
					</trkpt>
					<trkpt lat="49.048350" lon="2.276850">
						<ele>164</ele>
						<time>2024-05-30T15:42:45Z</time>
					</trkpt>
					<trkpt lat="49.048300" lon="2.277190">
						<ele>163</ele>
						<time>2024-05-30T15:42:49Z</time>
					</trkpt>
					<trkpt lat="49.048060" lon="2.277820">
						<ele>160</ele>
						<time>2024-05-30T15:42:57Z</time>
					</trkpt>
					<trkpt lat="49.047740" lon="2.279290">
						<ele>154</ele>
						<time>2024-05-30T15:43:15Z</time>
					</trkpt>
					<trkpt lat="49.047520" lon="2.280140">
						<ele>152</ele>
						<time>2024-05-30T15:43:26Z</time>
					</trkpt>
					<trkpt lat="49.046600" lon="2.284530">
						<ele>169</ele>
						<time>2024-05-30T15:44:20Z</time>
					</trkpt>
					<trkpt lat="49.046580" lon="2.284600">
						<ele>169</ele>
						<time>2024-05-30T15:44:21Z</time>
					</trkpt>
					<trkpt lat="49.044270" lon="2.288720">
						<ele>155</ele>
						<time>2024-05-30T15:45:24Z</time>
					</trkpt>
					<trkpt lat="49.044150" lon="2.289050">
						<ele>155</ele>
						<time>2024-05-30T15:45:28Z</time>
					</trkpt>
					<trkpt lat="49.044130" lon="2.289190">
						<ele>154</ele>
						<time>2024-05-30T15:45:30Z</time>
					</trkpt>
					<trkpt lat="49.044160" lon="2.289690">
						<ele>153</ele>
						<time>2024-05-30T15:45:36Z</time>
					</trkpt>
					<trkpt lat="49.044320" lon="2.291460">
						<ele>147</ele>
						<time>2024-05-30T15:45:57Z</time>
					</trkpt>
					<trkpt lat="49.044300" lon="2.291610">
						<ele>147</ele>
						<time>2024-05-30T15:45:58Z</time>
					</trkpt>
					<trkpt lat="49.044270" lon="2.291690">
						<ele>147</ele>
						<time>2024-05-30T15:46:00Z</time>
					</trkpt>
					<trkpt lat="49.044100" lon="2.291980">
						<ele>147</ele>
						<time>2024-05-30T15:46:04Z</time>
					</trkpt>
					<trkpt lat="49.043920" lon="2.292260">
						<ele>147</ele>
						<time>2024-05-30T15:46:09Z</time>
					</trkpt>
					<trkpt lat="49.043500" lon="2.292700">
						<ele>150</ele>
						<time>2024-05-30T15:46:18Z</time>
					</trkpt>
					<trkpt lat="49.043480" lon="2.292750">
						<ele>150</ele>
						<time>2024-05-30T15:46:18Z</time>
					</trkpt>
					<trkpt lat="49.043460" lon="2.292980">
						<ele>151</ele>
						<time>2024-05-30T15:46:21Z</time>
					</trkpt>
					<trkpt lat="49.043470" lon="2.293100">
						<ele>151</ele>
						<time>2024-05-30T15:46:23Z</time>
					</trkpt>
					<trkpt lat="49.043650" lon="2.294010">
						<ele>149</ele>
						<time>2024-05-30T15:46:34Z</time>
					</trkpt>
					<trkpt lat="49.043670" lon="2.294310">
						<ele>148</ele>
						<time>2024-05-30T15:46:37Z</time>
					</trkpt>
					<trkpt lat="49.043670" lon="2.294500">
						<ele>147</ele>
						<time>2024-05-30T15:46:39Z</time>
					</trkpt>
					<trkpt lat="49.043590" lon="2.295180">
						<ele>144</ele>
						<time>2024-05-30T15:46:47Z</time>
					</trkpt>
					<trkpt lat="49.043590" lon="2.295490">
						<ele>142</ele>
						<time>2024-05-30T15:46:51Z</time>
					</trkpt>
					<trkpt lat="49.043630" lon="2.295860">
						<ele>139</ele>
						<time>2024-05-30T15:46:55Z</time>
					</trkpt>
					<trkpt lat="49.043610" lon="2.296080">
						<ele>138</ele>
						<time>2024-05-30T15:46:58Z</time>
					</trkpt>
					<trkpt lat="49.043620" lon="2.296200">
						<ele>137</ele>
						<time>2024-05-30T15:46:59Z</time>
					</trkpt>
					<trkpt lat="49.043590" lon="2.296250">
						<ele>137</ele>
						<time>2024-05-30T15:47:00Z</time>
					</trkpt>
					<trkpt lat="49.043600" lon="2.296310">
						<ele>136</ele>
						<time>2024-05-30T15:47:01Z</time>
					</trkpt>
					<trkpt lat="49.043620" lon="2.296340">
						<ele>136</ele>
						<time>2024-05-30T15:47:01Z</time>
					</trkpt>
					<trkpt lat="49.043150" lon="2.297990">
						<ele>130</ele>
						<time>2024-05-30T15:47:22Z</time>
					</trkpt>
					<trkpt lat="49.043090" lon="2.298230">
						<ele>129</ele>
						<time>2024-05-30T15:47:25Z</time>
					</trkpt>
					<trkpt lat="49.043040" lon="2.298670">
						<ele>128</ele>
						<time>2024-05-30T15:47:31Z</time>
					</trkpt>
					<trkpt lat="49.043030" lon="2.298980">
						<ele>127</ele>
						<time>2024-05-30T15:47:34Z</time>
					</trkpt>
					<trkpt lat="49.042970" lon="2.299760">
						<ele>125</ele>
						<time>2024-05-30T15:47:43Z</time>
					</trkpt>
					<trkpt lat="49.042830" lon="2.300610">
						<ele>121</ele>
						<time>2024-05-30T15:47:54Z</time>
					</trkpt>
					<trkpt lat="49.042820" lon="2.300940">
						<ele>120</ele>
						<time>2024-05-30T15:47:57Z</time>
					</trkpt>
					<trkpt lat="49.042840" lon="2.301820">
						<ele>116</ele>
						<time>2024-05-30T15:48:08Z</time>
					</trkpt>
					<trkpt lat="49.042760" lon="2.302890">
						<ele>115</ele>
						<time>2024-05-30T15:48:20Z</time>
					</trkpt>
					<trkpt lat="49.042690" lon="2.303320">
						<ele>114</ele>
						<time>2024-05-30T15:48:25Z</time>
					</trkpt>
					<trkpt lat="49.042480" lon="2.304090">
						<ele>114</ele>
						<time>2024-05-30T15:48:35Z</time>
					</trkpt>
					<trkpt lat="49.042450" lon="2.304260">
						<ele>115</ele>
						<time>2024-05-30T15:48:37Z</time>
					</trkpt>
					<trkpt lat="49.042320" lon="2.304670">
						<ele>116</ele>
						<time>2024-05-30T15:48:43Z</time>
					</trkpt>
					<trkpt lat="49.041950" lon="2.306000">
						<ele>121</ele>
						<time>2024-05-30T15:48:59Z</time>
					</trkpt>
					<trkpt lat="49.041890" lon="2.306370">
						<ele>121</ele>
						<time>2024-05-30T15:49:04Z</time>
					</trkpt>
					<trkpt lat="49.041850" lon="2.306460">
						<ele>121</ele>
						<time>2024-05-30T15:49:05Z</time>
					</trkpt>
					<trkpt lat="49.041330" lon="2.307360">
						<ele>120</ele>
						<time>2024-05-30T15:49:19Z</time>
					</trkpt>
					<trkpt lat="49.041240" lon="2.307550">
						<ele>119</ele>
						<time>2024-05-30T15:49:22Z</time>
					</trkpt>
					<trkpt lat="49.041100" lon="2.307920">
						<ele>117</ele>
						<time>2024-05-30T15:49:27Z</time>
					</trkpt>
					<trkpt lat="49.040650" lon="2.309240">
						<ele>114</ele>
						<time>2024-05-30T15:49:44Z</time>
					</trkpt>
					<trkpt lat="49.040540" lon="2.309520">
						<ele>114</ele>
						<time>2024-05-30T15:49:48Z</time>
					</trkpt>
					<trkpt lat="49.040370" lon="2.309870">
						<ele>114</ele>
						<time>2024-05-30T15:49:53Z</time>
					</trkpt>
					<trkpt lat="49.040280" lon="2.309990">
						<ele>115</ele>
						<time>2024-05-30T15:49:55Z</time>
					</trkpt>
					<trkpt lat="49.040000" lon="2.310250">
						<ele>115</ele>
						<time>2024-05-30T15:50:01Z</time>
					</trkpt>
					<trkpt lat="49.039350" lon="2.310670">
						<ele>113</ele>
						<time>2024-05-30T15:50:14Z</time>
					</trkpt>
					<trkpt lat="49.038810" lon="2.311070">
						<ele>114</ele>
						<time>2024-05-30T15:50:24Z</time>
					</trkpt>
					<trkpt lat="49.038490" lon="2.311320">
						<ele>115</ele>
						<time>2024-05-30T15:50:31Z</time>
					</trkpt>
					<trkpt lat="49.037770" lon="2.311960">
						<ele>114</ele>
						<time>2024-05-30T15:50:45Z</time>
					</trkpt>
					<trkpt lat="49.037420" lon="2.312230">
						<ele>114</ele>
						<time>2024-05-30T15:50:52Z</time>
					</trkpt>
					<trkpt lat="49.037150" lon="2.312060">
						<ele>115</ele>
						<time>2024-05-30T15:50:58Z</time>
					</trkpt>
					<trkpt lat="49.036890" lon="2.311960">
						<ele>116</ele>
						<time>2024-05-30T15:51:02Z</time>
					</trkpt>
					<trkpt lat="49.033670" lon="2.310930">
						<ele>131</ele>
						<time>2024-05-30T15:52:01Z</time>
					</trkpt>
					<trkpt lat="49.033220" lon="2.310670">
						<ele>136</ele>
						<time>2024-05-30T15:52:10Z</time>
					</trkpt>
					<trkpt lat="49.033090" lon="2.310580">
						<ele>138</ele>
						<time>2024-05-30T15:52:12Z</time>
					</trkpt>
					<trkpt lat="49.032710" lon="2.310200">
						<ele>143</ele>
						<time>2024-05-30T15:52:20Z</time>
					</trkpt>
					<trkpt lat="49.032450" lon="2.309900">
						<ele>146</ele>
						<time>2024-05-30T15:52:26Z</time>
					</trkpt>
					<trkpt lat="49.031520" lon="2.308470">
						<ele>153</ele>
						<time>2024-05-30T15:52:49Z</time>
					</trkpt>
					<trkpt lat="49.031360" lon="2.308330">
						<ele>153</ele>
						<time>2024-05-30T15:52:53Z</time>
					</trkpt>
					<trkpt lat="49.031200" lon="2.308220">
						<ele>154</ele>
						<time>2024-05-30T15:52:56Z</time>
					</trkpt>
					<trkpt lat="49.031070" lon="2.308170">
						<ele>155</ele>
						<time>2024-05-30T15:52:58Z</time>
					</trkpt>
					<trkpt lat="49.030870" lon="2.308160">
						<ele>155</ele>
						<time>2024-05-30T15:53:02Z</time>
					</trkpt>
					<trkpt lat="49.030680" lon="2.308190">
						<ele>156</ele>
						<time>2024-05-30T15:53:05Z</time>
					</trkpt>
					<trkpt lat="49.030530" lon="2.308270">
						<ele>156</ele>
						<time>2024-05-30T15:53:08Z</time>
					</trkpt>
					<trkpt lat="49.029580" lon="2.309300">
						<ele>159</ele>
						<time>2024-05-30T15:53:29Z</time>
					</trkpt>
					<trkpt lat="49.029170" lon="2.309830">
						<ele>158</ele>
						<time>2024-05-30T15:53:38Z</time>
					</trkpt>
					<trkpt lat="49.028820" lon="2.310130">
						<ele>158</ele>
						<time>2024-05-30T15:53:45Z</time>
					</trkpt>
					<trkpt lat="49.028640" lon="2.310300">
						<ele>158</ele>
						<time>2024-05-30T15:53:49Z</time>
					</trkpt>
					<trkpt lat="49.028480" lon="2.310550">
						<ele>157</ele>
						<time>2024-05-30T15:53:53Z</time>
					</trkpt>
					<trkpt lat="49.028200" lon="2.311230">
						<ele>156</ele>
						<time>2024-05-30T15:54:03Z</time>
					</trkpt>
					<trkpt lat="49.028100" lon="2.311420">
						<ele>156</ele>
						<time>2024-05-30T15:54:06Z</time>
					</trkpt>
					<trkpt lat="49.027870" lon="2.311710">
						<ele>154</ele>
						<time>2024-05-30T15:54:11Z</time>
					</trkpt>
					<trkpt lat="49.027730" lon="2.311820">
						<ele>154</ele>
						<time>2024-05-30T15:54:14Z</time>
					</trkpt>
					<trkpt lat="49.027520" lon="2.311940">
						<ele>154</ele>
						<time>2024-05-30T15:54:18Z</time>
					</trkpt>
					<trkpt lat="49.027380" lon="2.311980">
						<ele>153</ele>
						<time>2024-05-30T15:54:20Z</time>
					</trkpt>
					<trkpt lat="49.027140" lon="2.311990">
						<ele>153</ele>
						<time>2024-05-30T15:54:24Z</time>
					</trkpt>
					<trkpt lat="49.026860" lon="2.311950">
						<ele>152</ele>
						<time>2024-05-30T15:54:29Z</time>
					</trkpt>
					<trkpt lat="49.026610" lon="2.311860">
						<ele>151</ele>
						<time>2024-05-30T15:54:34Z</time>
					</trkpt>
					<trkpt lat="49.026330" lon="2.311540">
						<ele>149</ele>
						<time>2024-05-30T15:54:40Z</time>
					</trkpt>
					<trkpt lat="49.026220" lon="2.311440">
						<ele>148</ele>
						<time>2024-05-30T15:54:42Z</time>
					</trkpt>
					<trkpt lat="49.026170" lon="2.311350">
						<ele>148</ele>
						<time>2024-05-30T15:54:44Z</time>
					</trkpt>
					<trkpt lat="49.026110" lon="2.311300">
						<ele>147</ele>
						<time>2024-05-30T15:54:45Z</time>
					</trkpt>
					<trkpt lat="49.026060" lon="2.311340">
						<ele>147</ele>
						<time>2024-05-30T15:54:46Z</time>
					</trkpt>
					<trkpt lat="49.025930" lon="2.311590">
						<ele>146</ele>
						<time>2024-05-30T15:54:50Z</time>
					</trkpt>
					<trkpt lat="49.025700" lon="2.312320">
						<ele>148</ele>
						<time>2024-05-30T15:54:59Z</time>
					</trkpt>
					<trkpt lat="49.025510" lon="2.313070">
						<ele>148</ele>
						<time>2024-05-30T15:55:09Z</time>
					</trkpt>
					<trkpt lat="49.025300" lon="2.314030">
						<ele>151</ele>
						<time>2024-05-30T15:55:20Z</time>
					</trkpt>
					<trkpt lat="49.025210" lon="2.314680">
						<ele>153</ele>
						<time>2024-05-30T15:55:28Z</time>
					</trkpt>
					<trkpt lat="49.025170" lon="2.315090">
						<ele>153</ele>
						<time>2024-05-30T15:55:33Z</time>
					</trkpt>
					<trkpt lat="49.025140" lon="2.316380">
						<ele>153</ele>
						<time>2024-05-30T15:55:48Z</time>
					</trkpt>
					<trkpt lat="49.025050" lon="2.316920">
						<ele>153</ele>
						<time>2024-05-30T15:55:55Z</time>
					</trkpt>
					<trkpt lat="49.025030" lon="2.317300">
						<ele>153</ele>
						<time>2024-05-30T15:55:59Z</time>
					</trkpt>
					<trkpt lat="49.025050" lon="2.318630">
						<ele>149</ele>
						<time>2024-05-30T15:56:15Z</time>
					</trkpt>
					<trkpt lat="49.025040" lon="2.319000">
						<ele>148</ele>
						<time>2024-05-30T15:56:19Z</time>
					</trkpt>
					<trkpt lat="49.024920" lon="2.319810">
						<ele>144</ele>
						<time>2024-05-30T15:56:29Z</time>
					</trkpt>
					<trkpt lat="49.024900" lon="2.320010">
						<ele>143</ele>
						<time>2024-05-30T15:56:31Z</time>
					</trkpt>
					<trkpt lat="49.024910" lon="2.320280">
						<ele>143</ele>
						<time>2024-05-30T15:56:34Z</time>
					</trkpt>
					<trkpt lat="49.025080" lon="2.321100">
						<ele>140</ele>
						<time>2024-05-30T15:56:44Z</time>
					</trkpt>
					<trkpt lat="49.025120" lon="2.321180">
						<ele>140</ele>
						<time>2024-05-30T15:56:45Z</time>
					</trkpt>
					<trkpt lat="49.025140" lon="2.321380">
						<ele>139</ele>
						<time>2024-05-30T15:56:48Z</time>
					</trkpt>
					<trkpt lat="49.025180" lon="2.321500">
						<ele>139</ele>
						<time>2024-05-30T15:56:49Z</time>
					</trkpt>
					<trkpt lat="49.025180" lon="2.321600">
						<ele>139</ele>
						<time>2024-05-30T15:56:50Z</time>
					</trkpt>
					<trkpt lat="49.025260" lon="2.322090">
						<ele>139</ele>
						<time>2024-05-30T15:56:56Z</time>
					</trkpt>
					<trkpt lat="49.025290" lon="2.322460">
						<ele>140</ele>
						<time>2024-05-30T15:57:01Z</time>
					</trkpt>
					<trkpt lat="49.025290" lon="2.323130">
						<ele>142</ele>
						<time>2024-05-30T15:57:08Z</time>
					</trkpt>
					<trkpt lat="49.025280" lon="2.323260">
						<ele>143</ele>
						<time>2024-05-30T15:57:10Z</time>
					</trkpt>
					<trkpt lat="49.025020" lon="2.324490">
						<ele>149</ele>
						<time>2024-05-30T15:57:25Z</time>
					</trkpt>
					<trkpt lat="49.024960" lon="2.324700">
						<ele>151</ele>
						<time>2024-05-30T15:57:28Z</time>
					</trkpt>
					<trkpt lat="49.024740" lon="2.325640">
						<ele>153</ele>
						<time>2024-05-30T15:57:39Z</time>
					</trkpt>
					<trkpt lat="49.023840" lon="2.324540">
						<ele>160</ele>
						<time>2024-05-30T15:58:00Z</time>
					</trkpt>
					<trkpt lat="49.023460" lon="2.324170">
						<ele>165</ele>
						<time>2024-05-30T15:58:08Z</time>
					</trkpt>
					<trkpt lat="49.023350" lon="2.324130">
						<ele>166</ele>
						<time>2024-05-30T15:58:10Z</time>
					</trkpt>
					<trkpt lat="49.023350" lon="2.324080">
						<ele>166</ele>
						<time>2024-05-30T15:58:11Z</time>
					</trkpt>
					<trkpt lat="49.023320" lon="2.324000">
						<ele>166</ele>
						<time>2024-05-30T15:58:12Z</time>
					</trkpt>
					<trkpt lat="49.023290" lon="2.323980">
						<ele>167</ele>
						<time>2024-05-30T15:58:12Z</time>
					</trkpt>
					<trkpt lat="49.023230" lon="2.323970">
						<ele>167</ele>
						<time>2024-05-30T15:58:13Z</time>
					</trkpt>
					<trkpt lat="49.023110" lon="2.323910">
						<ele>168</ele>
						<time>2024-05-30T15:58:15Z</time>
					</trkpt>
					<trkpt lat="49.022750" lon="2.323560">
						<ele>171</ele>
						<time>2024-05-30T15:58:23Z</time>
					</trkpt>
					<trkpt lat="49.022460" lon="2.323230">
						<ele>174</ele>
						<time>2024-05-30T15:58:30Z</time>
					</trkpt>
					<trkpt lat="49.021870" lon="2.322420">
						<ele>178</ele>
						<time>2024-05-30T15:58:44Z</time>
					</trkpt>
					<trkpt lat="49.020770" lon="2.321170">
						<ele>182</ele>
						<time>2024-05-30T15:59:08Z</time>
					</trkpt>
					<trkpt lat="49.020640" lon="2.320990">
						<ele>182</ele>
						<time>2024-05-30T15:59:11Z</time>
					</trkpt>
					<trkpt lat="49.020060" lon="2.319230">
						<ele>187</ele>
						<time>2024-05-30T15:59:34Z</time>
					</trkpt>
					<trkpt lat="49.019440" lon="2.317970">
						<ele>183</ele>
						<time>2024-05-30T15:59:53Z</time>
					</trkpt>
					<trkpt lat="49.018900" lon="2.316960">
						<ele>183</ele>
						<time>2024-05-30T16:00:08Z</time>
					</trkpt>
					<trkpt lat="49.018260" lon="2.315410">
						<ele>184</ele>
						<time>2024-05-30T16:00:29Z</time>
					</trkpt>
					<trkpt lat="49.017910" lon="2.314640">
						<ele>184</ele>
						<time>2024-05-30T16:00:40Z</time>
					</trkpt>
					<trkpt lat="49.017630" lon="2.314130">
						<ele>184</ele>
						<time>2024-05-30T16:00:48Z</time>
					</trkpt>
					<trkpt lat="49.017500" lon="2.313960">
						<ele>183</ele>
						<time>2024-05-30T16:00:51Z</time>
					</trkpt>
					<trkpt lat="49.017060" lon="2.313500">
						<ele>181</ele>
						<time>2024-05-30T16:01:00Z</time>
					</trkpt>
					<trkpt lat="49.016770" lon="2.313230">
						<ele>180</ele>
						<time>2024-05-30T16:01:06Z</time>
					</trkpt>
					<trkpt lat="49.016530" lon="2.313030">
						<ele>179</ele>
						<time>2024-05-30T16:01:11Z</time>
					</trkpt>
					<trkpt lat="49.016300" lon="2.312890">
						<ele>178</ele>
						<time>2024-05-30T16:01:16Z</time>
					</trkpt>
					<trkpt lat="49.016000" lon="2.312770">
						<ele>177</ele>
						<time>2024-05-30T16:01:21Z</time>
					</trkpt>
					<trkpt lat="49.015810" lon="2.312740">
						<ele>176</ele>
						<time>2024-05-30T16:01:25Z</time>
					</trkpt>
					<trkpt lat="49.015390" lon="2.312710">
						<ele>175</ele>
						<time>2024-05-30T16:01:32Z</time>
					</trkpt>
					<trkpt lat="49.014700" lon="2.312750">
						<ele>175</ele>
						<time>2024-05-30T16:01:44Z</time>
					</trkpt>
					<trkpt lat="49.014470" lon="2.312700">
						<ele>176</ele>
						<time>2024-05-30T16:01:48Z</time>
					</trkpt>
					<trkpt lat="49.014060" lon="2.312470">
						<ele>176</ele>
						<time>2024-05-30T16:01:56Z</time>
					</trkpt>
					<trkpt lat="49.013280" lon="2.311860">
						<ele>173</ele>
						<time>2024-05-30T16:02:12Z</time>
					</trkpt>
					<trkpt lat="49.012870" lon="2.311630">
						<ele>173</ele>
						<time>2024-05-30T16:02:20Z</time>
					</trkpt>
					<trkpt lat="49.012020" lon="2.311400">
						<ele>170</ele>
						<time>2024-05-30T16:02:35Z</time>
					</trkpt>
					<trkpt lat="49.011800" lon="2.311410">
						<ele>169</ele>
						<time>2024-05-30T16:02:39Z</time>
					</trkpt>
					<trkpt lat="49.011580" lon="2.311530">
						<ele>168</ele>
						<time>2024-05-30T16:02:43Z</time>
					</trkpt>
					<trkpt lat="49.011240" lon="2.311900">
						<ele>166</ele>
						<time>2024-05-30T16:02:51Z</time>
					</trkpt>
					<trkpt lat="49.011040" lon="2.312030">
						<ele>165</ele>
						<time>2024-05-30T16:02:54Z</time>
					</trkpt>
					<trkpt lat="49.010370" lon="2.312210">
						<ele>165</ele>
						<time>2024-05-30T16:03:06Z</time>
					</trkpt>
					<trkpt lat="49.009940" lon="2.312240">
						<ele>165</ele>
						<time>2024-05-30T16:03:14Z</time>
					</trkpt>
					<trkpt lat="49.009720" lon="2.312300">
						<ele>165</ele>
						<time>2024-05-30T16:03:18Z</time>
					</trkpt>
					<trkpt lat="49.009550" lon="2.312450">
						<ele>165</ele>
						<time>2024-05-30T16:03:22Z</time>
					</trkpt>
					<trkpt lat="49.009430" lon="2.312590">
						<ele>165</ele>
						<time>2024-05-30T16:03:24Z</time>
					</trkpt>
					<trkpt lat="49.008900" lon="2.313270">
						<ele>166</ele>
						<time>2024-05-30T16:03:37Z</time>
					</trkpt>
					<trkpt lat="49.008730" lon="2.313420">
						<ele>166</ele>
						<time>2024-05-30T16:03:40Z</time>
					</trkpt>
					<trkpt lat="49.007840" lon="2.314030">
						<ele>167</ele>
						<time>2024-05-30T16:03:57Z</time>
					</trkpt>
					<trkpt lat="49.007290" lon="2.314630">
						<ele>167</ele>
						<time>2024-05-30T16:04:10Z</time>
					</trkpt>
					<trkpt lat="49.007190" lon="2.314780">
						<ele>167</ele>
						<time>2024-05-30T16:04:12Z</time>
					</trkpt>
					<trkpt lat="49.007090" lon="2.314870">
						<ele>167</ele>
						<time>2024-05-30T16:04:14Z</time>
					</trkpt>
					<trkpt lat="49.007020" lon="2.314920">
						<ele>167</ele>
						<time>2024-05-30T16:04:15Z</time>
					</trkpt>
					<trkpt lat="49.006890" lon="2.315070">
						<ele>167</ele>
						<time>2024-05-30T16:04:18Z</time>
					</trkpt>
					<trkpt lat="49.006860" lon="2.315140">
						<ele>167</ele>
						<time>2024-05-30T16:04:19Z</time>
					</trkpt>
					<trkpt lat="49.006120" lon="2.315960">
						<ele>167</ele>
						<time>2024-05-30T16:04:36Z</time>
					</trkpt>
					<trkpt lat="49.005220" lon="2.317240">
						<ele>168</ele>
						<time>2024-05-30T16:04:58Z</time>
					</trkpt>
					<trkpt lat="49.004960" lon="2.317530">
						<ele>168</ele>
						<time>2024-05-30T16:05:03Z</time>
					</trkpt>
					<trkpt lat="49.003880" lon="2.318390">
						<ele>168</ele>
						<time>2024-05-30T16:05:25Z</time>
					</trkpt>
					<trkpt lat="49.003310" lon="2.318820">
						<ele>169</ele>
						<time>2024-05-30T16:05:36Z</time>
					</trkpt>
					<trkpt lat="49.003010" lon="2.318970">
						<ele>168</ele>
						<time>2024-05-30T16:05:42Z</time>
					</trkpt>
					<trkpt lat="49.002250" lon="2.319090">
						<ele>168</ele>
						<time>2024-05-30T16:05:55Z</time>
					</trkpt>
					<trkpt lat="49.002010" lon="2.319180">
						<ele>168</ele>
						<time>2024-05-30T16:06:00Z</time>
					</trkpt>
					<trkpt lat="49.001800" lon="2.319290">
						<ele>168</ele>
						<time>2024-05-30T16:06:04Z</time>
					</trkpt>
					<trkpt lat="49.001080" lon="2.319940">
						<ele>168</ele>
						<time>2024-05-30T16:06:19Z</time>
					</trkpt>
					<trkpt lat="49.000950" lon="2.320060">
						<ele>168</ele>
						<time>2024-05-30T16:06:21Z</time>
					</trkpt>
					<trkpt lat="49.000830" lon="2.320230">
						<ele>169</ele>
						<time>2024-05-30T16:06:24Z</time>
					</trkpt>
					<trkpt lat="49.000770" lon="2.320260">
						<ele>169</ele>
						<time>2024-05-30T16:06:25Z</time>
					</trkpt>
					<trkpt lat="49.000710" lon="2.320290">
						<ele>169</ele>
						<time>2024-05-30T16:06:27Z</time>
					</trkpt>
					<trkpt lat="49.000600" lon="2.320490">
						<ele>170</ele>
						<time>2024-05-30T16:06:30Z</time>
					</trkpt>
					<trkpt lat="49.000060" lon="2.321250">
						<ele>172</ele>
						<time>2024-05-30T16:06:43Z</time>
					</trkpt>
					<trkpt lat="48.999860" lon="2.321560">
						<ele>172</ele>
						<time>2024-05-30T16:06:48Z</time>
					</trkpt>
					<trkpt lat="48.999790" lon="2.321660">
						<ele>172</ele>
						<time>2024-05-30T16:06:49Z</time>
					</trkpt>
					<trkpt lat="48.999750" lon="2.321690">
						<ele>172</ele>
						<time>2024-05-30T16:06:50Z</time>
					</trkpt>
					<trkpt lat="48.999610" lon="2.321850">
						<ele>172</ele>
						<time>2024-05-30T16:06:53Z</time>
					</trkpt>
					<trkpt lat="48.999310" lon="2.321960">
						<ele>172</ele>
						<time>2024-05-30T16:06:59Z</time>
					</trkpt>
					<trkpt lat="48.998390" lon="2.322110">
						<ele>172</ele>
						<time>2024-05-30T16:07:15Z</time>
					</trkpt>
					<trkpt lat="48.998230" lon="2.322110">
						<ele>171</ele>
						<time>2024-05-30T16:07:18Z</time>
					</trkpt>
					<trkpt lat="48.998070" lon="2.322190">
						<ele>170</ele>
						<time>2024-05-30T16:07:21Z</time>
					</trkpt>
					<trkpt lat="48.997960" lon="2.322350">
						<ele>170</ele>
						<time>2024-05-30T16:07:24Z</time>
					</trkpt>
					<trkpt lat="48.997890" lon="2.322520">
						<ele>169</ele>
						<time>2024-05-30T16:07:26Z</time>
					</trkpt>
					<trkpt lat="48.997290" lon="2.323590">
						<ele>163</ele>
						<time>2024-05-30T16:07:43Z</time>
					</trkpt>
					<trkpt lat="48.996850" lon="2.324220">
						<ele>161</ele>
						<time>2024-05-30T16:07:53Z</time>
					</trkpt>
					<trkpt lat="48.996460" lon="2.324650">
						<ele>159</ele>
						<time>2024-05-30T16:08:02Z</time>
					</trkpt>
					<trkpt lat="48.996300" lon="2.324890">
						<ele>157</ele>
						<time>2024-05-30T16:08:06Z</time>
					</trkpt>
					<trkpt lat="48.995910" lon="2.325570">
						<ele>153</ele>
						<time>2024-05-30T16:08:16Z</time>
					</trkpt>
					<trkpt lat="48.995760" lon="2.325860">
						<ele>152</ele>
						<time>2024-05-30T16:08:21Z</time>
					</trkpt>
					<trkpt lat="48.995690" lon="2.326150">
						<ele>151</ele>
						<time>2024-05-30T16:08:24Z</time>
					</trkpt>
					<trkpt lat="48.995680" lon="2.326360">
						<ele>152</ele>
						<time>2024-05-30T16:08:27Z</time>
					</trkpt>
					<trkpt lat="48.995680" lon="2.326860">
						<ele>153</ele>
						<time>2024-05-30T16:08:33Z</time>
					</trkpt>
					<trkpt lat="48.995660" lon="2.327030">
						<ele>153</ele>
						<time>2024-05-30T16:08:35Z</time>
					</trkpt>
					<trkpt lat="48.995620" lon="2.327110">
						<ele>152</ele>
						<time>2024-05-30T16:08:36Z</time>
					</trkpt>
					<trkpt lat="48.995550" lon="2.327150">
						<ele>151</ele>
						<time>2024-05-30T16:08:37Z</time>
					</trkpt>
					<trkpt lat="48.995450" lon="2.327140">
						<ele>150</ele>
						<time>2024-05-30T16:08:39Z</time>
					</trkpt>
					<trkpt lat="48.995390" lon="2.327080">
						<ele>149</ele>
						<time>2024-05-30T16:08:40Z</time>
					</trkpt>
					<trkpt lat="48.995350" lon="2.326990">
						<ele>148</ele>
						<time>2024-05-30T16:08:42Z</time>
					</trkpt>
					<trkpt lat="48.995340" lon="2.326830">
						<ele>147</ele>
						<time>2024-05-30T16:08:43Z</time>
					</trkpt>
					<trkpt lat="48.995410" lon="2.326550">
						<ele>147</ele>
						<time>2024-05-30T16:08:47Z</time>
					</trkpt>
					<trkpt lat="48.995440" lon="2.326370">
						<ele>148</ele>
						<time>2024-05-30T16:08:49Z</time>
					</trkpt>
					<trkpt lat="48.995440" lon="2.326240">
						<ele>147</ele>
						<time>2024-05-30T16:08:51Z</time>
					</trkpt>
					<trkpt lat="48.995410" lon="2.326100">
						<ele>147</ele>
						<time>2024-05-30T16:08:52Z</time>
					</trkpt>
					<trkpt lat="48.995370" lon="2.325980">
						<ele>146</ele>
						<time>2024-05-30T16:08:54Z</time>
					</trkpt>
					<trkpt lat="48.995090" lon="2.325490">
						<ele>142</ele>
						<time>2024-05-30T16:09:01Z</time>
					</trkpt>
					<trkpt lat="48.995010" lon="2.325310">
						<ele>142</ele>
						<time>2024-05-30T16:09:04Z</time>
					</trkpt>
					<trkpt lat="48.994950" lon="2.325090">
						<ele>142</ele>
						<time>2024-05-30T16:09:07Z</time>
					</trkpt>
					<trkpt lat="48.994800" lon="2.324490">
						<ele>140</ele>
						<time>2024-05-30T16:09:14Z</time>
					</trkpt>
					<trkpt lat="48.994760" lon="2.324410">
						<ele>139</ele>
						<time>2024-05-30T16:09:15Z</time>
					</trkpt>
					<trkpt lat="48.994630" lon="2.324340">
						<ele>138</ele>
						<time>2024-05-30T16:09:18Z</time>
					</trkpt>
					<trkpt lat="48.994490" lon="2.324300">
						<ele>137</ele>
						<time>2024-05-30T16:09:20Z</time>
					</trkpt>
					<trkpt lat="48.994210" lon="2.324150">
						<ele>135</ele>
						<time>2024-05-30T16:09:26Z</time>
					</trkpt>
					<trkpt lat="48.993960" lon="2.323980">
						<ele>134</ele>
						<time>2024-05-30T16:09:31Z</time>
					</trkpt>
					<trkpt lat="48.993250" lon="2.323450">
						<ele>132</ele>
						<time>2024-05-30T16:09:45Z</time>
					</trkpt>
					<trkpt lat="48.992420" lon="2.322520">
						<ele>132</ele>
						<time>2024-05-30T16:10:03Z</time>
					</trkpt>
					<trkpt lat="48.991810" lon="2.321940">
						<ele>130</ele>
						<time>2024-05-30T16:10:16Z</time>
					</trkpt>
					<trkpt lat="48.991650" lon="2.321800">
						<ele>130</ele>
						<time>2024-05-30T16:10:19Z</time>
					</trkpt>
					<trkpt lat="48.990860" lon="2.321340">
						<ele>131</ele>
						<time>2024-05-30T16:10:34Z</time>
					</trkpt>
					<trkpt lat="48.990780" lon="2.321310">
						<ele>131</ele>
						<time>2024-05-30T16:10:36Z</time>
					</trkpt>
					<trkpt lat="48.990510" lon="2.321300">
						<ele>130</ele>
						<time>2024-05-30T16:10:40Z</time>
					</trkpt>
					<trkpt lat="48.990460" lon="2.321350">
						<ele>130</ele>
						<time>2024-05-30T16:10:41Z</time>
					</trkpt>
					<trkpt lat="48.990410" lon="2.321470">
						<ele>130</ele>
						<time>2024-05-30T16:10:43Z</time>
					</trkpt>
					<trkpt lat="48.989940" lon="2.322820">
						<ele>126</ele>
						<time>2024-05-30T16:11:01Z</time>
					</trkpt>
					<trkpt lat="48.989940" lon="2.323000">
						<ele>125</ele>
						<time>2024-05-30T16:11:03Z</time>
					</trkpt>
					<trkpt lat="48.990030" lon="2.323700">
						<ele>124</ele>
						<time>2024-05-30T16:11:11Z</time>
					</trkpt>
					<trkpt lat="48.990050" lon="2.323910">
						<ele>125</ele>
						<time>2024-05-30T16:11:14Z</time>
					</trkpt>
					<trkpt lat="48.990020" lon="2.324160">
						<ele>125</ele>
						<time>2024-05-30T16:11:17Z</time>
					</trkpt>
					<trkpt lat="48.989460" lon="2.326920">
						<ele>125</ele>
						<time>2024-05-30T16:11:51Z</time>
					</trkpt>
					<trkpt lat="48.989300" lon="2.327220">
						<ele>125</ele>
						<time>2024-05-30T16:11:55Z</time>
					</trkpt>
					<trkpt lat="48.989230" lon="2.327320">
						<ele>126</ele>
						<time>2024-05-30T16:11:57Z</time>
					</trkpt>
					<trkpt lat="48.989100" lon="2.327440">
						<ele>126</ele>
						<time>2024-05-30T16:12:00Z</time>
					</trkpt>
					<trkpt lat="48.987330" lon="2.328360">
						<ele>124</ele>
						<time>2024-05-30T16:12:33Z</time>
					</trkpt>
					<trkpt lat="48.987130" lon="2.328420">
						<ele>124</ele>
						<time>2024-05-30T16:12:36Z</time>
					</trkpt>
					<trkpt lat="48.986210" lon="2.328500">
						<ele>122</ele>
						<time>2024-05-30T16:12:53Z</time>
					</trkpt>
					<trkpt lat="48.985820" lon="2.328510">
						<ele>121</ele>
						<time>2024-05-30T16:13:00Z</time>
					</trkpt>
					<trkpt lat="48.984710" lon="2.328470">
						<ele>120</ele>
						<time>2024-05-30T16:13:19Z</time>
					</trkpt>
					<trkpt lat="48.984450" lon="2.328430">
						<ele>120</ele>
						<time>2024-05-30T16:13:24Z</time>
					</trkpt>
					<trkpt lat="48.984330" lon="2.328370">
						<ele>119</ele>
						<time>2024-05-30T16:13:26Z</time>
					</trkpt>
					<trkpt lat="48.984220" lon="2.328260">
						<ele>119</ele>
						<time>2024-05-30T16:13:29Z</time>
					</trkpt>
					<trkpt lat="48.984040" lon="2.327940">
						<ele>119</ele>
						<time>2024-05-30T16:13:34Z</time>
					</trkpt>
					<trkpt lat="48.982130" lon="2.322390">
						<ele>103</ele>
						<time>2024-05-30T16:14:47Z</time>
					</trkpt>
					<trkpt lat="48.981900" lon="2.321740">
						<ele>100</ele>
						<time>2024-05-30T16:14:55Z</time>
					</trkpt>
					<trkpt lat="48.981740" lon="2.321460">
						<ele>99</ele>
						<time>2024-05-30T16:15:00Z</time>
					</trkpt>
					<trkpt lat="48.981570" lon="2.321240">
						<ele>97</ele>
						<time>2024-05-30T16:15:04Z</time>
					</trkpt>
					<trkpt lat="48.981510" lon="2.321170">
						<ele>96</ele>
						<time>2024-05-30T16:15:05Z</time>
					</trkpt>
					<trkpt lat="48.981480" lon="2.321050">
						<ele>96</ele>
						<time>2024-05-30T16:15:07Z</time>
					</trkpt>
					<trkpt lat="48.981460" lon="2.320940">
						<ele>95</ele>
						<time>2024-05-30T16:15:08Z</time>
					</trkpt>
					<trkpt lat="48.981350" lon="2.320790">
						<ele>94</ele>
						<time>2024-05-30T16:15:11Z</time>
					</trkpt>
					<trkpt lat="48.981200" lon="2.320720">
						<ele>93</ele>
						<time>2024-05-30T16:15:13Z</time>
					</trkpt>
					<trkpt lat="48.981150" lon="2.320640">
						<ele>92</ele>
						<time>2024-05-30T16:15:15Z</time>
					</trkpt>
					<trkpt lat="48.981010" lon="2.320240">
						<ele>90</ele>
						<time>2024-05-30T16:15:20Z</time>
					</trkpt>
					<trkpt lat="48.980860" lon="2.319470">
						<ele>88</ele>
						<time>2024-05-30T16:15:29Z</time>
					</trkpt>
					<trkpt lat="48.980750" lon="2.319130">
						<ele>87</ele>
						<time>2024-05-30T16:15:34Z</time>
					</trkpt>
					<trkpt lat="48.979700" lon="2.316920">
						<ele>76</ele>
						<time>2024-05-30T16:16:06Z</time>
					</trkpt>
					<trkpt lat="48.979690" lon="2.316850">
						<ele>76</ele>
						<time>2024-05-30T16:16:06Z</time>
					</trkpt>
					<trkpt lat="48.979700" lon="2.316750">
						<ele>76</ele>
						<time>2024-05-30T16:16:08Z</time>
					</trkpt>
					<trkpt lat="48.979720" lon="2.316680">
						<ele>76</ele>
						<time>2024-05-30T16:16:09Z</time>
					</trkpt>
					<trkpt lat="48.979710" lon="2.316630">
						<ele>76</ele>
						<time>2024-05-30T16:16:09Z</time>
					</trkpt>
					<trkpt lat="48.979540" lon="2.316400">
						<ele>75</ele>
						<time>2024-05-30T16:16:13Z</time>
					</trkpt>
					<trkpt lat="48.978680" lon="2.315080">
						<ele>71</ele>
						<time>2024-05-30T16:16:35Z</time>
					</trkpt>
					<trkpt lat="48.978210" lon="2.314260">
						<ele>68</ele>
						<time>2024-05-30T16:16:48Z</time>
					</trkpt>
					<trkpt lat="48.978060" lon="2.314060">
						<ele>67</ele>
						<time>2024-05-30T16:16:51Z</time>
					</trkpt>
					<trkpt lat="48.977630" lon="2.313790">
						<ele>65</ele>
						<time>2024-05-30T16:16:59Z</time>
					</trkpt>
					<trkpt lat="48.977450" lon="2.313630">
						<ele>64</ele>
						<time>2024-05-30T16:17:03Z</time>
					</trkpt>
					<trkpt lat="48.977320" lon="2.313550">
						<ele>63</ele>
						<time>2024-05-30T16:17:06Z</time>
					</trkpt>
					<trkpt lat="48.977130" lon="2.313450">
						<ele>61</ele>
						<time>2024-05-30T16:17:09Z</time>
					</trkpt>
					<trkpt lat="48.976940" lon="2.313370">
						<ele>60</ele>
						<time>2024-05-30T16:17:13Z</time>
					</trkpt>
					<trkpt lat="48.975920" lon="2.312770">
						<ele>56</ele>
						<time>2024-05-30T16:17:32Z</time>
					</trkpt>
					<trkpt lat="48.975910" lon="2.312610">
						<ele>56</ele>
						<time>2024-05-30T16:17:34Z</time>
					</trkpt>
					<trkpt lat="48.975860" lon="2.312460">
						<ele>56</ele>
						<time>2024-05-30T16:17:36Z</time>
					</trkpt>
					<trkpt lat="48.975780" lon="2.312310">
						<ele>56</ele>
						<time>2024-05-30T16:17:38Z</time>
					</trkpt>
					<trkpt lat="48.975640" lon="2.312140">
						<ele>56</ele>
						<time>2024-05-30T16:17:41Z</time>
					</trkpt>
					<trkpt lat="48.975220" lon="2.311770">
						<ele>55</ele>
						<time>2024-05-30T16:17:50Z</time>
					</trkpt>
					<trkpt lat="48.974790" lon="2.311570">
						<ele>54</ele>
						<time>2024-05-30T16:17:58Z</time>
					</trkpt>
					<trkpt lat="48.974310" lon="2.311380">
						<ele>53</ele>
						<time>2024-05-30T16:18:07Z</time>
					</trkpt>
					<trkpt lat="48.973830" lon="2.311080">
						<ele>52</ele>
						<time>2024-05-30T16:18:16Z</time>
					</trkpt>
					<trkpt lat="48.973310" lon="2.310680">
						<ele>52</ele>
						<time>2024-05-30T16:18:27Z</time>
					</trkpt>
					<trkpt lat="48.972760" lon="2.310150">
						<ele>53</ele>
						<time>2024-05-30T16:18:38Z</time>
					</trkpt>
					<trkpt lat="48.972410" lon="2.309630">
						<ele>53</ele>
						<time>2024-05-30T16:18:47Z</time>
					</trkpt>
					<trkpt lat="48.971990" lon="2.308960">
						<ele>52</ele>
						<time>2024-05-30T16:18:58Z</time>
					</trkpt>
					<trkpt lat="48.971920" lon="2.308780">
						<ele>52</ele>
						<time>2024-05-30T16:19:00Z</time>
					</trkpt>
					<trkpt lat="48.971910" lon="2.308630">
						<ele>52</ele>
						<time>2024-05-30T16:19:02Z</time>
					</trkpt>
					<trkpt lat="48.971890" lon="2.308540">
						<ele>52</ele>
						<time>2024-05-30T16:19:03Z</time>
					</trkpt>
					<trkpt lat="48.971730" lon="2.308270">
						<ele>52</ele>
						<time>2024-05-30T16:19:07Z</time>
					</trkpt>
					<trkpt lat="48.971870" lon="2.308020">
						<ele>52</ele>
						<time>2024-05-30T16:19:11Z</time>
					</trkpt>
					<trkpt lat="48.972670" lon="2.306870">
						<ele>50</ele>
						<time>2024-05-30T16:19:31Z</time>
					</trkpt>
					<trkpt lat="48.972840" lon="2.306570">
						<ele>49</ele>
						<time>2024-05-30T16:19:35Z</time>
					</trkpt>
					<trkpt lat="48.972270" lon="2.305770">
						<ele>48</ele>
						<time>2024-05-30T16:19:49Z</time>
					</trkpt>
					<trkpt lat="48.972150" lon="2.305670">
						<ele>48</ele>
						<time>2024-05-30T16:19:51Z</time>
					</trkpt>
					<trkpt lat="48.972020" lon="2.305420">
						<ele>47</ele>
						<time>2024-05-30T16:19:55Z</time>
					</trkpt>
					<trkpt lat="48.971730" lon="2.304990">
						<ele>46</ele>
						<time>2024-05-30T16:20:02Z</time>
					</trkpt>
					<trkpt lat="48.970720" lon="2.303540">
						<ele>44</ele>
						<time>2024-05-30T16:20:27Z</time>
					</trkpt>
					<trkpt lat="48.970640" lon="2.303360">
						<ele>43</ele>
						<time>2024-05-30T16:20:30Z</time>
					</trkpt>
					<trkpt lat="48.970630" lon="2.303260">
						<ele>43</ele>
						<time>2024-05-30T16:20:31Z</time>
					</trkpt>
					<trkpt lat="48.970580" lon="2.303220">
						<ele>42</ele>
						<time>2024-05-30T16:20:32Z</time>
					</trkpt>
					<trkpt lat="48.970480" lon="2.303260">
						<ele>43</ele>
						<time>2024-05-30T16:20:34Z</time>
					</trkpt>
					<trkpt lat="48.970420" lon="2.303280">
						<ele>43</ele>
						<time>2024-05-30T16:20:35Z</time>
					</trkpt>
					<trkpt lat="48.970350" lon="2.303350">
						<ele>43</ele>
						<time>2024-05-30T16:20:36Z</time>
					</trkpt>
					<trkpt lat="48.970160" lon="2.303420">
						<ele>43</ele>
						<time>2024-05-30T16:20:40Z</time>
					</trkpt>
					<trkpt lat="48.969900" lon="2.303640">
						<ele>43</ele>
						<time>2024-05-30T16:20:45Z</time>
					</trkpt>
					<trkpt lat="48.969720" lon="2.303840">
						<ele>43</ele>
						<time>2024-05-30T16:20:49Z</time>
					</trkpt>
					<trkpt lat="48.969190" lon="2.304830">
						<ele>46</ele>
						<time>2024-05-30T16:21:04Z</time>
					</trkpt>
					<trkpt lat="48.969070" lon="2.304910">
						<ele>46</ele>
						<time>2024-05-30T16:21:06Z</time>
					</trkpt>
					<trkpt lat="48.968950" lon="2.304890">
						<ele>45</ele>
						<time>2024-05-30T16:21:08Z</time>
					</trkpt>
					<trkpt lat="48.967660" lon="2.303470">
						<ele>39</ele>
						<time>2024-05-30T16:21:37Z</time>
					</trkpt>
					<trkpt lat="48.967130" lon="2.302730">
						<ele>38</ele>
						<time>2024-05-30T16:21:49Z</time>
					</trkpt>
					<trkpt lat="48.966440" lon="2.301500">
						<ele>41</ele>
						<time>2024-05-30T16:22:08Z</time>
					</trkpt>
					<trkpt lat="48.966110" lon="2.300860">
						<ele>42</ele>
						<time>2024-05-30T16:22:18Z</time>
					</trkpt>
					<trkpt lat="48.965900" lon="2.300640">
						<ele>43</ele>
						<time>2024-05-30T16:22:22Z</time>
					</trkpt>
					<trkpt lat="48.965840" lon="2.300570">
						<ele>43</ele>
						<time>2024-05-30T16:22:24Z</time>
					</trkpt>
					<trkpt lat="48.965690" lon="2.300600">
						<ele>44</ele>
						<time>2024-05-30T16:22:26Z</time>
					</trkpt>
					<trkpt lat="48.965360" lon="2.301360">
						<ele>45</ele>
						<time>2024-05-30T16:22:37Z</time>
					</trkpt>
					<trkpt lat="48.964950" lon="2.301920">
						<ele>45</ele>
						<time>2024-05-30T16:22:47Z</time>
					</trkpt>
					<trkpt lat="48.964390" lon="2.302620">
						<ele>44</ele>
						<time>2024-05-30T16:23:00Z</time>
					</trkpt>
					<trkpt lat="48.963870" lon="2.303300">
						<ele>42</ele>
						<time>2024-05-30T16:23:12Z</time>
					</trkpt>
					<trkpt lat="48.960570" lon="2.306830">
						<ele>40</ele>
						<time>2024-05-30T16:24:24Z</time>
					</trkpt>
					<trkpt lat="48.958990" lon="2.308380">
						<ele>35</ele>
						<time>2024-05-30T16:24:57Z</time>
					</trkpt>
					<trkpt lat="48.958680" lon="2.308630">
						<ele>35</ele>
						<time>2024-05-30T16:25:03Z</time>
					</trkpt>
					<trkpt lat="48.958560" lon="2.308650">
						<ele>35</ele>
						<time>2024-05-30T16:25:06Z</time>
					</trkpt>
					<trkpt lat="48.958440" lon="2.308550">
						<ele>35</ele>
						<time>2024-05-30T16:25:08Z</time>
					</trkpt>
					<trkpt lat="48.958330" lon="2.308550">
						<ele>35</ele>
						<time>2024-05-30T16:25:10Z</time>
					</trkpt>
					<trkpt lat="48.958180" lon="2.308970">
						<ele>35</ele>
						<time>2024-05-30T16:25:16Z</time>
					</trkpt>
					<trkpt lat="48.958090" lon="2.309130">
						<ele>35</ele>
						<time>2024-05-30T16:25:18Z</time>
					</trkpt>
					<trkpt lat="48.957500" lon="2.309740">
						<ele>37</ele>
						<time>2024-05-30T16:25:31Z</time>
					</trkpt>
					<trkpt lat="48.957390" lon="2.309870">
						<ele>37</ele>
						<time>2024-05-30T16:25:33Z</time>
					</trkpt>
					<trkpt lat="48.957300" lon="2.309920">
						<ele>38</ele>
						<time>2024-05-30T16:25:35Z</time>
					</trkpt>
					<trkpt lat="48.957160" lon="2.310050">
						<ele>38</ele>
						<time>2024-05-30T16:25:38Z</time>
					</trkpt>
					<trkpt lat="48.957110" lon="2.309930">
						<ele>39</ele>
						<time>2024-05-30T16:25:39Z</time>
					</trkpt>
					<trkpt lat="48.957150" lon="2.309890">
						<ele>39</ele>
						<time>2024-05-30T16:25:40Z</time>
					</trkpt>
					<trkpt lat="48.957170" lon="2.309830">
						<ele>38</ele>
						<time>2024-05-30T16:25:41Z</time>
					</trkpt>
					<trkpt lat="48.957060" lon="2.309600">
						<ele>39</ele>
						<time>2024-05-30T16:25:44Z</time>
					</trkpt>
					<trkpt lat="48.956840" lon="2.309300">
						<ele>39</ele>
						<time>2024-05-30T16:25:50Z</time>
					</trkpt>
					<trkpt lat="48.956450" lon="2.308930">
						<ele>40</ele>
						<time>2024-05-30T16:25:58Z</time>
					</trkpt>
					<trkpt lat="48.956410" lon="2.308860">
						<ele>40</ele>
						<time>2024-05-30T16:25:59Z</time>
					</trkpt>
					<trkpt lat="48.956240" lon="2.308720">
						<ele>40</ele>
						<time>2024-05-30T16:26:02Z</time>
					</trkpt>
					<trkpt lat="48.955690" lon="2.308400">
						<ele>41</ele>
						<time>2024-05-30T16:26:13Z</time>
					</trkpt>
					<trkpt lat="48.955540" lon="2.308340">
						<ele>41</ele>
						<time>2024-05-30T16:26:16Z</time>
					</trkpt>
					<trkpt lat="48.954870" lon="2.308120">
						<ele>42</ele>
						<time>2024-05-30T16:26:28Z</time>
					</trkpt>
					<trkpt lat="48.954890" lon="2.307900">
						<ele>42</ele>
						<time>2024-05-30T16:26:30Z</time>
					</trkpt>
					<trkpt lat="48.954750" lon="2.307850">
						<ele>42</ele>
						<time>2024-05-30T16:26:33Z</time>
					</trkpt>
					<trkpt lat="48.954620" lon="2.307870">
						<ele>42</ele>
						<time>2024-05-30T16:26:35Z</time>
					</trkpt>
					<trkpt lat="48.952030" lon="2.307160">
						<ele>33</ele>
						<time>2024-05-30T16:27:22Z</time>
					</trkpt>
					<trkpt lat="48.951820" lon="2.307100">
						<ele>31</ele>
						<time>2024-05-30T16:27:26Z</time>
					</trkpt>
					<trkpt lat="48.951710" lon="2.307120">
						<ele>30</ele>
						<time>2024-05-30T16:27:28Z</time>
					</trkpt>
					<trkpt lat="48.951070" lon="2.306940">
						<ele>31</ele>
						<time>2024-05-30T16:27:39Z</time>
					</trkpt>
					<trkpt lat="48.951000" lon="2.306860">
						<ele>31</ele>
						<time>2024-05-30T16:27:41Z</time>
					</trkpt>
					<trkpt lat="48.950700" lon="2.306760">
						<ele>32</ele>
						<time>2024-05-30T16:27:46Z</time>
					</trkpt>
					<trkpt lat="48.950500" lon="2.306710">
						<ele>31</ele>
						<time>2024-05-30T16:27:50Z</time>
					</trkpt>
					<trkpt lat="48.950490" lon="2.306840">
						<ele>31</ele>
						<time>2024-05-30T16:27:52Z</time>
					</trkpt>
					<trkpt lat="48.950500" lon="2.307610">
						<ele>31</ele>
						<time>2024-05-30T16:28:01Z</time>
					</trkpt>
					<trkpt lat="48.950490" lon="2.307900">
						<ele>31</ele>
						<time>2024-05-30T16:28:04Z</time>
					</trkpt>
					<trkpt lat="48.950450" lon="2.308490">
						<ele>31</ele>
						<time>2024-05-30T16:28:11Z</time>
					</trkpt>
					<trkpt lat="48.949940" lon="2.312060">
						<ele>31</ele>
						<time>2024-05-30T16:28:54Z</time>
					</trkpt>
					<trkpt lat="48.949910" lon="2.312160">
						<ele>31</ele>
						<time>2024-05-30T16:28:55Z</time>
					</trkpt>
					<trkpt lat="48.949700" lon="2.312510">
						<ele>30</ele>
						<time>2024-05-30T16:29:00Z</time>
					</trkpt>
					<trkpt lat="48.949680" lon="2.312580">
						<ele>30</ele>
						<time>2024-05-30T16:29:01Z</time>
					</trkpt>
					<trkpt lat="48.949550" lon="2.313300">
						<ele>31</ele>
						<time>2024-05-30T16:29:10Z</time>
					</trkpt>
					<trkpt lat="48.949550" lon="2.313420">
						<ele>31</ele>
						<time>2024-05-30T16:29:11Z</time>
					</trkpt>
					<trkpt lat="48.949610" lon="2.313720">
						<ele>32</ele>
						<time>2024-05-30T16:29:15Z</time>
					</trkpt>
					<trkpt lat="48.949630" lon="2.313860">
						<ele>32</ele>
						<time>2024-05-30T16:29:17Z</time>
					</trkpt>
					<trkpt lat="48.948570" lon="2.319060">
						<ele>37</ele>
						<time>2024-05-30T16:30:20Z</time>
					</trkpt>
					<trkpt lat="48.947350" lon="2.324490">
						<ele>31</ele>
						<time>2024-05-30T16:31:27Z</time>
					</trkpt>
					<trkpt lat="48.946670" lon="2.327070">
						<ele>31</ele>
						<time>2024-05-30T16:32:00Z</time>
					</trkpt>
					<trkpt lat="48.945730" lon="2.330730">
						<ele>29</ele>
						<time>2024-05-30T16:32:46Z</time>
					</trkpt>
					<trkpt lat="48.945050" lon="2.333090">
						<ele>27</ele>
						<time>2024-05-30T16:33:16Z</time>
					</trkpt>
					<trkpt lat="48.944570" lon="2.334260">
						<ele>27</ele>
						<time>2024-05-30T16:33:32Z</time>
					</trkpt>
					<trkpt lat="48.944200" lon="2.334940">
						<ele>27</ele>
						<time>2024-05-30T16:33:42Z</time>
					</trkpt>
					<trkpt lat="48.943710" lon="2.335780">
						<ele>29</ele>
						<time>2024-05-30T16:33:56Z</time>
					</trkpt>
					<trkpt lat="48.943310" lon="2.336370">
						<ele>29</ele>
						<time>2024-05-30T16:34:05Z</time>
					</trkpt>
					<trkpt lat="48.942710" lon="2.337120">
						<ele>28</ele>
						<time>2024-05-30T16:34:19Z</time>
					</trkpt>
					<trkpt lat="48.942380" lon="2.337470">
						<ele>28</ele>
						<time>2024-05-30T16:34:26Z</time>
					</trkpt>
					<trkpt lat="48.941930" lon="2.337820">
						<ele>29</ele>
						<time>2024-05-30T16:34:35Z</time>
					</trkpt>
					<trkpt lat="48.940540" lon="2.338850">
						<ele>26</ele>
						<time>2024-05-30T16:35:03Z</time>
					</trkpt>
					<trkpt lat="48.939190" lon="2.339670">
						<ele>27</ele>
						<time>2024-05-30T16:35:29Z</time>
					</trkpt>
					<trkpt lat="48.938460" lon="2.339990">
						<ele>26</ele>
						<time>2024-05-30T16:35:42Z</time>
					</trkpt>
					<trkpt lat="48.935910" lon="2.340860">
						<ele>28</ele>
						<time>2024-05-30T16:36:29Z</time>
					</trkpt>
					<trkpt lat="48.935850" lon="2.340840">
						<ele>28</ele>
						<time>2024-05-30T16:36:30Z</time>
					</trkpt>
					<trkpt lat="48.935840" lon="2.340780">
						<ele>28</ele>
						<time>2024-05-30T16:36:31Z</time>
					</trkpt>
					<trkpt lat="48.935810" lon="2.340750">
						<ele>28</ele>
						<time>2024-05-30T16:36:31Z</time>
					</trkpt>
					<trkpt lat="48.935780" lon="2.340760">
						<ele>28</ele>
						<time>2024-05-30T16:36:32Z</time>
					</trkpt>
					<trkpt lat="48.935750" lon="2.340790">
						<ele>28</ele>
						<time>2024-05-30T16:36:32Z</time>
					</trkpt>
					<trkpt lat="48.935740" lon="2.340840">
						<ele>28</ele>
						<time>2024-05-30T16:36:33Z</time>
					</trkpt>
					<trkpt lat="48.935440" lon="2.340930">
						<ele>28</ele>
						<time>2024-05-30T16:36:38Z</time>
					</trkpt>
					<trkpt lat="48.935050" lon="2.341010">
						<ele>28</ele>
						<time>2024-05-30T16:36:45Z</time>
					</trkpt>
					<trkpt lat="48.934900" lon="2.341010">
						<ele>29</ele>
						<time>2024-05-30T16:36:48Z</time>
					</trkpt>
					<trkpt lat="48.934290" lon="2.340940">
						<ele>28</ele>
						<time>2024-05-30T16:36:59Z</time>
					</trkpt>
					<trkpt lat="48.933240" lon="2.340790">
						<ele>29</ele>
						<time>2024-05-30T16:37:18Z</time>
					</trkpt>
					<trkpt lat="48.932060" lon="2.340270">
						<ele>28</ele>
						<time>2024-05-30T16:37:40Z</time>
					</trkpt>
					<trkpt lat="48.931640" lon="2.340040">
						<ele>27</ele>
						<time>2024-05-30T16:37:48Z</time>
					</trkpt>
					<trkpt lat="48.931110" lon="2.339830">
						<ele>27</ele>
						<time>2024-05-30T16:37:57Z</time>
					</trkpt>
					<trkpt lat="48.930780" lon="2.339590">
						<ele>28</ele>
						<time>2024-05-30T16:38:04Z</time>
					</trkpt>
					<trkpt lat="48.929700" lon="2.338470">
						<ele>28</ele>
						<time>2024-05-30T16:38:27Z</time>
					</trkpt>
					<trkpt lat="48.928680" lon="2.337450">
						<ele>29</ele>
						<time>2024-05-30T16:38:49Z</time>
					</trkpt>
					<trkpt lat="48.928580" lon="2.337350">
						<ele>29</ele>
						<time>2024-05-30T16:38:51Z</time>
					</trkpt>
					<trkpt lat="48.927740" lon="2.336520">
						<ele>28</ele>
						<time>2024-05-30T16:39:09Z</time>
					</trkpt>
					<trkpt lat="48.926020" lon="2.334910">
						<ele>31</ele>
						<time>2024-05-30T16:39:45Z</time>
					</trkpt>
					<trkpt lat="48.925500" lon="2.334460">
						<ele>30</ele>
						<time>2024-05-30T16:39:55Z</time>
					</trkpt>
					<trkpt lat="48.923570" lon="2.332610">
						<ele>33</ele>
						<time>2024-05-30T16:40:36Z</time>
					</trkpt>
					<trkpt lat="48.920570" lon="2.329810">
						<ele>32</ele>
						<time>2024-05-30T16:41:39Z</time>
					</trkpt>
					<trkpt lat="48.920250" lon="2.329550">
						<ele>33</ele>
						<time>2024-05-30T16:41:45Z</time>
					</trkpt>
					<trkpt lat="48.919910" lon="2.329160">
						<ele>33</ele>
						<time>2024-05-30T16:41:53Z</time>
					</trkpt>
					<trkpt lat="48.919170" lon="2.328020">
						<ele>32</ele>
						<time>2024-05-30T16:42:11Z</time>
					</trkpt>
					<trkpt lat="48.918240" lon="2.329410">
						<ele>33</ele>
						<time>2024-05-30T16:42:35Z</time>
					</trkpt>
					<trkpt lat="48.918210" lon="2.329450">
						<ele>33</ele>
						<time>2024-05-30T16:42:35Z</time>
					</trkpt>
					<trkpt lat="48.918030" lon="2.329470">
						<ele>35</ele>
						<time>2024-05-30T16:42:38Z</time>
					</trkpt>
					<trkpt lat="48.917920" lon="2.329540">
						<ele>36</ele>
						<time>2024-05-30T16:42:41Z</time>
					</trkpt>
					<trkpt lat="48.917820" lon="2.329610">
						<ele>36</ele>
						<time>2024-05-30T16:42:43Z</time>
					</trkpt>
					<trkpt lat="48.917760" lon="2.329680">
						<ele>37</ele>
						<time>2024-05-30T16:42:44Z</time>
					</trkpt>
					<trkpt lat="48.916730" lon="2.330170">
						<ele>38</ele>
						<time>2024-05-30T16:43:03Z</time>
					</trkpt>
					<trkpt lat="48.916380" lon="2.330350">
						<ele>39</ele>
						<time>2024-05-30T16:43:10Z</time>
					</trkpt>
					<trkpt lat="48.915310" lon="2.331330">
						<ele>38</ele>
						<time>2024-05-30T16:43:32Z</time>
					</trkpt>
					<trkpt lat="48.915110" lon="2.330880">
						<ele>35</ele>
						<time>2024-05-30T16:43:38Z</time>
					</trkpt>
					<trkpt lat="48.913620" lon="2.327720">
						<ele>33</ele>
						<time>2024-05-30T16:44:24Z</time>
					</trkpt>
					<trkpt lat="48.913660" lon="2.327670">
						<ele>33</ele>
						<time>2024-05-30T16:44:25Z</time>
					</trkpt>
					<trkpt lat="48.913680" lon="2.327660">
						<ele>33</ele>
						<time>2024-05-30T16:44:25Z</time>
					</trkpt>
					<trkpt lat="48.913480" lon="2.327210">
						<ele>32</ele>
						<time>2024-05-30T16:44:31Z</time>
					</trkpt>
					</trkseg>
				</trk>
			</gpx>